Date StartTime U_cm/s V_cm/s W_cm/s Ustd_cm/s Vstd_cm/s Wstd_cm/s Uvar_(cm/s)^2 Vvar_(cm/s)^2 Wvar_(cm/s)^2 KE_(m/s)^2 TurbulentKE_(m/s)^2 HorizWindSpeed_cm/s FrictionSpeec_cm/s DragCoef SpeedOfSound_m/s SonicTemperature_C Pressure_mb 
05/07/2013  00:00:00     -240.851      -72.927       -2.875      112.006       92.275       64.233    12545.434     8514.668     4125.920        4.426        1.259      251.649       61.208        0.059      337.373        9.301      857.895
05/07/2013  00:01:00     -188.552      -64.091       -5.485      117.960      107.085       53.238    13914.560    11467.091     2834.285        3.395        1.411      199.147       57.492        0.083      337.359        9.277      857.912
05/07/2013  00:02:00     -246.649      -46.678      -13.173      116.004      116.846       55.440    13457.013    13652.917     3073.614        4.668        1.509      251.027       51.227        0.042      337.376        9.306      857.909
05/07/2013  00:03:00     -345.198      -46.888      -23.279      104.739      118.218       47.822    10970.242    13975.521     2286.953        7.456        1.362      348.368       53.291        0.023      337.365        9.285      857.920
05/07/2013  00:04:00     -336.532     -112.155      -23.856      114.809       94.817       51.104    13181.210     8990.234     2611.647        7.559        1.239      354.729       52.054        0.022      337.371        9.295      857.962
05/07/2013  00:05:00     -193.601      -16.254       -9.442      109.383       88.994       51.229    11964.671     7920.005     2624.376        3.017        1.125      194.282       52.431        0.073      337.346        9.257      857.957
05/07/2013  00:06:00     -302.038     -113.359        4.753      177.444      116.926       73.539    31486.357    13671.801     5408.011        7.732        2.528      322.610       94.323        0.085      337.400        9.345      857.953
05/07/2013  00:07:00     -365.897     -112.348      -17.349      103.237      109.512       58.620    10657.874    11992.771     3436.334        8.644        1.304      382.757       49.640        0.017      337.399        9.343      857.965
05/07/2013  00:08:00     -298.221     -113.508      -18.270       97.473       72.336       50.078     9500.968     5232.454     2507.790        5.969        0.862      319.092       51.698        0.026      337.306        9.189      857.991
05/07/2013  00:09:00     -263.950     -117.545      -15.573      114.352       86.476       52.993    13076.473     7478.065     2808.229        5.354        1.168      288.940       54.310        0.035      337.274        9.134      857.988
05/07/2013  00:10:00     -255.735      -34.294      -16.175      122.461       80.279       59.689    14996.627     6444.681     3562.756        4.592        1.250      258.024       65.740        0.065      337.243        9.083      857.976
05/07/2013  00:11:00     -299.409      -47.235       -2.215       90.664       80.548       53.007     8219.995     6487.908     2809.731        5.470        0.876      303.112       51.775        0.029      337.317        9.206      857.980
05/07/2013  00:12:00     -282.961     -112.899        2.977      116.919       89.871       58.559    13669.974     8076.849     3429.106        5.899        1.259      304.652       59.969        0.039      337.264        9.118      857.975
05/07/2013  00:13:00     -268.992      -43.954       -2.220      141.905       91.593       55.803    20137.025     8389.244     3114.002        5.296        1.582      272.559       62.646        0.053      337.209        9.026      857.981
05/07/2013  00:14:00     -159.333      -16.300       29.511      137.603       87.717       52.651    18934.533     7694.199     2772.144        2.796        1.470      160.164       65.651        0.168      337.237        9.074      857.969
05/07/2013  00:15:00     -357.577      -87.971      -24.472      143.459      136.235       61.127    20580.373    18559.903     3736.491        8.953        2.144      368.239       51.531        0.020      337.255        9.103      857.970
05/07/2013  00:16:00     -305.963      -23.288      -21.008      163.511      105.719       54.128    26735.959    11176.461     2929.805        6.771        2.042      306.848       64.765        0.045      337.321        9.214      857.988
05/07/2013  00:17:00     -299.695      -74.385      -19.258       88.800       83.958       47.891     7885.368     7049.028     2293.548        5.647        0.861      308.789       41.114        0.018      337.257        9.107      857.984
05/07/2013  00:18:00     -226.158      -44.333      -15.542      100.980       86.233       51.629    10197.031     7436.051     2665.552        3.682        1.015      230.462       51.965        0.051      337.192        9.000      857.991
05/07/2013  00:19:00     -238.205       -3.511       -6.164      145.928       79.691       54.586    21295.004     6350.599     2979.673        4.370        1.531      238.231       66.881        0.079      337.187        8.992      857.984
05/07/2013  00:20:00     -280.890      -60.333      -10.736      133.639       84.085       50.663    17859.348     7070.284     2566.689        5.507        1.375      287.297       45.934        0.026      337.189        8.992      858.008
05/07/2013  00:21:00     -291.193     -113.719      -15.647      161.496      137.168       63.004    26080.868    18814.987     3969.498        7.341        2.443      312.610       66.971        0.046      337.273        9.135      858.010
05/07/2013  00:22:00     -305.942     -103.410       -6.772      116.777       94.884       59.244    13636.784     9002.906     3509.819        6.524        1.307      322.946       51.926        0.026      337.258        9.108      858.017
05/07/2013  00:23:00     -299.305      -27.422      -34.285      102.564       92.294       42.482    10519.430     8518.221     1804.685        5.617        1.042      300.559       38.896        0.017      337.220        9.044      858.032
05/07/2013  00:24:00     -308.904      -70.735      -11.177      101.636       93.230       56.682    10329.796     8691.876     3212.794        6.139        1.112      316.899       52.603        0.028      337.182        8.982      858.052
05/07/2013  00:25:00     -284.248      -90.082      -11.315      121.576       76.404       50.148    14780.735     5837.545     2514.843        5.608        1.157      298.181       46.292        0.024      337.216        9.036      858.051
05/07/2013  00:26:00     -257.227      -80.249       -6.313      117.016      127.202       67.156    13692.829    16180.437     4509.983        5.351        1.719      269.454       69.461        0.066      337.228        9.057      858.033
05/07/2013  00:27:00     -292.425       -0.323      -10.421      161.912       88.110       65.992    26215.376     7763.409     4354.955        6.197        1.917      292.425       75.872        0.067      337.182        8.982      858.065
05/07/2013  00:28:00     -313.562     -107.014      -10.279      137.589      125.910       68.780    18930.838    15853.298     4730.662        7.469        1.976      331.320       62.713        0.036      337.267        9.122      858.054
05/07/2013  00:29:00     -266.525      -80.870      -14.894      126.696      141.216       59.772    16051.970    19942.043     3572.739        5.868        1.978      278.524       63.644        0.052      337.262        9.115      858.030
05/07/2013  00:30:00     -347.636      -28.978      -21.946      168.748      103.612       69.702    28475.795    10735.396     4858.310        8.311        2.203      348.842       76.280        0.048      337.287        9.157      858.039
05/07/2013  00:31:00     -212.552      -54.219       -0.623      142.619       97.576       53.741    20340.249     9521.149     2888.122        4.043        1.637      219.359       66.281        0.091      337.286        9.155      858.050
05/07/2013  00:32:00     -256.667      -63.412       -2.781      124.170       73.675       54.519    15418.252     5427.964     2972.348        4.686        1.191      264.384       60.045        0.052      337.227        9.056      858.046
05/07/2013  00:33:00     -297.704      -45.458      -17.393      154.021      101.629       64.940    23722.441    10328.364     4217.177        6.463        1.913      301.155       72.868        0.059      337.307        9.189      858.044
05/07/2013  00:34:00     -300.940      -55.783      -20.559      112.070       98.984       59.952    12559.706     9797.899     3594.247        6.002        1.298      306.067       42.558        0.019      337.290        9.160      858.042
05/07/2013  00:35:00     -253.351     -110.268      -12.707      135.362       89.755       62.466    18322.995     8055.962     3902.031        5.339        1.514      276.307       65.557        0.056      337.319        9.210      858.025
05/07/2013  00:36:00     -233.999      -55.254       -8.293      126.191       87.327       58.038    15924.119     7626.053     3368.450        4.239        1.346      240.434       58.105        0.058      337.279        9.144      858.019
05/07/2013  00:37:00     -283.612      -80.259      -13.511      136.403      115.419       57.490    18605.757    13321.661     3305.140        6.114        1.762      294.749       57.343        0.038      337.311        9.197      858.007
05/07/2013  00:38:00     -313.857      -96.688      -20.180      138.192      104.981       64.940    19097.151    11021.097     4217.145        7.129        1.717      328.413       53.373        0.026      337.374        9.301      858.007
05/07/2013  00:39:00     -172.354      -91.274        1.145      129.316      108.711       75.801    16722.530    11818.069     5745.849        3.616        1.714      195.030       75.880        0.151      337.375        9.304      857.997
05/07/2013  00:40:00     -287.363     -117.669      -15.411      138.268      111.546       65.506    19117.994    12442.481     4291.045        6.625        1.793      310.522       69.405        0.050      337.363        9.284      858.002
05/07/2013  00:41:00     -209.258     -128.814        2.139      144.879      122.829       70.719    20989.925    15086.868     5001.143        5.073        2.054      245.728       78.930        0.103      337.391        9.331      858.005
05/07/2013  00:42:00     -295.078      -94.491      -10.339      141.164      119.996       66.190    19927.243    14398.974     4381.112        6.740        1.935      309.838       63.705        0.042      337.387        9.323      858.007
05/07/2013  00:43:00     -341.737     -170.139      -24.104      153.638      111.192       67.450    23604.608    12363.594     4549.496        9.341        2.026      381.748       72.505        0.036      337.412        9.365      857.998
05/07/2013  00:44:00     -169.043     -131.582       -2.426      142.801      119.620       65.137    20392.103    14309.058     4242.871        4.241        1.947      214.218       60.784        0.081      337.438        9.410      857.978
05/07/2013  00:45:00     -328.911     -184.454       -5.963      150.838      120.365       66.372    22751.979    14487.668     4405.177        9.194        2.082      377.102       77.693        0.042      337.442        9.416      857.975
05/07/2013  00:46:00     -249.136     -135.767       -7.459      141.577      134.808       71.162    20044.036    18173.158     5064.009        6.191        2.164      283.727       78.540        0.077      337.457        9.441      857.973
05/07/2013  00:47:00     -255.641      -81.828        3.779      133.177      120.677       71.923    17736.139    14562.917     5172.903        5.476        1.874      268.418       74.753        0.078      337.474        9.468      857.950
05/07/2013  00:48:00     -259.765      -58.318       -1.209      128.135      110.605       62.219    16418.619    12233.481     3871.203        5.170        1.626      266.230       54.941        0.043      337.452        9.432      857.937
05/07/2013  00:49:00     -311.158     -124.877      -12.275      141.664      119.109       64.149    20068.560    14187.033     4115.045        7.546        1.919      335.281       55.503        0.027      337.480        9.479      857.913
05/07/2013  00:50:00     -264.876      -70.703       -6.820      147.781      101.578       69.691    21839.094    10318.137     4856.792        5.610        1.851      274.150       74.403        0.074      337.491        9.497      857.903
05/07/2013  00:51:00     -287.219     -137.154      -11.147      157.620       77.985       58.447    24844.002     6081.661     3416.019        6.788        1.717      318.286       61.677        0.038      337.500        9.512      857.899
05/07/2013  00:52:00     -198.577      -47.486       -2.699      142.069       80.220       54.070    20183.546     6435.237     2923.579        3.561        1.477      204.175       56.109        0.076      337.485        9.488      857.905
05/07/2013  00:53:00     -246.059     -109.907       -9.679      197.866       87.842       62.650    39150.943     7716.205     3925.035        6.175        2.540      269.489       85.270        0.100      337.516        9.539      857.917
05/07/2013  00:54:00     -281.434      -75.271      -14.757      183.396      129.151       62.959    33633.999    16679.990     3963.823        6.967        2.714      291.326       78.412        0.072      337.514        9.536      857.917
05/07/2013  00:55:00     -224.391     -120.744       -2.849      109.044      103.789       58.321    11890.567    10772.196     3401.318        4.550        1.303      254.815       59.356        0.054      337.521        9.548      857.917
05/07/2013  00:56:00     -298.110      -80.152      -18.929      113.048      126.323       59.278    12779.805    15957.548     3513.889        6.395        1.613      308.697       60.156        0.038      337.531        9.565      857.908
05/07/2013  00:57:00     -318.839      -27.763      -21.414      130.263       98.289       58.044    16968.388     9660.807     3369.108        6.644        1.500      320.045       59.065        0.034      337.511        9.530      857.917
05/07/2013  00:58:00     -186.410      -51.626       -4.640      104.041       92.686       50.022    10824.443     8590.773     2502.214        2.967        1.096      193.427       46.160        0.057      337.529        9.561      857.923
05/07/2013  00:59:00     -132.738      -40.958        7.897      112.550       64.632       41.378    12667.428     4177.341     1712.134        1.895        0.928      138.913       52.739        0.144      337.524        9.556      857.934
05/07/2013  01:00:00      -94.171      -50.077       24.035      102.312       77.102       56.196    10467.771     5944.740     3157.987        1.576        0.979      106.658       62.404        0.342      337.526        9.559      857.939
05/07/2013  01:01:00     -222.073      -51.168        2.905      136.259      102.603       57.773    18566.500    10527.344     3337.672        4.218        1.622      227.891       60.473        0.070      337.574        9.636      857.929
05/07/2013  01:02:00     -191.580      -81.912       -0.603      135.421       98.502       56.289    18338.886     9702.552     3168.444        3.731        1.560      208.357       54.122        0.067      337.612        9.702      857.932
05/07/2013  01:03:00     -324.577     -123.240      -26.531      132.762      119.154       52.422    17625.699    14197.644     2748.030        7.790        1.729      347.186       60.132        0.030      337.568        9.625      857.931
05/07/2013  01:04:00     -378.869      -73.486      -10.401      156.404      118.204       68.803    24462.120    13972.237     4733.855        9.610        2.158      385.930       73.857        0.037      337.557        9.606      857.940
05/07/2013  01:05:00     -171.283      -31.387       -0.042       73.790       79.756       46.899     5444.897     6361.093     2199.496        2.216        0.700      174.135       34.697        0.040      337.545        9.589      857.944
05/07/2013  01:06:00     -245.588     -121.228       -5.111      137.193       93.423       53.954    18821.880     8727.845     2911.036        5.274        1.523      273.879       62.980        0.053      337.577        9.642      857.956
05/07/2013  01:07:00     -300.257      -42.347      -17.429      126.921       93.677       60.544    16109.057     8775.434     3665.539        6.040        1.428      303.229       59.113        0.038      337.572        9.633      857.959
05/07/2013  01:08:00     -174.605      -21.685       -3.963      150.303       99.349       62.985    22590.922     9870.176     3967.163        3.369        1.821      175.947       73.594        0.175      337.550        9.597      857.971
05/07/2013  01:09:00     -267.755      -43.562      -16.024      118.906       82.624       54.313    14138.595     6826.775     2949.894        4.888        1.196      271.275       60.643        0.050      337.569        9.627      857.998
05/07/2013  01:10:00     -280.305      -24.084       -5.900      105.289       94.324       63.301    11085.796     8896.925     4006.968        5.158        1.199      281.338       52.619        0.035      337.595        9.671      858.000
05/07/2013  01:11:00     -181.593      -30.769        4.425      126.250       85.334       57.577    15939.150     7281.888     3315.071        3.023        1.327      184.181       68.650        0.139      337.621        9.716      857.998
05/07/2013  01:12:00     -158.793       -2.560       10.426      120.209       77.159       62.045    14450.204     5953.531     3849.564        2.479        1.213      158.814       64.238        0.164      337.617        9.710      858.013
05/07/2013  01:13:00     -250.579      -37.502       -9.835      136.235       87.858       43.253    18559.962     7719.022     1870.833        4.622        1.407      253.369       49.117        0.038      337.602        9.685      858.034
05/07/2013  01:14:00     -264.827     -101.744       -3.643      102.064      107.428       40.808    10417.038    11540.804     1665.286        5.206        1.181      283.699       34.903        0.015      337.576        9.640      858.040
05/07/2013  01:15:00     -273.674      -35.666      -25.091       55.612       84.332       39.253     3092.705     7111.962     1540.783        4.427        0.587      275.989       37.014        0.018      337.578        9.641      858.041
05/07/2013  01:16:00     -170.015      -92.158       15.092      131.846       80.133       57.946    17383.371     6421.233     3357.757        3.239        1.358      193.386       67.294        0.121      337.574        9.638      858.041
05/07/2013  01:17:00     -260.995      -81.383      -14.822      102.115       95.507       56.572    10427.443     9121.581     3200.415        4.885        1.137      273.389       50.793        0.035      337.568        9.624      858.044
05/07/2013  01:18:00     -235.179      -12.939       -9.473      114.562       62.905       37.051    13124.534     3957.024     1372.783        3.701        0.923      235.535       40.464        0.030      337.558        9.610      858.049
05/07/2013  01:19:00     -262.639      -70.206      -20.266       73.293       73.152       30.969     5371.851     5351.165      959.087        4.300        0.584      271.860       24.589        0.008      337.546        9.589      858.040
05/07/2013  01:20:00     -249.654      -78.984      -13.513       98.541       94.677       46.211     9710.303     8963.682     2135.449        4.478        1.040      261.851       46.978        0.032      337.534        9.571      858.050
05/07/2013  01:21:00     -276.317      -84.849      -21.521      123.265       90.744       51.383    15194.334     8234.457     2640.178        5.504        1.303      289.051       61.025        0.045      337.553        9.598      858.059
05/07/2013  01:22:00     -227.213       29.932      -17.462       94.757       64.640       43.895     8978.835     4178.338     1926.772        3.395        0.754      229.176       46.287        0.041      337.548        9.592      858.071
05/07/2013  01:23:00     -172.937      -10.275       -6.278       72.226       49.545       27.850     5216.658     2454.744      775.640        1.925        0.422      173.242       33.157        0.037      337.538        9.577      858.070
05/07/2013  01:24:00     -188.980      -43.883      -17.547       80.127       53.960       39.335     6420.288     2911.656     1547.209        2.441        0.544      194.008       35.503        0.033      337.537        9.574      858.085
05/07/2013  01:25:00     -260.228      -67.283       -3.423       87.951       82.020       56.216     7735.293     6727.350     3160.284        4.494        0.881      268.786       54.233        0.041      337.521        9.546      858.089
05/07/2013  01:26:00     -205.201      -67.930      -12.251       63.111       54.346       44.096     3983.010     2953.538     1944.470        2.788        0.444      216.153       35.682        0.027      337.522        9.549      858.107
05/07/2013  01:27:00     -194.949       23.698      -17.041       83.953       56.332       36.130     7048.092     3173.317     1305.357        2.519        0.576      196.384       31.157        0.025      337.510        9.529      858.113
05/07/2013  01:28:00      -25.113      -17.921        8.014       72.615       42.314       35.623     5272.907     1790.444     1269.018        0.467        0.417       30.852       40.114        1.691      337.591        9.668      858.116
05/07/2013  01:29:00     -231.447       41.262      -19.265       93.683       99.867       49.854     8776.557     9973.442     2485.386        3.843        1.062      235.096       52.983        0.051      337.527        9.557      858.116
05/07/2013  01:30:00     -181.685      -14.716      -10.129      107.416       81.846       43.471    11538.132     6698.696     1889.697        2.672        1.006      182.280       37.335        0.042      337.503        9.519      858.120
05/07/2013  01:31:00     -208.910      -80.451      -16.097      110.333       89.463       45.703    12173.363     8003.577     2088.741        3.632        1.113      223.866       51.719        0.053      337.531        9.566      858.131
05/07/2013  01:32:00     -207.666      -25.283       -9.972       73.968       59.146       36.561     5471.257     3498.223     1336.740        2.708        0.515      209.200       39.416        0.035      337.506        9.522      858.125
05/07/2013  01:33:00     -251.518      -62.616      -16.889       92.966       97.421       46.656     8642.668     9490.840     2176.807        4.389        1.016      259.195       43.960        0.029      337.513        9.534      858.123
05/07/2013  01:34:00     -233.232      -25.951       -8.107       66.744       59.509       34.688     4454.724     3541.354     1203.245        3.217        0.460      234.671       25.908        0.012      337.500        9.513      858.145
05/07/2013  01:35:00     -123.461      -69.465       12.329       76.410       66.527       45.534     5838.539     4425.877     2073.367        1.628        0.617      141.662       38.247        0.073      337.518        9.544      858.156
05/07/2013  01:36:00     -183.273      -10.396      -11.332       81.072       62.258       44.551     6572.687     3876.027     1984.825        2.313        0.622      183.568       47.342        0.067      337.523        9.551      858.155
05/07/2013  01:37:00     -251.145     -114.481       -5.511       93.797       61.404       42.923     8797.850     3770.476     1842.366        4.531        0.721      276.007       40.233        0.021      337.528        9.559      858.149
05/07/2013  01:38:00     -179.401      -25.916      -12.754       83.647       80.079       42.383     6996.785     6412.621     1796.314        2.411        0.760      181.263       46.786        0.067      337.555        9.604      858.159
05/07/2013  01:39:00     -158.141      -17.175        6.240       92.484       67.693       47.686     8553.303     4582.296     2273.926        2.037        0.770      159.070       47.938        0.091      337.558        9.611      858.162
05/07/2013  01:40:00     -187.632        0.985      -11.114       64.374       42.197       30.734     4144.002     1780.570      944.559        2.110        0.343      187.635       29.531        0.025      337.551        9.599      858.172
05/07/2013  01:41:00     -278.306      -39.007      -23.587       98.327       82.501       47.864     9668.194     6806.368     2290.922        4.915        0.938      281.026       48.074        0.029      337.544        9.585      858.178
05/07/2013  01:42:00     -161.180      -66.579        5.288       95.848       80.199       42.370     9186.834     6431.855     1795.223        2.392        0.871      174.389       44.852        0.066      337.518        9.543      858.182
05/07/2013  01:43:00     -226.406      -59.629      -11.103       97.600       89.482       42.818     9525.826     8007.026     1833.372        3.715        0.968      234.127       42.662        0.033      337.573        9.634      858.188
05/07/2013  01:44:00     -321.296        0.641      -24.998       94.670       91.089       39.075     8962.342     8297.157     1526.828        6.132        0.939      321.297       38.907        0.015      337.602        9.682      858.200
05/07/2013  01:45:00     -196.594      -39.202       -3.822       92.104       92.603       50.007     8483.084     8575.363     2500.668        2.988        0.978      200.464       45.289        0.051      337.600        9.681      858.203
05/07/2013  01:46:00     -300.730       25.343      -18.835      123.739       81.537       50.147    15311.343     6648.240     2514.738        5.795        1.224      301.796       50.814        0.028      337.583        9.651      858.219
05/07/2013  01:47:00     -254.969      -21.982      -23.335       87.102       58.803       37.887     7586.718     3457.834     1435.434        3.926        0.624      255.915       40.667        0.025      337.567        9.623      858.228
05/07/2013  01:48:00     -219.675      -37.662      -14.222       69.444       76.714       34.878     4822.529     5885.012     1216.443        3.090        0.596      222.881       34.502        0.024      337.562        9.618      858.242
05/07/2013  01:49:00     -174.859      -62.206        2.073       61.851       70.704       31.729     3825.594     4999.072     1006.750        2.214        0.492      185.594       29.573        0.025      337.557        9.608      858.265
05/07/2013  01:50:00     -258.168      -82.806      -19.871      102.368       75.440       51.742    10479.175     5691.260     2677.233        4.637        0.942      271.123       44.296        0.027      337.581        9.648      858.283
05/07/2013  01:51:00     -128.088      -98.262       -3.452       85.086       72.640       36.310     7239.630     5276.599     1318.422        1.995        0.692      161.437       38.980        0.058      337.587        9.661      858.301
05/07/2013  01:52:00     -118.638      -70.828       -8.861       52.722       50.052       29.884     2779.650     2505.197      893.061        1.267        0.309      138.173       27.069        0.038      337.579        9.646      858.315
05/07/2013  01:53:00      -51.629      -63.177       13.317       69.123       59.047       32.753     4778.003     3486.571     1072.729        0.808        0.467       81.589       33.433        0.168      337.612        9.704      858.328
05/07/2013  01:54:00     -124.263      -54.776        2.963       57.560       36.864       33.487     3313.187     1358.945     1121.383        1.212        0.290      135.800       28.268        0.043      337.578        9.644      858.334
05/07/2013  01:55:00      -94.806      -28.168        0.198       49.873       32.637       25.743     2487.267     1065.185      662.726        0.700        0.211       98.902       23.373        0.056      337.591        9.668      858.345
05/07/2013  01:56:00      -41.071      -36.961        4.211       39.999       33.234       19.525     1599.923     1104.491      381.237        0.308        0.154       55.254       22.723        0.169      337.611        9.704      858.344
05/07/2013  01:57:00      -92.211      -23.840       -2.168       32.513       35.528       17.650     1057.127     1262.260      311.534        0.585        0.132       95.243       16.445        0.030      337.601        9.687      858.349
05/07/2013  01:58:00      -72.349      -11.275       -6.652       48.748       32.595       22.641     2376.337     1062.420      512.600        0.468        0.198       73.223       20.811        0.081      337.586        9.659      858.345
05/07/2013  01:59:00     -106.535      -41.383        1.151       57.481       36.441       28.252     3304.055     1327.916      798.177        0.925        0.272      114.290       29.362        0.066      337.616        9.711      858.338
05/07/2013  02:00:00      -75.310      -33.912        4.422       76.826       31.327       27.856     5902.204      981.350      775.952        0.725        0.383       82.593       39.028        0.223      337.605        9.692      858.347
05/07/2013  02:01:00      -82.911     -134.682       -1.564       53.042       62.338       27.817     2813.428     3886.025      773.802        1.624        0.374      158.157       31.488        0.040      337.655        9.776      858.345
05/07/2013  02:02:00     -140.525      -69.167        4.749       67.911       48.426       31.193     4611.901     2345.120      973.028        1.624        0.397      156.625       26.365        0.028      337.665        9.793      858.344
05/07/2013  02:03:00     -112.380      -89.478       -6.004       55.006       37.067       34.952     3025.640     1373.969     1221.652        1.315        0.281      143.651       28.464        0.039      337.645        9.759      858.356
05/07/2013  02:04:00      -72.806      -77.480      -17.728       44.831       20.725       14.248     2009.838      429.507      202.992        0.713        0.132      106.320       16.051        0.023      337.649        9.767      858.372
05/07/2013  02:05:00      -91.609      -57.479       -9.022       35.348       28.471       15.796     1249.503      810.599      249.525        0.704        0.115      108.148       17.997        0.028      337.636        9.745      858.380
05/07/2013  02:06:00       -4.791      -40.203       14.727       38.678       27.678       22.672     1495.954      766.061      514.006        0.232        0.139       40.487       14.950        0.136      337.694        9.841      858.393
05/07/2013  02:07:00      -22.339      -20.279        7.134       27.697       24.118       16.759      767.138      581.693      280.855        0.130        0.081       30.170       14.141        0.220      337.637        9.745      858.391
05/07/2013  02:08:00       18.209       -1.820       16.402       21.692       17.259       12.703      470.542      297.888      161.372        0.077        0.046       18.299        9.358        0.262      337.632        9.737      858.389
05/07/2013  02:09:00       55.703       25.050       32.824       32.923       32.347       19.530     1083.897     1046.326      381.410        0.366        0.126       61.076       23.521        0.148      337.578        9.647      858.386
05/07/2013  02:10:00       10.801      -63.647       19.888       49.162       56.631       27.121     2416.917     3207.078      735.543        0.546        0.318       64.557       30.849        0.228      337.622        9.720      858.380
05/07/2013  02:11:00       80.454      -66.023        7.714       53.165       54.954       32.951     2826.559     3019.915     1085.747        0.891        0.347      104.076       42.611        0.168      337.532        9.569      858.372
05/07/2013  02:12:00       82.061     -136.537      -11.816       56.416       49.011       32.478     3182.743     2402.054     1054.826        1.608        0.332      159.299       31.212        0.038      337.556        9.608      858.387
05/07/2013  02:13:00      122.972     -136.882       -0.059       72.616       74.644       39.545     5273.150     5571.715     1563.785        2.313        0.620      184.008       50.169        0.074      337.465        9.454      858.409
05/07/2013  02:14:00       59.098       29.416       76.602       65.112       80.718       48.486     4239.538     6515.316     2350.924        1.166        0.655       66.014       54.036        0.670      337.387        9.326      858.407
05/07/2013  02:15:00       76.963      -33.412       21.308       31.831       55.794       38.871     1013.211     3113.004     1510.953        0.656        0.282       83.903       38.802        0.214      337.404        9.355      858.400
05/07/2013  02:16:00       41.654      -37.915       28.944       44.402       80.371       36.266     1971.556     6459.452     1315.213        0.688        0.487       56.326       38.162        0.459      337.457        9.444      858.387
05/07/2013  02:17:00       14.928       42.520       93.808       43.742       50.398       31.912     1913.375     2540.004     1018.408        0.815        0.274       45.064       32.016        0.505      337.434        9.406      858.384
05/07/2013  02:18:00       16.655      -24.325       56.852       38.661       54.759       38.813     1494.672     2998.568     1506.485        0.505        0.300       29.480       33.476        1.289      337.449        9.429      858.388
05/07/2013  02:19:00       65.307      -59.207       16.609       60.735       91.515       50.523     3688.793     8375.040     2552.576        1.133        0.731       88.150       58.304        0.437      337.418        9.380      858.392
05/07/2013  02:20:00       44.104      -64.757       18.817       53.639       78.282       54.230     2877.124     6128.142     2940.938        0.922        0.597       78.350       47.632        0.370      337.457        9.444      858.389
05/07/2013  02:21:00       -9.348      -51.866       36.669       31.268       43.089       29.815      977.665     1856.623      888.961        0.392        0.186       52.702       16.695        0.100      337.482        9.485      858.398
05/07/2013  02:22:00       31.631      -44.437       14.951       52.684       65.088       48.857     2775.632     4236.452     2387.001        0.630        0.470       54.545       30.262        0.308      337.381        9.316      858.400
05/07/2013  02:23:00      -33.174      -43.808       39.574       40.767       50.228       31.113     1661.921     2522.880      968.027        0.487        0.258       54.952       23.742        0.187      337.356        9.274      858.414
05/07/2013  02:24:00      -15.274      -52.605        5.649       30.810       34.117       18.695      949.241     1163.982      349.515        0.275        0.123       54.778        7.895        0.021      337.425        9.389      858.427
05/07/2013  02:25:00      -36.160      -51.521       -4.014       35.084       33.782       21.600     1230.859     1141.241      466.571        0.341        0.142       62.944       13.643        0.047      337.393        9.336      858.432
05/07/2013  02:26:00      -61.674      -26.430        4.744       35.772       38.986       20.827     1279.667     1519.926      433.751        0.388        0.162       67.099       21.946        0.107      337.358        9.279      858.443
05/07/2013  02:27:00      -50.538      -84.633       -1.389       43.399       38.572       22.150     1883.445     1487.807      490.610        0.679        0.193       98.574       21.875        0.049      337.340        9.246      858.454
05/07/2013  02:28:00      -67.744      -77.492       -0.506       44.281       26.952       19.808     1960.799      726.396      392.348        0.684        0.154      102.928       17.493        0.029      337.322        9.218      858.439
05/07/2013  02:29:00      -62.887      -57.961       -2.718       24.468       38.457       16.422      598.661     1478.961      269.684        0.483        0.117       85.523       17.580        0.042      337.314        9.203      858.437
05/07/2013  02:30:00      -44.032       -8.650       -1.139       25.271       22.260       15.609      638.619      495.508      243.644        0.170        0.069       44.873       14.619        0.106      337.295        9.173      858.440
05/07/2013  02:31:00      -32.560      -61.431        5.394       43.085       38.227       17.805     1856.332     1461.327      317.026        0.425        0.182       69.526       21.687        0.097      337.351        9.265      858.434
05/07/2013  02:32:00      -93.960      -73.331        3.069       41.481       37.587       27.464     1720.641     1412.818      754.267        0.905        0.194      119.189       24.982        0.044      337.298        9.177      858.430
05/07/2013  02:33:00     -135.445      -99.232       -7.591       53.297       52.103       26.075     2840.563     2714.709      679.897        1.724        0.312      167.906       21.597        0.017      337.309        9.195      858.426
05/07/2013  02:34:00     -109.430      -84.202        5.314       61.711       42.068       33.720     3808.213     1769.735     1137.054        1.290        0.336      138.076       30.230        0.048      337.274        9.139      858.431
05/07/2013  02:35:00     -102.408      -59.511        5.027       65.630       52.214       35.622     4307.322     2726.277     1268.946        1.118        0.415      118.444       39.015        0.109      337.286        9.158      858.437
05/07/2013  02:36:00     -104.710      -85.772       -0.469       66.794       54.996       29.517     4461.480     3024.524      871.230        1.334        0.418      135.356       36.074        0.071      337.264        9.120      858.442
05/07/2013  02:37:00      -91.508      -95.641       -3.976       46.983       51.405       19.919     2207.381     2642.445      396.770        1.139        0.262      132.367       21.188        0.026      337.211        9.031      858.439
05/07/2013  02:38:00      -78.353      -96.818       -3.419       59.431       46.238       25.849     3532.037     2137.976      668.169        1.093        0.317      124.551       27.731        0.050      337.205        9.022      858.430
05/07/2013  02:39:00       -9.485        6.254       16.406       35.060       22.965       20.729     1229.185      527.383      429.690        0.129        0.109       11.361       21.909        3.719      337.225        9.058      858.414
05/07/2013  02:40:00      -26.195      -54.478        1.113       28.062       43.916       24.451      787.460     1928.572      597.851        0.348        0.166       60.448       16.359        0.073      337.336        9.241      858.419
05/07/2013  02:41:00      -16.818      -11.317       15.322       26.576       22.623       21.901      706.291      511.807      479.632        0.117        0.085       20.271       18.437        0.827      337.384        9.320      858.433
05/07/2013  02:42:00      -28.968      -35.335        4.509       30.924       35.349       18.000      956.299     1249.557      324.000        0.232        0.126       45.691       16.532        0.131      337.377        9.309      858.435
05/07/2013  02:43:00      -22.200      -11.626       10.436       31.905       14.866       18.242     1017.940      220.993      332.782        0.115        0.079       25.060        9.829        0.154      337.321        9.216      858.449
05/07/2013  02:44:00      -45.596      -30.516       18.381       63.376       42.930       25.511     4016.502     1843.006      650.824        0.493        0.326       54.865       29.292        0.285      337.242        9.085      858.456
05/07/2013  02:45:00      -26.898      -44.882        1.505       52.110       35.552       22.372     2715.455     1263.969      500.500        0.361        0.224       52.325       23.064        0.194      337.218        9.045      858.454
05/07/2013  02:46:00      -15.246      -48.498        5.463       29.024       35.403       20.384      842.374     1253.363      415.512        0.256        0.126       50.838       20.943        0.170      337.244        9.088      858.451
05/07/2013  02:47:00      -50.951      -73.278       -2.673       32.931       30.550       15.750     1084.466      933.296      248.050        0.512        0.113       89.251       12.247        0.019      337.200        9.015      858.454
05/07/2013  02:48:00      -60.127     -101.460       -0.617       64.316       45.605       26.732     4136.608     2079.798      714.605        1.042        0.347      117.938       23.077        0.038      337.224        9.052      858.457
05/07/2013  02:49:00      -55.700      -61.846       10.615       57.061       49.757       25.301     3255.991     2475.779      640.132        0.670        0.319       83.231       22.071        0.070      337.189        8.995      858.465
05/07/2013  02:50:00      -87.050      -71.999       -4.794       39.689       29.297       18.481     1575.207      858.322      341.536        0.778        0.139      112.967       11.004        0.009      337.097        8.839      858.467
05/07/2013  02:51:00     -147.551      -93.564       -7.683       59.848       41.132       31.408     3581.835     1691.826      986.471        1.842        0.313      174.716       21.141        0.015      337.101        8.844      858.467
05/07/2013  02:52:00      -81.454      -79.040       13.535       68.811       53.286       35.384     4734.983     2839.445     1252.011        1.094        0.441      113.499       29.798        0.069      337.069        8.792      858.461
05/07/2013  02:53:00     -103.373     -123.390        5.487       69.944       68.812       31.513     4892.229     4735.095      993.089        1.828        0.531      160.970       28.879        0.032      337.083        8.817      858.451
05/07/2013  02:54:00      -47.058      -76.608        5.056       56.148       53.509       24.008     3152.565     2863.200      576.406        0.735        0.330       89.907        9.213        0.011      337.104        8.851      858.449
05/07/2013  02:55:00      -78.374      -33.309        7.192       51.870       41.286       30.511     2690.519     1704.559      930.937        0.631        0.266       85.158       29.894        0.123      337.077        8.808      858.441
05/07/2013  02:56:00      -66.818      -53.933        7.215       61.773       34.730       29.130     3815.897     1206.164      848.567        0.665        0.294       85.868       27.969        0.106      337.107        8.858      858.456
05/07/2013  02:57:00      -44.950     -108.546       -3.383       64.966       55.236       28.884     4220.522     3051.031      834.287        1.096        0.405      117.485       27.913        0.056      337.138        8.910      858.462
05/07/2013  02:58:00      -65.698      -56.166        6.006       31.542       35.357       23.557      994.907     1250.095      554.935        0.515        0.140       86.434       18.473        0.046      337.054        8.768      858.467
05/07/2013  02:59:00      -73.061     -108.316       -5.320       47.616       46.482       28.419     2267.278     2160.577      807.649        1.117        0.262      130.653       19.287        0.022      337.075        8.803      858.463
05/07/2013  03:00:00      -43.994      -11.521        8.572       43.415       31.553       19.981     1884.898      995.606      399.249        0.271        0.164       45.478       16.247        0.128      337.082        8.816      858.452
05/07/2013  03:01:00      -46.449      -61.103       -3.686       39.043       35.335       21.108     1524.329     1248.543      445.531        0.456        0.161       76.753       16.206        0.045      337.124        8.885      858.445
05/07/2013  03:02:00      -56.868      -53.023        0.916       34.953       32.391       20.417     1221.701     1049.156      416.853        0.437        0.134       77.752       13.041        0.028      337.116        8.872      858.429
05/07/2013  03:03:00      -43.719      -48.297        1.022       44.509       32.195       19.174     1981.047     1036.499      367.638        0.381        0.169       65.145       19.984        0.094      337.132        8.899      858.426
05/07/2013  03:04:00      -31.522      -31.443       12.303       44.106       31.080       24.501     1945.380      965.940      600.297        0.282        0.176       44.523       20.791        0.218      337.105        8.855      858.423
05/07/2013  03:05:00      -59.733      -17.567       11.040       63.873       37.711       21.959     4079.791     1422.105      482.202        0.499        0.299       62.263       20.424        0.108      337.078        8.807      858.417
05/07/2013  03:06:00      -77.848      -51.851        3.831       43.139       28.454       22.900     1860.950      809.605      524.398        0.598        0.160       93.535       16.671        0.032      337.086        8.820      858.414
05/07/2013  03:07:00      -95.344      -45.592        9.341       47.565       41.779       29.968     2262.402     1745.505      898.054        0.808        0.245      105.684       29.039        0.076      337.046        8.755      858.420
05/07/2013  03:08:00     -109.467      -85.442        8.122       75.042       51.713       36.856     5631.230     2674.239     1358.375        1.450        0.483      138.864       31.672        0.052      337.025        8.719      858.425
05/07/2013  03:09:00      -67.540      -65.852        1.276       49.709       50.990       32.299     2471.001     2600.010     1043.242        0.751        0.306       94.330       31.195        0.109      337.028        8.725      858.421
05/07/2013  03:10:00     -117.490     -113.780        2.806       85.541       72.140       37.418     7317.220     5204.139     1400.132        2.034        0.696      163.554       49.825        0.093      337.003        8.680      858.426
05/07/2013  03:11:00     -120.786      -98.411        2.860       48.280       46.885       30.121     2330.914     2198.202      907.284        1.486        0.272      155.801       23.465        0.023      336.994        8.667      858.423
05/07/2013  03:12:00     -117.868      -96.091        2.387       60.946       43.180       39.971     3714.474     1864.549     1597.666        1.515        0.359      152.074       32.276        0.045      336.964        8.618      858.421
05/07/2013  03:13:00     -124.914      -69.328        2.837       69.666       47.524       30.336     4853.402     2258.513      920.256        1.422        0.402      142.863       31.621        0.049      336.969        8.625      858.417
05/07/2013  03:14:00      -43.737      -47.245       11.796       51.841       43.022       23.160     2687.524     1850.912      536.391        0.468        0.254       64.381       21.821        0.115      336.977        8.639      858.403
05/07/2013  03:15:00      -89.593     -109.594       -5.744       63.825       49.626       24.665     4073.586     2462.705      608.364        1.361        0.357      141.554       24.930        0.031      337.018        8.708      858.399
05/07/2013  03:16:00     -136.100     -134.030      -17.279       66.853       56.702       29.570     4469.268     3215.117      874.356        2.267        0.428      191.016       15.260        0.006      336.933        8.563      858.397
05/07/2013  03:17:00      -68.215      -86.664       -0.664       53.623       85.442       32.973     2875.388     7300.367     1087.192        1.171        0.563      110.290       24.098        0.048      337.035        8.735      858.396
05/07/2013  03:18:00      -69.861     -117.058      -11.056       74.233       65.750       28.003     5510.546     4323.067      784.173        1.466        0.531      136.320       23.281        0.029      337.015        8.703      858.388
05/07/2013  03:19:00      -36.187      -37.642       10.686       69.132       63.623       22.616     4779.299     4047.902      511.488        0.609        0.467       52.215       31.570        0.366      337.122        8.881      858.379
05/07/2013  03:20:00       -5.060      -19.784        5.955       52.635       41.865       24.033     2770.444     1752.715      577.573        0.278        0.255       20.420        9.840        0.232      337.093        8.833      858.378
05/07/2013  03:21:00      -10.968      -31.219        1.695       41.242       32.745       22.718     1700.906     1072.254      516.122        0.219        0.164       33.089       13.583        0.168      337.122        8.883      858.389
05/07/2013  03:22:00      -40.231      -45.295       -6.818       65.695       24.599       17.001     4315.833      605.100      289.032        0.446        0.260       60.582       11.857        0.038      337.094        8.835      858.410
05/07/2013  03:23:00      -75.262     -107.623        0.858       39.971       68.152       23.617     1597.643     4644.718      557.765        1.202        0.340      131.329       27.287        0.043      337.006        8.689      858.427
05/07/2013  03:24:00      -91.830      -89.142        3.130       39.913       58.741       27.598     1593.066     3450.518      761.653        1.110        0.290      127.981       23.032        0.032      337.050        8.762      858.425
05/07/2013  03:25:00      -82.866      -11.717        2.288       52.398       36.411       33.178     2745.521     1325.750     1100.776        0.609        0.259       83.691       24.570        0.086      337.059        8.775      858.429
05/07/2013  03:26:00      -77.792      -72.618        2.148       37.805       42.934       23.435     1429.200     1843.323      549.181        0.758        0.191      106.419       21.237        0.040      336.982        8.648      858.428
05/07/2013  03:27:00      -69.511      -91.361       -4.147       48.149       36.610       27.305     2318.302     1340.289      745.579        0.880        0.220      114.798       16.986        0.022      337.015        8.703      858.426
05/07/2013  03:28:00      -84.110      -53.926        8.924       81.260       41.108       30.725     6603.238     1689.837      944.016        0.965        0.462       99.912       23.608        0.056      336.969        8.626      858.422
05/07/2013  03:29:00      -76.081      -84.962      -11.493       60.181       33.482       23.494     3621.779     1121.021      551.989        0.922        0.265      114.048       19.810        0.030      336.982        8.646      858.428
05/07/2013  03:30:00      -75.490      -30.453        8.072       63.766       41.507       29.720     4066.166     1722.821      883.287        0.668        0.334       81.401       24.776        0.093      336.959        8.610      858.420
05/07/2013  03:31:00      -94.398      -43.980        2.474       41.885       39.803       19.915     1754.324     1584.240      396.616        0.729        0.187      104.141       12.919        0.015      336.970        8.627      858.431
05/07/2013  03:32:00      -77.705      -97.959       -8.296       84.936       46.352       22.398     7214.198     2148.504      501.679        1.278        0.493      125.037       32.713        0.068      336.973        8.632      858.439
05/07/2013  03:33:00      -52.182      -58.946       10.517       61.579       56.865       29.076     3791.927     3233.604      845.394        0.709        0.394       78.725       32.816        0.174      336.961        8.614      858.438
05/07/2013  03:34:00      -17.378      -25.480        6.301       39.229       23.730       19.071     1538.951      563.096      363.696        0.173        0.123       30.842       18.156        0.347      337.022        8.713      858.439
05/07/2013  03:35:00      -63.006      -40.239       -8.902       32.331       27.020       18.910     1045.321      730.058      357.586        0.390        0.107       74.760       14.947        0.040      336.974        8.633      858.444
05/07/2013  03:36:00      -84.178     -111.753       -8.501       55.963       40.315       24.529     3131.824     1625.326      601.658        1.250        0.268      139.910       20.758        0.022      336.941        8.580      858.444
05/07/2013  03:37:00      -75.164      -71.946       -1.460       35.291       40.371       24.294     1245.489     1629.807      590.184        0.715        0.173      104.048       18.830        0.033      336.933        8.566      858.448
05/07/2013  03:38:00      -41.599      -26.369        0.748       45.269       39.261       23.606     2049.238     1541.426      557.242        0.329        0.207       49.253       21.499        0.191      336.926        8.554      858.451
05/07/2013  03:39:00      -82.639      -75.338        9.957       52.470       38.692       32.025     2753.135     1497.059     1025.596        0.894        0.264      111.826       28.678        0.066      336.951        8.596      858.460
05/07/2013  03:40:00      -92.265      -99.446        3.911       58.816       44.751       26.702     3459.275     2002.628      713.016        1.230        0.309      135.655       24.507        0.033      336.906        8.521      858.462
05/07/2013  03:41:00      -72.341     -167.548      -13.883       55.413       49.357       32.593     3070.635     2436.144     1062.313        2.003        0.328      182.498       20.475        0.013      336.928        8.556      858.469
05/07/2013  03:42:00      -34.984     -114.266       -1.814       64.600       50.075       36.440     4173.208     2507.493     1327.846        1.114        0.400      119.502       34.969        0.086      337.008        8.691      858.433
05/07/2013  03:43:00      -32.989      -62.707        8.945       52.580       42.071       35.286     2764.616     1769.932     1245.098        0.544        0.289       70.855       22.109        0.097      337.091        8.830      858.423
05/07/2013  03:44:00      -76.688      -76.477        5.707       54.133       39.713       28.617     2930.399     1577.133      818.959        0.854        0.266      108.304       20.590        0.036      337.009        8.694      858.433
05/07/2013  03:45:00      -66.004      -79.939      -11.999       39.839       52.831       23.729     1587.169     2791.065      563.089        0.792        0.247      103.667       22.365        0.047      337.024        8.719      858.429
05/07/2013  03:46:00      -42.893      -22.181        0.558       30.529       29.893       18.449      932.045      893.613      340.376        0.225        0.108       48.289        7.029        0.021      336.922        8.548      858.433
05/07/2013  03:47:00      -63.606      -49.873        9.421       41.551       37.063       30.743     1726.459     1373.693      945.137        0.533        0.202       80.827       25.200        0.097      336.934        8.568      858.441
05/07/2013  03:48:00      -31.960      -42.344       -4.432       28.737       22.330       19.399      825.801      498.625      376.328        0.227        0.085       53.052       15.623        0.087      336.871        8.462      858.435
05/07/2013  03:49:00      -78.146      -70.400       -1.707       45.725       43.875       23.312     2090.763     1925.049      543.436        0.781        0.228      105.181       21.981        0.044      336.913        8.533      858.435
05/07/2013  03:50:00     -173.439      -63.807      -13.466       75.885       58.256       35.179     5758.579     3393.818     1237.535        2.236        0.519      184.804       37.513        0.041      336.825        8.383      858.440
05/07/2013  03:51:00     -157.247      -76.716      -13.047       64.210       43.559       24.991     4122.920     1897.382      624.526        1.871        0.332      174.963       24.247        0.019      336.787        8.322      858.453
05/07/2013  03:52:00      -93.570      -47.926       -0.845       66.059       37.396       25.793     4363.810     1398.496      665.284        0.874        0.321      105.130       34.637        0.109      336.798        8.341      858.464
05/07/2013  03:53:00      -77.710      -61.973       -1.831       35.618       31.372       18.867     1268.645      984.202      355.982        0.625        0.130       99.396       16.965        0.029      336.863        8.450      858.466
05/07/2013  03:54:00      -90.826      -48.431       -0.598       22.258       18.441       18.028      495.422      340.078      324.999        0.588        0.058      102.932        6.889        0.004      336.830        8.394      858.468
05/07/2013  03:55:00      -67.986      -70.518        2.878       37.284       21.386       15.383     1390.093      457.342      236.625        0.584        0.104       97.954       17.902        0.033      336.854        8.434      858.473
05/07/2013  03:56:00      -69.472      -33.262       -2.047       30.282       25.876       16.380      916.991      669.549      268.312        0.390        0.093       77.024       13.455        0.031      336.855        8.436      858.485
05/07/2013  03:57:00      -72.747      -46.779        6.992       42.721       33.157       20.466     1825.087     1099.374      418.849        0.544        0.167       86.489       16.994        0.039      336.816        8.371      858.489
05/07/2013  03:58:00      -15.511      -65.073       19.477       51.597       51.409       33.944     2662.298     2642.890     1152.186        0.565        0.323       66.896       29.104        0.189      336.847        8.425      858.488
05/07/2013  03:59:00     -107.587      -39.347       -9.244       36.412       43.373       24.806     1325.833     1881.177      615.360        0.851        0.191      114.556       21.769        0.036      336.807        8.358      858.501
05/07/2013  04:00:00      -34.120      -24.403      -10.390       37.992       18.556       15.356     1443.414      344.321      235.817        0.195        0.101       41.949        6.824        0.026      336.793        8.333      858.508
05/07/2013  04:01:00      -59.591      -17.241       -0.807       40.453       18.851       21.175     1636.453      355.378      448.376        0.314        0.122       62.035       24.062        0.150      336.763        8.285      858.503
05/07/2013  04:02:00      -70.463      -13.782      -14.385       34.801       18.278       12.805     1211.137      334.069      163.981        0.354        0.085       71.798        8.987        0.016      336.747        8.257      858.502
05/07/2013  04:03:00      -36.910      -23.499        1.576       30.409       18.814       17.653      924.689      353.964      311.630        0.175        0.080       43.756       19.444        0.197      336.783        8.317      858.490
05/07/2013  04:04:00      -82.604      -27.572       -3.099       34.279       30.038       20.721     1175.021      902.304      429.361        0.505        0.125       87.084       19.654        0.051      336.773        8.300      858.490
05/07/2013  04:05:00      -52.760      -35.800       12.195       44.682       45.270       30.771     1996.441     2049.372      946.846        0.460        0.250       63.759       20.815        0.107      336.739        8.244      858.500
05/07/2013  04:06:00     -136.550      -73.895        5.197       84.587       54.584       35.673     7154.887     2979.407     1272.552        1.777        0.570      155.262       39.572        0.065      336.728        8.223      858.506
05/07/2013  04:07:00     -158.855     -101.279       -0.307       93.743       61.472       41.100     8787.788     3778.752     1689.238        2.487        0.713      188.394       43.888        0.054      336.690        8.160      858.504
05/07/2013  04:08:00     -177.531      -23.310      -22.344       56.931       50.802       31.034     3241.087     2580.828      963.096        1.967        0.339      179.055       30.850        0.030      336.666        8.120      858.507
05/07/2013  04:09:00     -136.740        0.236       -2.943       63.739       42.251       31.079     4062.723     1785.179      965.883        1.276        0.341      136.740       31.648        0.054      336.627        8.055      858.511
05/07/2013  04:10:00     -181.429      -29.963      -24.332       62.137       62.207       30.420     3860.970     3869.737      925.350        2.153        0.433      183.886       25.438        0.019      336.632        8.063      858.508
05/07/2013  04:11:00     -229.450      -45.999       -9.996       47.677       48.734       31.633     2273.106     2374.975     1000.637        3.026        0.282      234.016       20.574        0.008      336.605        8.017      858.513
05/07/2013  04:12:00     -160.863      -13.559        3.369      102.314       48.200       39.191    10468.202     2323.221     1535.932        2.020        0.716      161.434       51.335        0.101      336.631        8.062      858.531
05/07/2013  04:13:00     -213.915      -45.554       -3.213       73.928       58.799       35.323     5465.398     3457.313     1247.726        2.901        0.509      218.711       30.348        0.019      336.592        7.996      858.541
05/07/2013  04:14:00     -186.480      -50.043       -4.941      114.177       58.697       44.087    13036.281     3445.303     1943.628        2.786        0.921      193.078       53.589        0.077      336.599        8.008      858.543
05/07/2013  04:15:00     -269.366      -50.364       -8.643       86.670       77.299       45.863     7511.657     5975.187     2103.371        4.538        0.780      274.034       45.544        0.028      336.574        7.964      858.540
05/07/2013  04:16:00     -296.156     -116.492      -15.252       96.983       81.623       42.906     9405.660     6662.350     1840.966        5.971        0.895      318.243       25.758        0.007      336.594        7.999      858.541
05/07/2013  04:17:00     -156.866      -44.945      -11.928       84.303       63.225       33.097     7107.049     3997.424     1095.411        1.948        0.610      163.178       34.540        0.045      336.594        8.001      858.550
05/07/2013  04:18:00     -175.635      -52.240      -15.796       59.321       68.471       31.374     3519.003     4688.261      984.348        2.151        0.460      183.239       20.081        0.012      336.568        7.957      858.550
05/07/2013  04:19:00     -216.877       -4.060       -4.137       65.572       80.631       35.111     4299.692     6501.425     1232.784        2.955        0.602      216.915       26.254        0.015      336.530        7.893      858.540
05/07/2013  04:20:00     -177.339      -37.068       -5.225       61.896       65.428       39.245     3831.147     4280.846     1540.199        2.125        0.483      181.171       33.576        0.034      336.516        7.871      858.535
05/07/2013  04:21:00     -140.727      -35.614       11.215      111.417       79.524       48.159    12413.812     6324.131     2319.281        2.112        1.053      145.164       66.481        0.210      336.563        7.949      858.537
05/07/2013  04:22:00     -227.841      -29.936      -22.295       74.404       61.203       50.208     5535.928     3745.788     2520.879        3.255        0.590      229.799       49.129        0.046      336.514        7.864      858.548
05/07/2013  04:23:00     -221.470        6.365       -9.107      100.171       54.749       42.081    10034.188     2997.439     1770.770        3.198        0.740      221.561       39.721        0.032      336.481        7.808      858.552
05/07/2013  04:24:00     -164.907      -56.820       -1.076       60.567       79.072       40.095     3668.406     6252.449     1607.597        2.097        0.576      174.422       30.709        0.031      336.512        7.864      858.556
05/07/2013  04:25:00     -250.487      -58.347       -7.593      109.857       83.437       46.117    12068.529     6961.704     2126.789        4.368        1.058      257.193       54.288        0.045      336.487        7.818      858.567
05/07/2013  04:26:00     -224.444      -81.259       -3.770      108.798      114.448       45.187    11837.019    13098.398     2041.838        4.198        1.349      238.701       48.544        0.041      336.475        7.798      858.558
05/07/2013  04:27:00     -212.490      -36.251       -5.719       93.198       77.622       44.598     8685.774     6025.137     1988.982        3.160        0.835      215.560       46.236        0.046      336.468        7.785      858.556
05/07/2013  04:28:00     -175.153      -65.614       -6.040       94.522       82.046       37.183     8934.371     6731.505     1382.592        2.603        0.852      187.039       30.372        0.026      336.467        7.784      858.568
05/07/2013  04:29:00     -210.120      -29.633        0.637      103.007      109.712       41.868    10610.501    12036.729     1752.899        3.471        1.220      212.199       49.983        0.055      336.441        7.740      858.570
05/07/2013  04:30:00     -161.763      -39.440      -13.669       89.990       64.454       39.875     8098.164     4154.326     1589.993        2.087        0.692      166.502       40.975        0.061      336.459        7.773      858.568
05/07/2013  04:31:00     -157.553      -51.414      -20.316       67.266       56.132       32.562     4524.777     3150.786     1060.285        1.831        0.437      165.730       20.404        0.015      336.450        7.757      858.568
05/07/2013  04:32:00     -155.099      -96.563       -3.115       73.318       89.379       33.988     5375.547     7988.611     1155.150        2.395        0.726      182.702       21.466        0.014      336.453        7.762      858.571
05/07/2013  04:33:00     -179.962      -88.992       -2.081       78.523       86.965       33.109     6165.804     7562.856     1096.197        2.757        0.741      200.763       32.859        0.027      336.409        7.688      858.565
05/07/2013  04:34:00     -216.599     -126.926      -15.112       66.160       83.552       37.039     4377.209     6980.902     1371.887        3.799        0.636      251.049       29.110        0.013      336.379        7.637      858.564
05/07/2013  04:35:00     -166.543     -125.549        0.112       79.099       61.394       34.714     6256.575     3769.259     1205.081        2.736        0.562      208.565       37.249        0.032      336.395        7.664      858.569
05/07/2013  04:36:00      -99.711      -73.470        4.241       66.174       49.099       33.403     4378.988     2410.726     1115.741        1.163        0.395      123.856       36.085        0.085      336.385        7.650      858.561
05/07/2013  04:37:00      -78.957      -38.848        3.352       59.662       39.387       22.043     3559.516     1551.359      485.909        0.667        0.280       87.996       24.417        0.077      336.372        7.629      858.562
05/07/2013  04:38:00      -87.610      -75.385        4.622       59.771       69.760       36.561     3572.609     4866.444     1336.688        1.158        0.489      115.579       40.909        0.125      336.365        7.616      858.561
05/07/2013  04:39:00     -166.291      -25.824      -10.343       76.783       47.036       35.205     5895.674     2212.412     1239.361        1.889        0.467      168.284       28.992        0.030      336.323        7.546      858.558
05/07/2013  04:40:00     -143.504      -44.158       -3.913       74.319       44.682       24.533     5523.331     1996.438      601.874        1.534        0.406      150.145       31.061        0.043      336.326        7.551      858.541
05/07/2013  04:41:00      -70.252      -80.789        1.614       48.358       38.521       29.071     2338.523     1483.839      845.107        0.807        0.233      107.062       26.608        0.062      336.308        7.522      858.544
05/07/2013  04:42:00      -96.624      -85.972       -3.970       48.906       44.701       24.964     2391.832     1998.161      623.226        1.088        0.251      129.334       27.134        0.044      336.322        7.547      858.545
05/07/2013  04:43:00      -80.700      -92.711        5.692       58.620       51.237       29.899     3436.339     2625.208      893.956        1.105        0.348      122.914       26.621        0.047      336.331        7.561      858.538
05/07/2013  04:44:00      -96.628      -69.952       -3.666       36.076       54.028       25.830     1301.464     2919.077      667.167        0.956        0.244      119.290       20.160        0.029      336.309        7.524      858.528
05/07/2013  04:45:00      -60.405      -74.877        3.960       50.179       46.810       26.628     2517.968     2191.148      709.044        0.734        0.271       96.204       31.162        0.105      336.313        7.532      858.538
05/07/2013  04:46:00      -54.070      -36.746       -2.393       31.629       36.565       18.367     1000.384     1336.990      337.352        0.348        0.134       65.374        7.372        0.013      336.338        7.572      858.545
05/07/2013  04:47:00     -125.829      -28.064      -15.917       31.479       31.087       15.356      990.934      966.401      235.800        0.953        0.110      128.920        7.441        0.003      336.290        7.493      858.547
05/07/2013  04:48:00     -122.336      -35.590       -8.461       48.568       38.130       24.818     2358.861     1453.872      615.945        1.037        0.221      127.408       23.847        0.035      336.244        7.418      858.546
05/07/2013  04:49:00     -153.631      -10.494        0.199       58.504       35.362       29.992     3422.663     1250.467      899.521        1.464        0.279      153.989       30.485        0.039      336.217        7.370      858.548
05/07/2013  04:50:00     -142.936      -31.435       -2.759       56.773       38.731       28.998     3223.140     1500.126      840.885        1.349        0.278      146.352       28.546        0.038      336.241        7.410      858.558
05/07/2013  04:51:00     -111.135      -21.049       -1.585       51.693       49.252       23.403     2672.178     2425.779      547.680        0.922        0.282      113.111       22.436        0.039      336.232        7.394      858.560
05/07/2013  04:52:00      -62.418      -83.641       -5.738       31.715       30.292       22.058     1005.847      917.584      486.554        0.667        0.120      104.364       19.761        0.036      336.257        7.438      858.552
05/07/2013  04:53:00     -121.092     -121.917      -11.973       69.624       43.943       37.759     4847.536     1931.014     1425.720        1.894        0.410      171.835       40.000        0.054      336.315        7.533      858.539
05/07/2013  04:54:00      -63.672      -87.975       -1.574       47.863       37.888       27.986     2290.874     1435.476      783.235        0.815        0.225      108.599       25.162        0.054      336.255        7.433      858.532
05/07/2013  04:55:00      -80.344     -122.003       -1.763       52.386       53.670       35.755     2744.319     2880.430     1278.448        1.412        0.345      146.082       27.273        0.035      336.301        7.510      858.526
05/07/2013  04:56:00      -84.030      -81.986        9.916       81.696       50.437       35.887     6674.261     2543.889     1287.846        1.219        0.525      117.400       36.295        0.096      336.314        7.532      858.534
05/07/2013  04:57:00       -4.364      -47.515        6.453       33.772       35.843       26.094     1140.535     1284.755      680.911        0.271        0.155       47.715       25.845        0.293      336.378        7.639      858.536
05/07/2013  04:58:00      -62.408      -38.308        3.990       51.451       34.757       25.756     2647.204     1208.014      663.371        0.495        0.226       73.228       24.496        0.112      336.323        7.548      858.528
05/07/2013  04:59:00      -28.123      -12.237        6.796       20.705       21.989       18.590      428.692      483.528      345.594        0.112        0.063       30.670       14.186        0.214      336.339        7.573      858.520
05/07/2013  05:00:00      -64.209      -35.849        1.817       41.283       25.031       14.875     1704.309      626.560      221.263        0.398        0.128       73.539       10.661        0.021      336.354        7.597      858.523
05/07/2013  05:01:00      -29.940      -12.497       12.814       43.349       24.762       16.564     1879.141      613.139      274.356        0.199        0.138       32.444       21.554        0.441      336.377        7.638      858.514
05/07/2013  05:02:00      -13.181      -24.052        7.505       20.712       25.739       16.843      429.002      662.499      283.699        0.109        0.069       27.427       15.081        0.302      336.412        7.695      858.510
05/07/2013  05:03:00      -35.294      -42.045        4.157       43.022       40.020       19.810     1850.858     1601.636      392.418        0.344        0.192       54.895       17.264        0.099      336.400        7.676      858.511
05/07/2013  05:04:00      -69.189      -86.374        0.360       45.748       34.759       29.420     2092.871     1208.200      865.527        0.821        0.208      110.669       25.333        0.052      336.343        7.580      858.511
05/07/2013  05:05:00      -42.066      -44.862       -1.079       39.484       28.275       22.092     1558.999      799.488      488.039        0.331        0.142       61.499       16.625        0.073      336.369        7.623      858.503
05/07/2013  05:06:00      -62.703      -52.785       -0.969       63.388       31.614       27.187     4018.093      999.453      739.140        0.624        0.288       81.963       25.328        0.095      336.364        7.616      858.503
05/07/2013  05:07:00      -55.454      -22.884       11.942       35.339       31.192       20.308     1248.848      972.951      412.430        0.319        0.132       59.990       18.546        0.096      336.366        7.619      858.494
05/07/2013  05:08:00      -55.256      -44.082       -4.896       49.552       48.505       20.082     2455.435     2352.697      403.296        0.512        0.261       70.686        8.431        0.014      336.450        7.758      858.496
05/07/2013  05:09:00       -9.380      -13.501       11.241       24.630       18.401       16.903      606.619      338.605      285.707        0.081        0.062       16.439       14.796        0.810      336.486        7.820      858.497
05/07/2013  05:10:00      -20.905       12.062        2.567       22.845       31.854       20.791      521.881     1014.655      432.280        0.128        0.098       24.135       15.130        0.393      336.465        7.784      858.501
05/07/2013  05:11:00      -15.540        1.134        4.830       19.594       21.290       14.206      383.938      453.243      201.817        0.065        0.052       15.581       10.629        0.465      336.463        7.781      858.511
05/07/2013  05:12:00       -8.202      -13.032       10.793       37.045       25.399       17.195     1372.344      645.124      295.668        0.133        0.116       15.398       19.937        1.676      336.520        7.877      858.515
05/07/2013  05:13:00      -18.505        3.079        3.585       27.310       16.132       12.406      745.831      260.230      153.911        0.076        0.058       18.759       11.697        0.389      336.430        7.725      858.517
05/07/2013  05:14:00      -22.093        3.825       14.466       39.332       22.831       19.817     1547.023      521.267      392.726        0.159        0.123       22.421       22.903        1.043      336.428        7.723      858.520
05/07/2013  05:15:00      -23.021       -5.659       13.666       29.944       25.549       20.406      896.624      652.750      416.401        0.136        0.098       23.706       17.345        0.535      336.419        7.707      858.513
05/07/2013  05:16:00      -77.454      -30.600       -4.254       37.568       22.025       15.276     1411.392      485.107      233.369        0.454        0.106       83.279        9.186        0.012      336.380        7.643      858.531
05/07/2013  05:17:00      -72.687      -45.638       -2.537       37.316       35.428       17.949     1392.459     1255.167      322.161        0.517        0.148       85.827       13.132        0.023      336.328        7.556      858.532
05/07/2013  05:18:00      -25.669        6.402        6.495       15.903       12.572       10.195      252.900      158.064      103.934        0.063        0.026       26.455        7.266        0.075      336.269        7.457      858.533
05/07/2013  05:19:00      -17.930      -25.432       -5.860       13.887       22.896       11.040      192.862      524.222      121.877        0.092        0.042       31.117        8.924        0.082      336.328        7.554      858.536
05/07/2013  05:20:00      -26.656      -46.740       -1.606       25.603       25.456       12.403      655.499      648.023      153.835        0.218        0.073       53.807        8.262        0.024      336.383        7.647      858.536
05/07/2013  05:21:00      -32.726      -19.109        2.650       44.297       25.824       18.204     1962.192      666.899      331.387        0.220        0.148       37.896       18.739        0.245      336.365        7.619      858.531
05/07/2013  05:22:00      -50.154      -22.490        1.812       34.437       34.658       15.677     1185.940     1201.153      245.773        0.283        0.132       54.966       15.481        0.079      336.387        7.655      858.540
05/07/2013  05:23:00      -56.041      -46.104        4.705       51.860       38.075       25.960     2689.483     1449.678      673.931        0.505        0.241       72.569       23.270        0.103      336.387        7.654      858.544
05/07/2013  05:24:00     -101.626      -88.267       -1.435       41.473       36.693       20.839     1719.998     1346.365      434.265        1.081        0.175      134.606       17.419        0.017      336.331        7.561      858.547
05/07/2013  05:25:00      -71.250      -58.919      -10.099       23.494       22.609       13.903      551.964      511.155      193.306        0.495        0.063       92.455       10.463        0.013      336.311        7.528      858.543
05/07/2013  05:26:00      -67.569      -60.123        4.970       48.146       34.088       22.052     2318.072     1161.961      486.310        0.609        0.198       90.446       15.676        0.030      336.382        7.647      858.541
05/07/2013  05:27:00      -20.008       -6.686       16.297       26.658       28.996       16.808      710.636      840.787      282.521        0.127        0.092       21.096       18.956        0.807      336.368        7.622      858.520
05/07/2013  05:28:00      -23.853       -8.757        6.973       22.568       22.611       16.792      509.325      511.242      281.983        0.100        0.065       25.410       10.016        0.155      336.412        7.694      858.521
05/07/2013  05:29:00      -49.312       -3.634        9.607       38.962       40.137       19.143     1518.002     1610.940      366.464        0.302        0.175       49.445       14.310        0.084      336.387        7.655      858.523
05/07/2013  05:30:00      -72.529      -12.412        0.681       32.153       27.153       18.929     1033.814      737.284      358.310        0.377        0.106       73.584       19.557        0.071      336.378        7.640      858.523
05/07/2013  05:31:00      -77.365      -40.963        3.885       41.002       35.493       18.040     1681.197     1259.752      325.444        0.547        0.163       87.540       15.483        0.031      336.328        7.555      858.519
05/07/2013  05:32:00      -54.973      -48.497       12.914       46.952       37.893       22.483     2204.521     1435.904      505.493        0.484        0.207       73.308       22.640        0.095      336.402        7.679      858.517
05/07/2013  05:33:00      -49.731      -50.112        2.257       48.050       19.677       17.327     2308.798      387.166      300.215        0.399        0.150       70.600        7.253        0.011      336.418        7.707      858.509
05/07/2013  05:34:00      -67.478      -58.727        7.226       40.723       30.562       21.237     1658.377      934.044      451.031        0.555        0.152       89.455       18.096        0.041      336.395        7.669      858.498
05/07/2013  05:35:00      -46.416      -58.717       11.782       45.594       41.873       23.645     2078.785     1753.320      559.092        0.507        0.220       74.848       25.987        0.121      336.397        7.671      858.495
05/07/2013  05:36:00     -102.489      -85.766        6.364       53.812       46.803       26.968     2895.699     2190.497      727.281        1.186        0.291      133.641       27.074        0.041      336.387        7.654      858.490
05/07/2013  05:37:00      -83.505      -98.767        0.541       59.740       47.002       27.576     3568.863     2209.153      760.433        1.163        0.327      129.337       26.773        0.043      336.355        7.600      858.485
05/07/2013  05:38:00      -98.173      -76.816       -2.924       46.423       39.489       24.065     2155.114     1559.402      579.101        0.992        0.215      124.654       19.837        0.025      336.323        7.548      858.478
05/07/2013  05:39:00      -72.938     -104.059       -5.186       40.734       40.630       23.227     1659.293     1650.769      539.501        1.001        0.192      127.076       22.393        0.031      336.365        7.617      858.480
05/07/2013  05:40:00      -76.860      -89.311       -3.532       43.277       39.096       24.327     1872.867     1528.513      591.823        0.894        0.200      117.830       21.231        0.032      336.359        7.609      858.477
05/07/2013  05:41:00      -68.760     -100.995       -1.228       42.423       50.181       27.143     1799.680     2518.117      736.742        0.999        0.253      122.180       30.778        0.063      336.362        7.613      858.482
05/07/2013  05:42:00      -38.618      -59.560        2.944       33.118       43.251       21.067     1096.772     1870.676      443.834        0.423        0.171       70.985       20.701        0.085      336.375        7.635      858.478
05/07/2013  05:43:00      -31.081      -71.964        2.121       29.655       30.771       22.872      879.412      946.880      523.115        0.425        0.117       78.389       19.374        0.061      336.399        7.675      858.474
05/07/2013  05:44:00      -34.175      -54.422      -10.048       44.315       40.881       24.076     1963.844     1671.224      579.665        0.422        0.211       64.262       14.963        0.054      336.361        7.612      858.476
05/07/2013  05:45:00      -44.299      -67.370        0.150       41.972       48.738       16.494     1761.679     2375.408      272.068        0.545        0.220       80.629       12.552        0.024      336.385        7.649      858.478
05/07/2013  05:46:00      -54.314      -93.445        0.996       37.825       37.605       22.784     1430.693     1414.135      519.125        0.752        0.168      108.083       18.213        0.028      336.336        7.570      858.487
05/07/2013  05:47:00      -64.121      -79.584       -3.261       31.882       39.093       22.384     1016.456     1528.224      501.064        0.675        0.152      102.201       13.428        0.017      336.359        7.608      858.495
05/07/2013  05:48:00      -46.162      -62.241        7.364       38.896       40.790       20.785     1512.900     1663.786      432.031        0.483        0.180       77.491       20.233        0.068      336.389        7.658      858.494
05/07/2013  05:49:00      -83.175      -37.323        7.381       58.278       43.291       27.913     3396.358     1874.142      779.146        0.721        0.302       91.165       29.126        0.102      336.361        7.611      858.492
05/07/2013  05:50:00     -122.293      -35.620       -4.059       36.921       37.222       20.328     1363.178     1385.449      413.225        0.970        0.158      127.375       21.173        0.028      336.309        7.524      858.477
05/07/2013  05:51:00     -104.825      -37.572       -0.197       40.023       41.307       20.731     1601.832     1706.276      429.794        0.807        0.187      111.355       20.752        0.035      336.308        7.522      858.465
05/07/2013  05:52:00     -112.220      -41.181        2.216       58.185       50.381       27.838     3385.538     2538.228      774.952        1.050        0.335      119.537       27.156        0.052      336.356        7.602      858.443
05/07/2013  05:53:00     -133.289      -49.547      -10.980       75.608       48.428       30.518     5716.593     2345.295      931.363        1.467        0.450      142.200       33.548        0.056      336.289        7.490      858.431
05/07/2013  05:54:00      -77.750      -39.694        1.812       76.823       44.722       46.049     5901.761     2000.019     2120.489        0.882        0.501       87.296       50.932        0.340      336.354        7.598      858.414
05/07/2013  05:55:00     -133.742      -92.553      -11.475       85.215       50.099       42.636     7261.567     2509.941     1817.798        1.909        0.579      162.644       31.231        0.037      336.315        7.532      858.405
05/07/2013  05:56:00     -205.143      -80.200       -8.456       81.410       60.689       36.330     6627.549     3683.184     1319.869        3.011        0.582      220.263       39.344        0.032      336.268        7.452      858.404
05/07/2013  05:57:00     -125.183      -33.675       -9.054       51.067       41.998       27.509     2607.809     1763.793      756.736        1.101        0.256      129.634       28.133        0.047      336.255        7.434      858.394
05/07/2013  05:58:00     -177.236      -49.908      -10.563       59.058       55.939       31.421     3487.794     3129.132      987.264        2.081        0.380      184.128       33.176        0.032      336.254        7.431      858.392
05/07/2013  05:59:00     -142.269      -29.459       -4.318       65.026       66.941       34.766     4228.360     4481.147     1208.693        1.552        0.496      145.287       21.051        0.021      336.304        7.515      858.394
05/07/2013  06:00:00     -110.908      -11.817        2.186       56.587       51.193       35.140     3202.127     2620.771     1234.842        0.975        0.353      111.536       30.523        0.075      336.258        7.439      858.393
05/07/2013  06:01:00      -84.377      -38.493        3.249       62.434       57.633       26.206     3898.002     3321.527      686.748        0.826        0.395       92.743       22.559        0.059      336.274        7.466      858.396
05/07/2013  06:02:00      -42.890      -66.929       24.762       61.787       54.650       42.597     3817.635     2986.571     1814.468        0.777        0.431       79.492       41.382        0.271      336.325        7.550      858.405
05/07/2013  06:03:00     -108.823      -98.208        3.569       75.403       59.263       35.494     5685.655     3512.153     1259.801        1.598        0.523      146.586       35.992        0.060      336.263        7.446      858.416
05/07/2013  06:04:00     -128.941     -109.162       16.448       86.900       55.183       40.993     7551.571     3045.202     1680.443        2.054        0.614      168.944       43.668        0.067      336.330        7.556      858.429
05/07/2013  06:05:00     -116.686     -137.677      -11.849       52.016       55.369       32.244     2705.705     3065.692     1039.644        1.976        0.341      180.473       25.322        0.020      336.280        7.474      858.440
05/07/2013  06:06:00     -103.804     -130.134        6.199       60.508       48.075       32.152     3661.274     2311.237     1033.740        1.738        0.350      166.464       31.681        0.036      336.259        7.440      858.444
05/07/2013  06:07:00      -88.746     -103.917        8.609       62.261       56.586       38.971     3876.472     3201.994     1518.762        1.367        0.430      136.655       43.610        0.102      336.299        7.506      858.442
05/07/2013  06:08:00     -110.668      -70.374       -2.911       47.497       32.178       20.039     2255.958     1035.446      401.553        1.045        0.185      131.149       19.411        0.022      336.262        7.444      858.444
05/07/2013  06:09:00      -98.607      -78.941        6.606       58.604       44.787       31.492     3434.411     2005.856      991.718        1.121        0.322      126.313       32.557        0.066      336.333        7.563      858.445
05/07/2013  06:10:00      -68.670      -50.813        1.463       58.328       30.347       22.659     3402.142      920.942      513.451        0.607        0.242       85.425       17.635        0.043      336.299        7.508      858.435
05/07/2013  06:11:00      -29.200     -135.330       -0.136       25.111       44.928       18.053      630.540     2018.485      325.902        1.107        0.149      138.445        7.462        0.003      336.312        7.530      858.429
05/07/2013  06:12:00     -142.705      -98.745        2.361       53.366       46.227       24.782     2847.973     2136.965      614.134        1.786        0.280      173.537       25.838        0.022      336.298        7.505      858.434
05/07/2013  06:13:00     -128.331      -67.677        7.386       62.533       35.703       27.155     3910.314     1274.675      737.369        1.351        0.296      145.083       30.996        0.046      336.264        7.449      858.431
05/07/2013  06:14:00      -80.350      -58.712       -1.123       30.376       45.419       22.166      922.704     2062.842      491.321        0.669        0.174       99.514       13.256        0.018      336.303        7.514      858.430
05/07/2013  06:15:00      -44.433      -31.693       10.456       59.624       40.925       23.730     3555.027     1674.866      563.114        0.444        0.290       54.578       22.607        0.172      336.376        7.637      858.424
05/07/2013  06:16:00      -34.590      -28.721       10.963       49.314       28.248       26.086     2431.863      797.931      680.482        0.303        0.196       44.960       22.926        0.260      336.442        7.746      858.431
05/07/2013  06:17:00      -51.636      -64.463       -9.664       49.635       41.448       24.200     2463.654     1717.937      585.634        0.584        0.238       82.594       23.682        0.082      336.409        7.690      858.438
05/07/2013  06:18:00      -28.853       -5.825       15.009       55.038       36.403       26.862     3029.166     1325.177      721.592        0.308        0.254       29.435       32.853        1.246      336.400        7.676      858.421
05/07/2013  06:19:00      -37.492      -14.169        5.518       50.099       36.236       24.429     2509.960     1313.031      596.794        0.303        0.221       40.080       31.442        0.615      336.382        7.647      858.409
05/07/2013  06:20:00        1.075      -38.834        1.271       22.150       33.920       21.732      490.636     1150.574      472.294        0.181        0.106       38.849       17.531        0.204      336.447        7.755      858.405
05/07/2013  06:21:00      -25.653      -34.899        8.038       43.842       24.802       22.525     1922.109      615.153      507.374        0.249        0.152       43.313       25.406        0.344      336.443        7.749      858.405
05/07/2013  06:22:00      -90.671       -6.189       -3.930       38.619       36.084       22.962     1491.462     1302.076      527.263        0.580        0.166       90.882       19.248        0.045      336.326        7.553      858.396
05/07/2013  06:23:00      -65.168      -47.923        3.570       57.892       46.327       18.842     3351.526     2146.152      355.007        0.620        0.293       80.892       19.529        0.058      336.373        7.630      858.406
05/07/2013  06:24:00      -31.539      -36.682        3.002       30.879       51.565       20.485      953.494     2658.922      419.631        0.319        0.202       48.377       16.099        0.111      336.369        7.624      858.431
05/07/2013  06:25:00      -11.749      -39.994       13.178       30.002       30.631       16.403      900.143      938.265      269.045        0.201        0.105       41.684       12.611        0.092      336.442        7.747      858.448
05/07/2013  06:26:00      -88.565      -86.749       -4.503       58.102       42.324       32.229     3375.817     1791.335     1038.719        1.080        0.310      123.972       36.111        0.085      336.329        7.558      858.475
05/07/2013  06:27:00      -72.019      -31.111        7.623       61.429       50.113       26.150     3773.527     2511.298      683.839        0.659        0.348       78.452       24.854        0.100      336.300        7.509      858.491
05/07/2013  06:28:00      -73.397      -37.403        7.072       58.779       38.037       27.039     3454.980     1446.810      731.109        0.623        0.282       82.378       24.256        0.087      336.299        7.507      858.503
05/07/2013  06:29:00      -79.824      -45.129       -1.408       49.011       24.242       24.763     2402.039      587.692      613.227        0.601        0.180       91.698       27.633        0.091      336.315        7.534      858.509
05/07/2013  06:30:00      -82.552      -73.134        1.689       56.626       37.851       30.948     3206.505     1432.704      957.751        0.888        0.280      110.288       26.865        0.059      336.334        7.566      858.525
05/07/2013  06:31:00     -115.444     -113.796       -8.699       44.830       32.770       22.620     2009.700     1073.872      511.644        1.497        0.180      162.101       12.217        0.006      336.270        7.459      858.545
05/07/2013  06:32:00     -105.570      -68.696      -13.360       38.333       39.032       19.420     1469.413     1523.473      377.133        0.971        0.169      125.953       16.568        0.017      336.274        7.465      858.552
05/07/2013  06:33:00      -52.587      -80.032       -0.582       62.674       37.798       24.099     3927.973     1428.715      580.752        0.755        0.297       95.763       19.750        0.043      336.298        7.505      858.560
05/07/2013  06:34:00      -21.832      -66.462        4.076       26.566       32.643       20.158      705.734     1065.551      406.355        0.354        0.109       69.956       17.015        0.059      336.275        7.468      858.575
05/07/2013  06:35:00      -48.992      -38.551       -3.732       38.998       22.418       21.459     1520.834      502.565      460.484        0.319        0.124       62.341       14.860        0.057      336.284        7.483      858.569
05/07/2013  06:36:00     -101.400      -54.732        1.958       40.191       24.500       22.041     1615.330      600.247      485.803        0.799        0.135      115.228       18.989        0.027      336.290        7.492      858.582
05/07/2013  06:37:00     -105.340      -48.614        0.386       32.177       27.822       18.028     1035.347      774.054      325.017        0.780        0.107      116.017       13.520        0.014      336.245        7.416      858.589
05/07/2013  06:38:00      -69.203      -63.560        2.712       49.568       32.738       29.055     2456.972     1071.788      844.179        0.660        0.219       93.963       28.957        0.095      336.343        7.582      858.584
05/07/2013  06:39:00      -55.499      -45.567       12.606       55.624       28.437       23.358     3094.024      808.670      545.617        0.488        0.222       71.809       17.834        0.062      336.334        7.565      858.575
05/07/2013  06:40:00      -56.831      -30.016        4.590       40.762       31.270       21.801     1661.547      977.826      475.295        0.363        0.156       64.270       18.664        0.084      336.370        7.624      858.566
05/07/2013  06:41:00      -62.228      -35.670       -1.477       46.012       27.636       20.522     2117.080      763.729      421.157        0.422        0.165       71.726       12.434        0.030      336.346        7.586      858.553
05/07/2013  06:42:00      -23.132      -15.379       13.169       43.963       40.644       26.280     1932.747     1651.945      690.627        0.261        0.214       27.778       25.337        0.832      336.404        7.683      858.541
05/07/2013  06:43:00      -46.222      -28.319        7.135       43.819       42.550       24.651     1920.089     1810.519      607.652        0.366        0.217       54.207       22.279        0.169      336.417        7.705      858.535
05/07/2013  06:44:00      -35.185      -14.371       15.140       39.035       31.196       21.102     1523.699      973.171      445.306        0.231        0.147       38.007       14.405        0.144      336.427        7.721      858.522
05/07/2013  06:45:00      -10.131       -8.328       11.261       26.169       22.843       21.238      684.809      521.783      451.054        0.098        0.083       13.115       20.099        2.349      336.502        7.847      858.523
05/07/2013  06:46:00      -30.026      -10.586       -5.831       34.004       26.320       17.470     1156.279      692.751      305.188        0.160        0.108       31.837       18.677        0.344      336.439        7.742      858.519
05/07/2013  06:47:00      -22.790      -25.507        3.004       30.424       25.387       16.729      925.624      644.502      279.860        0.151        0.092       34.205       14.339        0.176      336.535        7.903      858.527
05/07/2013  06:48:00      -38.698       16.199        5.285       39.102       25.360       18.246     1528.930      643.118      332.929        0.215        0.125       41.952       20.597        0.241      336.493        7.832      858.534
05/07/2013  06:49:00       17.099       43.210        6.106       20.597       25.369       29.486      424.239      643.600      869.396        0.207        0.097       46.470       21.586        0.216      336.459        7.775      858.545
05/07/2013  06:50:00       -0.814       81.567       24.045       33.325       30.903       24.250     1110.586      954.967      588.078        0.494        0.133       81.571       17.871        0.048      336.425        7.719      858.548
05/07/2013  06:51:00       -3.943       10.442       20.194       30.027       25.269       18.044      901.592      638.531      325.595        0.120        0.093       11.162       13.777        1.524      336.511        7.863      858.553
05/07/2013  06:52:00      -19.106       30.365        7.031       14.180       19.062       26.094      201.077      363.362      680.876        0.129        0.062       35.875       14.245        0.158      336.425        7.718      858.575
05/07/2013  06:53:00      -25.466       16.231       -0.188       13.873       14.280        8.887      192.458      203.932       78.973        0.069        0.024       30.199        5.119        0.029      336.407        7.686      858.578
05/07/2013  06:54:00      -11.211        4.785       14.382       13.339       16.950       17.996      177.919      287.289      323.867        0.057        0.039       12.190       14.424        1.400      336.500        7.845      858.573
05/07/2013  06:55:00      -11.825        5.770       20.928       10.319       28.700       14.200      106.480      823.697      201.640        0.087        0.057       13.157       16.120        1.501      336.559        7.942      858.590
05/07/2013  06:56:00      -10.911      -20.006        6.424       19.606       23.952       17.302      384.408      573.705      299.361        0.091        0.063       22.788       14.192        0.388      336.540        7.911      858.614
05/07/2013  06:57:00      -13.315      -15.953       10.756       18.395       24.687       12.749      338.392      609.451      162.541        0.083        0.056       20.780        7.132        0.118      336.599        8.010      858.625
05/07/2013  06:58:00      -34.116      -35.153        4.557       19.045       16.482       12.927      362.698      271.666      167.096        0.161        0.040       48.986        8.862        0.033      336.580        7.978      858.628
05/07/2013  06:59:00      -47.937      -43.952       10.769       21.407       32.526       19.031      458.254     1057.931      362.162        0.311        0.094       65.036       17.284        0.071      336.553        7.934      858.630
05/07/2013  07:00:00      -44.329        5.334        7.165       12.172       16.204       17.721      148.158      262.560      314.021        0.138        0.036       44.649       12.615        0.080      336.440        7.742      858.638
05/07/2013  07:01:00      -25.738        3.323       26.335       22.222       22.153       10.759      493.834      490.741      115.765        0.123        0.055       25.952        4.377        0.028      336.462        7.781      858.644
05/07/2013  07:02:00       17.776       45.522       41.547       21.607       29.052       16.458      466.872      844.007      270.869        0.285        0.079       48.870       13.110        0.072      336.524        7.883      858.637
05/07/2013  07:03:00       55.735       63.511       27.558       28.473       22.373       22.285      810.706      500.561      496.610        0.485        0.090       84.499       15.107        0.032      336.553        7.932      858.634
05/07/2013  07:04:00       48.852       42.769       27.721       28.839       21.643       20.553      831.676      468.427      422.434        0.335        0.086       64.929       15.178        0.055      336.505        7.851      858.641
05/07/2013  07:05:00       63.998       42.197        5.182       31.359       20.979       22.175      983.360      440.110      491.727        0.391        0.096       76.657       20.850        0.074      336.413        7.697      858.656
05/07/2013  07:06:00       29.534       38.104        0.159       32.012       25.752       17.421     1024.775      663.163      303.505        0.216        0.100       48.210       11.758        0.059      336.408        7.689      858.677
05/07/2013  07:07:00       56.195       45.138        3.914       27.945       21.362       15.816      780.922      456.316      250.140        0.335        0.074       72.079       11.096        0.024      336.382        7.647      858.695
05/07/2013  07:08:00       87.928       63.307        3.446       34.223       21.864       23.973     1171.185      478.031      574.699        0.699        0.111      108.347       16.515        0.023      336.384        7.650      858.696
05/07/2013  07:09:00       96.273       60.692       -6.258       32.514       26.280       22.400     1057.172      690.645      501.767        0.762        0.112      113.807       21.231        0.035      336.410        7.693      858.694
05/07/2013  07:10:00       83.352       53.739       -4.617       23.438       19.059       21.079      549.342      363.246      444.330        0.561        0.068       99.174        9.661        0.009      336.388        7.656      858.696
05/07/2013  07:11:00       66.190       47.513       10.513       30.406       16.461       21.374      924.516      270.956      456.867        0.420        0.083       81.478        8.648        0.011      336.387        7.654      858.700
05/07/2013  07:12:00       61.593       53.955        8.028       27.227       17.613       24.404      741.331      310.217      595.564        0.421        0.082       81.883       10.670        0.017      336.414        7.697      858.708
05/07/2013  07:13:00       62.407       49.633        9.890       25.271       13.189       16.635      638.616      173.951      276.738        0.377        0.054       79.737       12.412        0.024      336.444        7.751      858.717
05/07/2013  07:14:00       52.830       44.430       27.277        9.530       14.763       14.612       90.816      217.934      213.507        0.302        0.026       69.029       13.600        0.039      336.432        7.731      858.727
05/07/2013  07:15:00       34.099       21.997       21.010       26.374       22.457       19.321      695.608      504.299      373.320        0.183        0.079       40.579       15.701        0.150      336.520        7.877      858.735
05/07/2013  07:16:00       23.211      -14.249       22.209       16.604       18.251       14.608      275.694      333.093      213.383        0.103        0.041       27.235        8.746        0.103      336.585        7.988      858.744
05/07/2013  07:17:00       48.128       19.744       21.649       16.712       14.157       17.635      279.279      200.420      311.010        0.198        0.040       52.020       12.212        0.055      336.514        7.868      858.733
05/07/2013  07:18:00       56.361       42.907       12.169       15.508       11.617       14.896      240.501      134.948      221.887        0.288        0.030       70.835       11.153        0.025      336.424        7.716      858.724
05/07/2013  07:19:00       -1.348       57.685       -3.664        9.352       16.824       12.968       87.452      283.048      168.165        0.194        0.027       57.701        9.302        0.026      336.404        7.680      858.736
05/07/2013  07:20:00        9.551       69.568        2.553       13.599       15.722       15.422      184.930      247.191      237.841        0.280        0.033       70.221       11.221        0.026      336.444        7.748      858.744
05/07/2013  07:21:00       22.714       47.610       -2.382       15.203       20.625       14.732      231.125      425.386      217.022        0.183        0.044       52.751       12.720        0.058      336.452        7.763      858.758
05/07/2013  07:22:00      -32.861       31.731        0.557       37.902       35.816       10.970     1436.593     1282.805      120.342        0.246        0.142       45.680       13.808        0.091      336.508        7.857      858.782
05/07/2013  07:23:00      -52.451       -1.042       -1.521       23.266       30.079       13.742      541.307      904.766      188.838        0.219        0.082       52.461       14.578        0.077      336.589        7.992      858.817
05/07/2013  07:24:00      -71.626        4.258       -5.956       30.582       16.487       12.727      935.232      271.813      161.979        0.328        0.068       71.752        7.735        0.012      336.545        7.920      858.828
05/07/2013  07:25:00      -65.804      -32.574       -1.075       24.077       22.449       15.877      579.725      503.958      252.085        0.336        0.067       73.425        9.088        0.015      336.479        7.808      858.836
05/07/2013  07:26:00      -20.772      -11.522        6.213       27.981       12.558       15.075      782.945      157.705      227.243        0.089        0.058       23.753       18.742        0.623      336.513        7.865      858.842
05/07/2013  07:27:00       18.654       12.412       12.690       18.749       14.671       15.681      351.531      215.227      245.901        0.074        0.041       22.406       11.711        0.273      336.575        7.970      858.846
05/07/2013  07:28:00      131.088       51.340        8.940       36.235       26.674       22.451     1312.963      711.517      504.034        1.121        0.126      140.783        6.320        0.002      336.573        7.966      858.850
05/07/2013  07:29:00       88.302       58.233        8.058       38.649       24.230       22.412     1493.744      587.073      502.290        0.692        0.129      105.775       22.568        0.046      336.512        7.864      858.863
05/07/2013  07:30:00       18.036       15.941        6.503       25.759       16.095       19.268      663.531      259.055      371.258        0.096        0.065       24.071       15.471        0.413      336.536        7.903      858.905
05/07/2013  07:31:00      -50.217      -11.332       -8.089       29.199       30.749       13.453      852.598      945.516      180.980        0.235        0.099       51.480       11.344        0.049      336.555        7.938      858.935
05/07/2013  07:32:00     -116.286      -31.185        1.695       43.680       36.256       23.524     1907.926     1314.516      553.377        0.914        0.189      120.395       20.003        0.028      336.584        7.984      858.946
05/07/2013  07:33:00     -159.141        8.514      -11.454       52.983       32.068       28.642     2807.155     1028.371      820.359        1.509        0.233      159.369       25.147        0.025      336.487        7.821      858.942
05/07/2013  07:34:00      -59.631      -25.103       -2.597       78.198       30.589       23.643     6114.872      935.679      558.997        0.590        0.380       64.699       26.705        0.170      336.482        7.814      858.957
05/07/2013  07:35:00      -52.282      -74.088       -2.152       40.195       31.164       26.608     1615.657      971.179      708.008        0.576        0.165       90.678       28.412        0.098      336.508        7.857      858.958
05/07/2013  07:36:00      -39.383      -48.633       -1.195       28.242       36.280       13.786      797.614     1316.231      190.057        0.311        0.115       62.580        9.169        0.021      336.526        7.887      858.959
05/07/2013  07:37:00      -84.481      -71.602       -9.161       26.373       19.266       13.353      695.515      371.179      178.309        0.680        0.062      110.743       10.897        0.010      336.503        7.847      858.963
05/07/2013  07:38:00      -86.733      -21.099       -3.977       20.602       19.712       13.835      424.444      388.574      191.407        0.449        0.050       89.262        9.677        0.012      336.556        7.939      858.966
05/07/2013  07:39:00      -47.800      -37.068        9.775       36.377       19.638       17.281     1323.295      385.644      298.630        0.288        0.100       60.489       16.297        0.073      336.634        8.067      858.962
05/07/2013  07:40:00      -53.195       21.827       -2.320       45.284       40.054       17.687     2050.644     1604.317      312.846        0.364        0.198       57.499       27.286        0.225      336.559        7.945      858.966
05/07/2013  07:41:00       -5.792       47.695      -19.064       30.967       17.788       14.359      958.949      316.415      206.183        0.208        0.074       48.046       10.084        0.044      336.494        7.832      858.966
05/07/2013  07:42:00      102.845      108.539       49.452       61.344       44.448       41.524     3763.095     1975.601     1724.231        1.613        0.373      149.525       21.092        0.020      336.563        7.950      858.924
05/07/2013  07:43:00       94.414      101.817       63.723       51.539       39.198       35.819     2656.259     1536.497     1283.018        1.441        0.274      138.855       24.690        0.032      336.549        7.927      858.882
05/07/2013  07:44:00       -1.043       -7.933       18.471       30.427       73.765       38.202      925.778     5441.233     1459.387        0.411        0.391        8.001       48.605       36.903      336.645        8.087      858.888
05/07/2013  07:45:00      -15.771       -2.479        2.517       41.868       33.206       21.152     1752.904     1102.622      447.396        0.178        0.165       15.965       23.610        2.187      336.724        8.218      858.909
05/07/2013  07:46:00       33.586       33.440       34.745       64.467       27.666       35.678     4155.970      765.423     1272.932        0.482        0.310       47.394       37.864        0.638      336.667        8.122      858.869
05/07/2013  07:47:00     -135.441      -41.480       -7.933       42.450       38.128       24.057     1802.039     1453.748      578.732        1.198        0.192      141.650       17.283        0.015      336.703        8.185      858.875
05/07/2013  07:48:00     -114.990      -73.791        2.929       59.937       52.113       29.459     3592.471     2715.742      867.817        1.292        0.359      136.630       31.529        0.053      336.675        8.136      858.897
05/07/2013  07:49:00      -50.804        6.634        9.573       68.718       51.444       31.763     4722.118     2646.458     1008.891        0.555        0.419       51.236       39.427        0.592      336.731        8.232      858.896
05/07/2013  07:50:00      -97.620       20.312      -11.925       33.763       54.974       25.062     1139.935     3022.132      628.103        0.744        0.240       99.711       19.990        0.040      336.651        8.100      858.887
05/07/2013  07:51:00     -176.843       22.734      -15.343       88.359       63.550       34.968     7807.268     4038.605     1222.762        2.255        0.653      178.298       34.550        0.038      336.655        8.102      858.901
05/07/2013  07:52:00     -134.773       15.717       -9.113       61.204       56.695       34.742     3745.974     3214.379     1206.990        1.333        0.408      135.687       28.176        0.043      336.627        8.056      858.913
05/07/2013  07:53:00     -180.010       -3.466      -12.013       87.437       61.862       33.475     7645.286     3826.891     1120.546        2.257        0.630      180.043       36.410        0.041      336.613        8.031      858.930
05/07/2013  07:54:00     -282.967       -5.847      -25.040       68.804       77.867       40.977     4733.936     6063.276     1679.079        4.660        0.624      283.027       35.919        0.016      336.595        8.001      858.954
05/07/2013  07:55:00     -232.271     -102.757       -5.048      111.507       93.351       42.998    12433.827     8714.323     1848.869        4.376        1.150      253.986       46.450        0.033      336.637        8.072      858.981
05/07/2013  07:56:00     -190.205      -32.164      -13.207       46.022       44.180       30.566     2118.035     1951.841      934.309        2.119        0.250      192.905       16.624        0.007      336.637        8.072      858.992
05/07/2013  07:57:00     -110.733      -32.253       -8.033       72.819       54.290       40.023     5302.617     2947.423     1601.859        1.161        0.493      115.335       41.983        0.133      336.673        8.133      859.020
05/07/2013  07:58:00     -178.145      -52.059        1.764       90.535       66.398       42.121     8196.516     4408.705     1774.207        2.441        0.719      185.596       47.280        0.065      336.611        8.027      859.030
05/07/2013  07:59:00     -119.807      -25.833        2.308       54.666       37.284       29.716     2988.341     1390.120      883.052        1.014        0.263      122.561       27.083        0.049      336.578        7.975      859.035
05/07/2013  08:00:00     -218.853       -1.525      -20.641      114.000       44.709       39.276    12995.958     1998.888     1542.594        3.243        0.827      218.859       49.115        0.050      336.650        8.093      859.045
05/07/2013  08:01:00     -222.877      -30.641      -18.987       74.579       74.829       40.195     5561.966     5599.374     1615.622        3.187        0.639      224.974       23.988        0.011      336.633        8.064      859.041
05/07/2013  08:02:00      -96.401       34.495       -7.127       60.059       42.892       30.836     3607.069     1839.751      950.844        0.846        0.320      102.387       32.619        0.101      336.681        8.148      859.043
05/07/2013  08:03:00     -124.094       35.506       -3.984       62.808       58.630       28.588     3944.785     3437.532      817.271        1.244        0.410      129.073       30.739        0.057      336.716        8.206      859.036
05/07/2013  08:04:00      -63.810       33.889       -9.907       41.531       59.673       24.437     1724.790     3560.900      597.163        0.560        0.294       72.251       25.510        0.125      336.771        8.296      859.040
05/07/2013  08:05:00      -92.366      -27.198        5.883       71.123       67.238       33.577     5058.472     4520.908     1127.429        1.000        0.535       96.287       36.687        0.145      336.784        8.319      859.040
05/07/2013  08:06:00     -137.477      -26.840       -8.325       30.381       38.782       21.686      923.032     1504.073      470.286        1.129        0.145      140.073       19.696        0.020      336.678        8.143      859.046
05/07/2013  08:07:00     -145.153       -3.274      -18.445       51.252       43.209       27.226     2626.757     1867.044      741.232        1.333        0.262      145.190       30.794        0.045      336.678        8.141      859.046
05/07/2013  08:08:00     -147.878      -50.154       -8.045       44.036       58.271       28.748     1939.173     3395.472      826.444        1.530        0.308      156.151       15.328        0.010      336.703        8.184      859.049
05/07/2013  08:09:00      -54.700      -17.066      -12.549       50.877       24.369       22.866     2588.474      593.853      522.874        0.357        0.185       57.300       19.562        0.117      336.754        8.267      859.048
05/07/2013  08:10:00      -48.416      -18.206       -9.749       52.703       39.222       21.523     2777.600     1538.364      463.228        0.377        0.239       51.726       15.788        0.093      336.725        8.220      859.048
05/07/2013  08:11:00     -150.122      -65.095       -2.937      127.049       96.667       39.453    16141.422     9344.588     1556.564        2.691        1.352      163.627       44.256        0.073      336.737        8.238      859.054
05/07/2013  08:12:00     -138.486     -105.425        9.615      132.311       84.089       50.147    17506.170     7070.940     2514.695        2.873        1.355      174.049       62.928        0.131      336.785        8.317      859.055
05/07/2013  08:13:00      -73.606      -12.016       11.436       91.450       43.265       37.792     8363.025     1871.871     1428.265        0.868        0.583       74.580       50.222        0.453      336.760        8.278      859.087
05/07/2013  08:14:00     -133.605        9.380       -9.636       52.747       53.761       30.028     2782.195     2890.200      901.660        1.230        0.329      133.934       28.978        0.047      336.678        8.144      859.103
05/07/2013  08:15:00     -117.003       92.334      -25.153       45.716       58.431       25.658     2089.950     3414.135      658.334        1.450        0.308      149.047       21.416        0.021      336.694        8.170      859.119
05/07/2013  08:16:00     -102.596       74.866      -11.343       81.916       50.034       33.855     6710.250     2503.380     1146.153        1.331        0.518      127.007       31.398        0.061      336.755        8.269      859.119
05/07/2013  08:17:00      -64.969       92.009       -9.165       41.348       40.247       26.882     1709.698     1619.816      722.619        0.841        0.203      112.635       22.302        0.039      336.798        8.342      859.128
05/07/2013  08:18:00      -95.311       13.375      -21.058       42.220       62.942       21.209     1782.568     3961.744      449.836        0.795        0.310       96.245       14.932        0.024      336.764        8.286      859.129
05/07/2013  08:19:00     -110.244      -83.746       -0.747       86.485       49.012       35.544     7479.698     2402.147     1263.379        1.515        0.557      138.445       40.370        0.085      336.796        8.337      859.136
05/07/2013  08:20:00     -161.740      -15.296       -7.707       62.800       47.905       22.249     3943.887     2294.904      495.025        1.659        0.337      162.462       17.740        0.012      336.654        8.102      859.136
05/07/2013  08:21:00     -202.517       15.925      -22.722       57.860       55.502       43.246     3347.811     3080.446     1870.224        2.504        0.415      203.142       38.524        0.036      336.615        8.036      859.139
05/07/2013  08:22:00     -145.836      -10.147      -12.433       67.605       55.363       34.176     4570.457     3065.027     1167.994        1.516        0.440      146.188       30.153        0.043      336.650        8.095      859.145
05/07/2013  08:23:00     -181.146      -21.482       -5.507       76.302       56.768       37.377     5822.026     3222.642     1397.062        2.187        0.522      182.415       36.283        0.040      336.693        8.166      859.151
05/07/2013  08:24:00     -175.639      -71.822       -7.326       55.533       57.189       29.750     3083.884     3270.550      885.055        2.165        0.362      189.756       30.710        0.026      336.686        8.153      859.155
05/07/2013  08:25:00     -155.688      -73.368       -7.636       63.921       48.071       32.842     4085.892     2310.855     1078.606        1.858        0.374      172.109       25.798        0.022      336.704        8.183      859.166
05/07/2013  08:26:00     -178.919      -49.900      -19.142      102.593       50.009       35.662    10525.399     2500.887     1271.787        2.458        0.715      185.747       43.037        0.054      336.726        8.219      859.174
05/07/2013  08:27:00     -118.176      -29.202        8.761       67.072       44.288       33.721     4498.680     1961.468     1137.102        1.124        0.380      121.731       32.063        0.069      336.785        8.320      859.175
05/07/2013  08:28:00     -135.609      -34.816       -7.208       69.936       44.643       33.908     4890.989     1992.981     1149.738        1.384        0.402      140.007       36.523        0.068      336.779        8.309      859.185
05/07/2013  08:29:00     -150.151      -94.367        2.463      110.264       66.456       49.772    12158.232     4416.461     2477.245        2.525        0.953      177.342       54.994        0.096      336.842        8.412      859.189
05/07/2013  08:30:00     -172.884     -110.321      -18.447      105.451       82.687       51.457    11120.006     6837.203     2647.821        3.150        1.030      205.084       40.084        0.038      336.782        8.312      859.189
05/07/2013  08:31:00     -201.888      -47.577      -10.857       81.108       64.144       38.599     6578.496     4114.482     1489.900        2.766        0.609      207.418       38.626        0.035      336.766        8.285      859.206
05/07/2013  08:32:00     -225.750      -25.705      -20.346       56.980       40.197       25.229     3246.735     1615.780      636.519        2.877        0.275      227.209       25.415        0.013      336.753        8.262      859.229
05/07/2013  08:33:00     -168.774      -51.566      -16.362       33.668       38.768       21.109     1133.567     1502.976      445.595        1.725        0.154      176.476       19.987        0.013      336.750        8.262      859.246
05/07/2013  08:34:00     -132.542      -78.209       -3.737       62.369       43.134       33.147     3889.842     1860.581     1098.714        1.527        0.342      153.896       32.903        0.046      336.803        8.349      859.256
05/07/2013  08:35:00     -197.227      -47.323       -6.793       62.232       57.346       30.516     3872.872     3288.597      931.198        2.464        0.405      202.825       25.871        0.016      336.808        8.357      859.275
05/07/2013  08:36:00      -96.134      -57.985        4.911       73.220       64.403       35.348     5361.119     4147.720     1249.498        1.169        0.538      112.268       36.292        0.104      336.885        8.486      859.274
05/07/2013  08:37:00     -146.193      -30.716        5.144      102.184       67.255       41.296    10441.656     4523.249     1705.345        1.950        0.834      149.384       40.395        0.073      336.985        8.650      859.275
05/07/2013  08:38:00     -209.527      -38.552      -11.401       70.499       53.128       34.746     4970.065     2822.604     1207.253        2.726        0.450      213.044       17.280        0.007      336.941        8.577      859.290
05/07/2013  08:39:00     -226.364      -17.753      -18.342       64.099       62.261       27.940     4108.735     3876.417      780.619        3.033        0.438      227.059       26.623        0.014      336.957        8.602      859.295
05/07/2013  08:40:00     -183.463      -74.894       -0.781       62.977       57.148       35.636     3966.049     3265.915     1269.903        2.388        0.425      198.161       37.856        0.036      337.011        8.696      859.298
05/07/2013  08:41:00     -170.512      -31.800      -15.747       58.336       45.571       32.225     3403.039     2076.757     1038.474        1.842        0.326      173.452       26.929        0.024      337.006        8.688      859.294
05/07/2013  08:42:00     -176.165      -37.148      -11.264       88.232       62.412       43.413     7784.884     3895.306     1884.695        2.305        0.678      180.039       48.476        0.072      337.035        8.734      859.305
05/07/2013  08:43:00     -141.993      -47.406       -7.979       49.669       53.349       30.629     2466.979     2846.168      938.133        1.436        0.313      149.697       24.386        0.027      337.012        8.697      859.316
05/07/2013  08:44:00     -192.791      -23.291      -20.733       69.064       76.804       32.741     4769.866     5898.788     1071.993        2.494        0.587      194.193       25.460        0.017      337.012        8.697      859.320
05/07/2013  08:45:00     -219.906        6.116       -4.026      112.580       75.506       45.086    12674.215     5701.085     2032.722        3.441        1.020      219.991       50.969        0.054      337.045        8.752      859.314
05/07/2013  08:46:00     -113.741        1.348        8.918      112.672       78.098       50.462    12695.052     6099.220     2546.448        1.718        1.067      113.749       53.757        0.223      337.126        8.888      859.312
05/07/2013  08:47:00     -118.153      -58.137       -5.602       97.167       67.764       50.155     9441.460     4592.020     2515.476        1.696        0.827      131.681       52.530        0.159      337.146        8.922      859.317
05/07/2013  08:48:00     -182.235      -47.027       -5.750       77.435      105.957       43.774     5996.136    11226.897     1916.172        2.729        0.957      188.205       43.046        0.052      337.032        8.728      859.330
05/07/2013  08:49:00     -115.588      -46.867       -2.628       89.218       55.061       37.563     7959.906     3031.747     1410.992        1.398        0.620      124.728       38.527        0.095      337.127        8.892      859.329
05/07/2013  08:50:00     -228.058      -56.230      -10.019      110.937       52.340       40.056    12306.954     2739.457     1604.493        3.596        0.833      234.887       48.539        0.043      337.040        8.744      859.340
05/07/2013  08:51:00     -208.203        0.006      -14.049      102.223       71.331       44.244    10449.611     5088.067     1957.569        3.052        0.875      208.203       42.396        0.041      337.026        8.720      859.339
05/07/2013  08:52:00     -138.888      -85.328       -1.820      114.321       65.315       40.635    13069.398     4266.079     1651.186        2.278        0.949      163.006       50.561        0.096      337.082        8.815      859.338
05/07/2013  08:53:00     -186.538       13.168       -8.687       86.157       65.480       39.192     7423.035     4287.688     1536.034        2.414        0.662      187.002       28.155        0.023      337.061        8.777      859.334
05/07/2013  08:54:00     -259.936      -58.670      -14.360      102.350       71.060       48.113    10475.430     5049.559     2314.878        4.452        0.892      266.475       55.016        0.043      337.011        8.693      859.341
05/07/2013  08:55:00     -193.135      -26.157        1.192      106.280       68.640       45.629    11295.399     4711.431     2082.002        2.803        0.904      194.898       47.020        0.058      337.104        8.850      859.338
05/07/2013  08:56:00     -256.245      -94.647      -21.337       74.061       73.239       36.367     5485.024     5364.005     1322.545        4.362        0.609      273.166       32.110        0.014      337.005        8.682      859.336
05/07/2013  08:57:00     -202.086      -33.340      -17.574       74.295       43.940       28.166     5519.767     1930.703      793.310        2.525        0.412      204.817       25.574        0.016      337.046        8.753      859.328
05/07/2013  08:58:00     -143.771      -27.102      -17.527       47.840       41.339       23.599     2288.683     1708.944      556.932        1.313        0.228      146.303       13.806        0.009      337.160        8.947      859.333
05/07/2013  08:59:00      -76.474      -55.790       -8.280       64.691       38.475       28.799     4184.920     1480.336      829.380        0.776        0.325       94.662       32.909        0.121      337.236        9.073      859.327
05/07/2013  09:00:00      -42.267      -74.409       12.519       84.152       60.745       48.042     7081.565     3689.923     2308.063        1.028        0.654       85.576       59.636        0.486      337.240        9.081      859.342
05/07/2013  09:01:00     -137.558      -83.635       -1.488      101.486       49.841       45.024    10299.329     2484.115     2027.152        2.036        0.741      160.988       43.020        0.071      337.201        9.012      859.338
05/07/2013  09:02:00     -183.615      -51.976      -11.567       50.841       52.568       28.827     2584.769     2763.380      830.993        2.136        0.309      190.829       23.655        0.015      337.109        8.860      859.355
05/07/2013  09:03:00     -173.865        1.805      -12.797       78.224       47.534       33.006     6119.011     2259.436     1089.366        1.993        0.473      173.875       38.074        0.048      337.135        8.903      859.359
05/07/2013  09:04:00      -73.221      -13.202        9.263       90.863       51.591       44.779     8256.021     2661.654     2005.136        0.927        0.646       74.401       49.818        0.448      337.353        9.270      859.345
05/07/2013  09:05:00      -36.989       -6.854       21.849       72.091       47.462       47.017     5197.109     2252.633     2210.626        0.577        0.483       37.619       41.683        1.228      337.477        9.477      859.340
05/07/2013  09:06:00     -203.603      -71.919       -5.792       66.358       64.801       39.823     4403.425     4199.225     1585.878        2.842        0.509      215.932       31.819        0.022      337.229        9.059      859.339
05/07/2013  09:07:00     -145.434      -38.601       -6.496      102.964       62.427       41.186    10601.637     3897.150     1696.294        1.944        0.810      150.470       41.566        0.076      337.320        9.214      859.342
05/07/2013  09:08:00     -134.795      -65.235        6.128      118.735       64.413       51.058    14098.034     4149.071     2606.956        2.165        1.043      149.751       53.178        0.126      337.226        9.055      859.333
05/07/2013  09:09:00     -152.303      -52.014       -0.995      134.650       54.668       49.953    18130.533     2988.596     2495.254        2.475        1.181      160.940       62.328        0.150      337.285        9.154      859.334
05/07/2013  09:10:00     -240.939        6.738      -20.147       90.408       90.753       39.369     8173.581     8236.074     1549.931        3.823        0.898      241.033       32.495        0.018      337.251        9.098      859.334
05/07/2013  09:11:00     -164.781      -28.671      -14.205       69.766       53.462       35.399     4867.324     2858.239     1253.117        1.858        0.449      167.257       38.212        0.052      337.346        9.257      859.337
05/07/2013  09:12:00     -269.840      -50.829       -5.041      112.727       80.323       44.093    12707.368     6451.783     1944.174        4.826        1.055      274.586       48.562        0.031      337.313        9.200      859.336
05/07/2013  09:13:00     -230.905      -62.799      -10.517       75.487       53.744       36.117     5698.315     2888.461     1304.405        3.363        0.495      239.292       39.119        0.027      337.254        9.100      859.336
05/07/2013  09:14:00     -129.656      -45.696      -11.589       76.290       51.455       35.521     5820.151     2647.612     1261.726        1.438        0.486      137.473       40.763        0.088      337.346        9.257      859.336
05/07/2013  09:15:00     -210.782      -28.637       -4.941       77.814       65.720       40.849     6055.052     4319.109     1668.627        2.866        0.602      212.718       42.259        0.039      337.377        9.307      859.325
05/07/2013  09:16:00     -230.934      -71.602      -10.576       69.777       57.067       33.120     4868.889     3256.592     1096.920        3.389        0.461      241.780       23.635        0.010      337.281        9.146      859.323
05/07/2013  09:17:00     -240.885      -69.290       -3.826      105.758       80.542       47.547    11184.796     6486.960     2260.715        4.138        0.997      250.652       50.062        0.040      337.366        9.289      859.323
05/07/2013  09:18:00     -248.075      -97.177      -11.858      111.286       80.194       47.643    12384.599     6431.145     2269.856        4.610        1.054      266.429       45.561        0.029      337.368        9.291      859.329
05/07/2013  09:19:00     -187.978      -32.233      -11.731       79.914       38.468       28.949     6386.315     1479.780      838.070        2.261        0.435      190.722       27.704        0.021      337.531        9.566      859.340
05/07/2013  09:20:00     -170.055      -38.641       -2.482       78.068       78.591       36.977     6094.679     6176.556     1367.328        2.203        0.682      174.390       32.668        0.035      337.591        9.666      859.343
05/07/2013  09:21:00     -125.105       27.650       -6.282      115.983       94.025       50.206    13452.035     8840.781     2520.693        2.063        1.241      128.124       58.164        0.206      337.760        9.952      859.337
05/07/2013  09:22:00     -151.914       53.287       -1.194       79.758       62.659       46.229     6361.303     3926.134     2137.154        1.917        0.621      160.988       38.821        0.058      337.649        9.764      859.348
05/07/2013  09:23:00     -198.966      -27.696       -9.707       84.677       90.172       30.299     7170.140     8131.078      918.045        2.833        0.811      200.884       21.314        0.011      337.688        9.828      859.340
05/07/2013  09:24:00     -219.137      -98.182       -2.747      121.817       69.528       49.194    14839.392     4834.116     2420.043        3.988        1.105      240.127       50.947        0.045      337.570        9.631      859.330
05/07/2013  09:25:00     -215.571      -63.625      -11.590       61.888       72.661       35.221     3830.067     5279.633     1240.532        3.050        0.518      224.764       30.697        0.019      337.462        9.449      859.336
05/07/2013  09:26:00     -260.976       27.054      -30.066       39.881       54.344       26.706     1590.519     2953.230      713.224        3.750        0.263      262.374       11.788        0.002      337.386        9.320      859.322
05/07/2013  09:27:00     -130.005        2.246        5.955       88.242       44.714       29.524     7786.686     1999.323      871.649        1.380        0.533      130.025       39.507        0.092      337.773        9.973      859.311
05/07/2013  09:28:00     -122.799      -11.634       -5.182       63.810       47.774       34.694     4071.760     2282.308     1203.704        1.140        0.378      123.349       33.029        0.072      337.790       10.001      859.318
05/07/2013  09:29:00     -239.215     -176.039      -13.781       80.421      116.865       50.508     6467.495    13657.475     2551.104        5.554        1.134      297.008       50.868        0.029      337.621        9.715      859.326
05/07/2013  09:30:00     -243.825      -54.930      -17.047       66.047       70.986       35.201     4362.178     5038.994     1239.109        3.670        0.532      249.936       34.689        0.019      337.506        9.522      859.347
05/07/2013  09:31:00     -156.312      -15.187       -1.019      117.023       86.197       47.642    13694.284     7429.960     2269.720        2.403        1.170      157.048       50.653        0.104      337.796       10.010      859.348
05/07/2013  09:32:00     -122.262      -75.609        0.908       82.112       58.222       35.920     6742.377     3389.765     1290.233        1.604        0.571      143.753       39.314        0.075      337.627        9.728      859.349
05/07/2013  09:33:00     -315.617     -109.204       -6.148      120.607       72.096       53.170    14545.982     5197.849     2827.076        6.707        1.129      333.976       59.922        0.032      337.501        9.515      859.334
05/07/2013  09:34:00     -169.319      -56.436        1.185      102.051       80.532       45.988    10414.407     6485.372     2114.853        2.543        0.951      178.476       53.736        0.091      337.605        9.689      859.338
05/07/2013  09:35:00     -163.725      -45.777       -8.992       67.196       58.529       27.043     4515.352     3425.679      731.328        1.883        0.434      170.004       27.176        0.026      337.616        9.709      859.330
05/07/2013  09:36:00     -145.522      -56.690       -0.579       55.767       47.383       32.814     3109.931     2245.159     1076.752        1.541        0.322      156.174       29.616        0.036      337.769        9.967      859.322
05/07/2013  09:37:00      -94.571      -44.213       -1.343       58.854       46.127       31.510     3463.810     2127.699      992.890        0.874        0.329      104.395       22.792        0.048      337.914       10.209      859.319
05/07/2013  09:38:00      -64.446      -48.633       13.537       89.058       62.060       46.613     7931.340     3851.428     2172.753        1.033        0.698       80.737       45.755        0.321      338.091       10.506      859.304
05/07/2013  09:39:00     -155.117      -25.824       10.174      120.642       53.779       47.328    14554.410     2892.225     2239.965        2.226        0.984      157.252       58.862        0.140      337.910       10.202      859.294
05/07/2013  09:40:00     -251.842      -35.911      -16.308       81.844       60.809       42.697     6698.388     3697.753     1823.059        3.860        0.611      254.389       29.298        0.013      337.576        9.640      859.277
05/07/2013  09:41:00     -227.185       -9.225      -15.118       48.286       41.079       31.970     2331.553     1687.491     1022.091        2.848        0.252      227.372       16.190        0.005      337.786        9.993      859.252
05/07/2013  09:42:00     -214.312       16.896      -21.840       75.326       59.695       29.967     5674.010     3563.513      898.008        2.841        0.507      214.977       27.685        0.017      337.591        9.665      859.239
05/07/2013  09:43:00     -230.869       70.632      -40.142      115.899       81.967       51.909    13432.496     6718.561     2694.496        4.137        1.142      241.432       54.687        0.051      337.762        9.952      859.212
05/07/2013  09:44:00     -119.171       -7.931        9.715       67.701       53.691       38.466     4583.452     2882.739     1479.598        1.165        0.447      119.435       33.825        0.080      338.024       10.395      859.200
05/07/2013  09:45:00      -89.387       28.324        0.598       57.311       30.930       27.504     3284.528      956.660      756.466        0.689        0.250       93.767       23.256        0.062      338.070       10.472      859.196
05/07/2013  09:46:00      -78.186      -27.633       -0.217       52.694       41.394       26.265     2776.682     1713.481      689.853        0.603        0.259       82.926       24.270        0.086      338.145       10.597      859.195
05/07/2013  09:47:00      -30.358      -35.008       22.665       79.758       53.672       40.337     6361.393     2880.733     1627.049        0.676        0.543       46.338       34.924        0.568      338.278       10.819      859.199
05/07/2013  09:48:00      -35.509      -28.688        1.106      100.435       70.950       48.777    10087.132     5033.920     2379.179        0.979        0.875       45.649       39.813        0.761      338.224       10.730      859.197
05/07/2013  09:49:00      -98.667       37.946        0.021       90.177       63.267       47.689     8131.868     4002.666     2274.247        1.279        0.720      105.712       45.065        0.182      338.195       10.681      859.203
05/07/2013  09:50:00     -255.596       32.607      -28.342       64.865       50.238       34.772     4207.473     2523.868     1209.103        3.757        0.397      257.668       33.898        0.017      337.937       10.243      859.197
05/07/2013  09:51:00     -159.283      -26.540      -12.284       63.784       78.686       29.932     4068.461     6191.483      895.932        1.869        0.558      161.479       19.377        0.014      338.015       10.378      859.194
05/07/2013  09:52:00      -74.899      -38.631       14.146      106.722       79.504       57.331    11389.558     6320.853     3286.797        1.415        1.050       84.275       60.620        0.517      338.086       10.498      859.185
05/07/2013  09:53:00     -110.531      -60.077       -2.143       92.511       66.652       49.893     8558.278     4442.470     2489.332        1.566        0.775      125.803       46.100        0.134      338.002       10.356      859.196
05/07/2013  09:54:00     -157.799     -107.317       -0.774      126.270       78.733       49.589    15944.172     6198.819     2459.068        3.051        1.230      190.834       61.466        0.104      337.885       10.159      859.211
05/07/2013  09:55:00     -126.384     -109.986      -11.673       86.367       99.377       41.539     7459.279     9875.828     1725.518        2.363        0.953      167.541       41.002        0.060      337.804       10.023      859.217
05/07/2013  09:56:00     -188.173      -49.940       -1.223      106.362       78.192       46.040    11312.913     6114.055     2119.706        2.872        0.977      194.687       56.742        0.085      337.927       10.230      859.219
05/07/2013  09:57:00      -72.948      -85.824        0.713       60.468       63.331       34.850     3656.370     4010.829     1214.518        1.078        0.444      112.637       30.950        0.076      337.821       10.055      859.233
05/07/2013  09:58:00     -135.843     -105.774        0.024       89.531       75.389       48.163     8015.770     5683.563     2319.694        2.283        0.801      172.167       51.021        0.088      337.781        9.985      859.229
05/07/2013  09:59:00     -207.806      -69.012       -0.276      102.325       76.783       49.100    10470.358     5895.645     2410.771        3.336        0.939      218.965       51.555        0.055      337.853       10.104      859.233
05/07/2013  10:00:00     -143.414      -93.156        2.672      129.565       82.359       59.476    16786.982     6783.014     3537.358        2.818        1.355      171.013       67.046        0.154      337.929       10.233      859.242
05/07/2013  10:01:00     -138.129       -8.472        9.169       80.432       71.915       46.702     6469.282     5171.697     2181.046        1.653        0.691      138.389       47.335        0.117      337.995       10.345      859.252
05/07/2013  10:02:00      -97.140      -31.185        5.946       57.676       53.897       39.139     3326.564     2904.884     1531.871        0.910        0.388      102.023       39.032        0.146      338.014       10.377      859.260
05/07/2013  10:03:00      -77.461      -69.688        8.060       94.786       54.808       38.725     8984.416     3003.959     1499.626        1.220        0.674      104.195       41.710        0.160      337.959       10.286      859.258
05/07/2013  10:04:00      -85.359      -17.193       -1.088       95.768       33.694       34.976     9171.455     1135.308     1223.299        0.955        0.577       87.073       50.982        0.343      338.127       10.566      859.275
05/07/2013  10:05:00      -15.154       -1.827       14.693       36.860       25.177       17.985     1358.631      633.869      323.448        0.138        0.116       15.264       17.494        1.314      338.446       11.103      859.275
05/07/2013  10:06:00      -48.336      -57.372        6.742       51.279       32.474       23.677     2629.563     1054.539      560.601        0.496        0.212       75.019       27.448        0.134      338.066       10.466      859.288
05/07/2013  10:07:00      -43.690       11.190        7.102       80.683       81.311       32.000     6509.826     6611.469     1023.983        0.811        0.707       45.100       33.363        0.547      338.185       10.665      859.274
05/07/2013  10:08:00      -76.781       86.694       -8.755       46.664       47.098       30.955     2177.548     2218.214      958.230        0.942        0.268      115.807       28.989        0.063      337.943       10.260      859.276
05/07/2013  10:09:00      -84.622      -29.956       -3.398       64.834       59.933       27.791     4203.474     3591.936      772.337        0.832        0.428       89.767       29.258        0.106      338.119       10.555      859.264
05/07/2013  10:10:00     -160.452      -13.986      -18.715       51.284       29.828       16.739     2630.066      889.733      280.178        1.504        0.190      161.061       19.086        0.014      337.785        9.993      859.254
05/07/2013  10:11:00      -91.461      -28.811       -3.088       52.043       27.465       22.355     2708.519      754.310      499.727        0.658        0.198       95.892       28.177        0.086      338.124       10.562      859.262
05/07/2013  10:12:00     -156.164       13.479       -7.453       71.053       46.964       35.992     5048.517     2205.573     1295.420        1.659        0.427      156.744       40.838        0.068      338.237       10.750      859.260
05/07/2013  10:13:00     -162.939      -31.163       -7.238       51.625       71.717       31.979     2665.125     5143.299     1022.651        1.820        0.442      165.893       20.603        0.015      338.092       10.508      859.273
05/07/2013  10:14:00     -155.937      -17.600      -15.026       49.951       49.310       33.847     2495.103     2431.500     1145.605        1.546        0.304      156.927       20.294        0.017      337.980       10.320      859.281
05/07/2013  10:15:00      -91.217      -63.557       16.986       92.074       96.893       52.973     8477.563     9388.291     2806.173        1.666        1.034      111.175       57.727        0.270      338.203       10.694      859.293
05/07/2013  10:16:00     -150.220      -79.126        4.535      123.413       65.279       54.051    15230.853     4261.375     2921.481        2.563        1.121      169.785       62.279        0.135      338.074       10.476      859.293
05/07/2013  10:17:00      -63.508      -56.666       10.688       44.953       53.109       28.447     2020.731     2820.581      809.241        0.650        0.283       85.113       26.406        0.096      338.149       10.604      859.305
05/07/2013  10:18:00       -5.452      -41.604        9.531       36.799       63.936       23.051     1354.203     4087.754      531.340        0.391        0.299       41.959       24.302        0.335      338.198       10.686      859.311
05/07/2013  10:19:00      -42.119       53.820       -2.125       32.160       42.750       26.226     1034.277     1827.532      687.791        0.411        0.177       68.342       23.755        0.121      338.246       10.767      859.315
05/07/2013  10:20:00      -37.480       30.012        8.065       47.075       41.949       22.629     2216.024     1759.692      512.088        0.343        0.224       48.015       22.247        0.215      338.328       10.904      859.322
05/07/2013  10:21:00      -55.841       50.829       -1.327       33.760       27.288       26.347     1139.717      744.645      694.183        0.414        0.129       75.510       19.349        0.066      338.050       10.438      859.322
05/07/2013  10:22:00      -11.673       32.932       15.378       19.329       26.211       21.398      373.600      687.037      457.887        0.149        0.076       34.939       14.310        0.168      338.369       10.974      859.321
05/07/2013  10:23:00        6.335       24.641       12.195       28.007       35.212       21.633      784.390     1239.858      467.990        0.164        0.125       25.442       20.230        0.632      338.330       10.907      859.309
05/07/2013  10:24:00      -17.875       90.334      -12.265       46.828       32.704       27.698     2192.839     1069.544      767.166        0.633        0.201       92.086       23.074        0.063      337.980       10.322      859.307
05/07/2013  10:25:00      -33.083      117.077      -12.379       38.602       71.084       29.947     1490.148     5052.929      896.819        1.120        0.372      121.661       30.483        0.063      338.158       10.620      859.303
05/07/2013  10:26:00      -38.804      202.362      -20.147       57.484       43.772       32.520     3304.438     1915.998     1057.558        2.457        0.314      206.049       22.670        0.012      337.944       10.259      859.310
05/07/2013  10:27:00      -99.513      134.546      -27.433       47.587       53.481       31.637     2264.550     2860.204     1000.881        1.744        0.306      167.349       29.694        0.031      338.022       10.391      859.311
05/07/2013  10:28:00      -16.960      138.869       -9.087       43.049       53.376       28.873     1853.243     2849.006      833.671        1.259        0.277      139.900       28.246        0.041      338.011       10.373      859.320
05/07/2013  10:29:00      -10.352      106.566        1.534       26.793       45.248       35.794      717.878     2047.381     1281.212        0.776        0.202      107.068       26.319        0.060      338.103       10.527      859.325
05/07/2013  10:30:00      -30.069      110.419        0.250       41.876       68.802       34.299     1753.575     4733.725     1176.398        1.038        0.383      114.440       22.414        0.038      338.358       10.954      859.327
05/07/2013  10:31:00      -30.086      138.003      -10.701       26.511       55.493       24.660      702.851     3079.439      608.102        1.223        0.220      141.245       23.987        0.029      337.962       10.292      859.348
05/07/2013  10:32:00        8.374       71.873      -23.012       23.429       43.081       22.152      548.933     1855.947      490.732        0.433        0.145       72.359       19.876        0.075      337.931       10.237      859.345
05/07/2013  10:33:00      -98.463        3.463      -24.661       26.897       30.818       21.485      723.469      949.774      461.607        0.622        0.107       98.524       14.768        0.022      337.900       10.185      859.354
05/07/2013  10:34:00       -2.582       75.452       -9.148       34.716       55.606       20.542     1205.200     3092.052      421.974        0.525        0.236       75.496       17.053        0.051      338.264       10.799      859.350
05/07/2013  10:35:00      -25.051      117.946        4.682       36.733       71.133       39.917     1349.335     5059.894     1593.333        1.128        0.400      120.577       44.587        0.137      338.379       10.990      859.373
05/07/2013  10:36:00      -33.366      147.548       -4.828       39.370       58.753       31.006     1550.000     3451.887      961.380        1.443        0.298      151.274       29.524        0.038      338.214       10.712      859.386
05/07/2013  10:37:00      -38.149      131.239      -17.494       43.492       60.900       30.255     1891.551     3708.862      915.390        1.275        0.326      136.671       31.816        0.054      338.023       10.393      859.413
05/07/2013  10:38:00      -47.043      132.182      -17.428       28.330       39.279       25.666      802.593     1542.855      658.734        1.150        0.150      140.304       21.803        0.024      338.153       10.610      859.424
05/07/2013  10:39:00      -30.967      171.270      -21.318       23.824       49.467       19.790      567.602     2446.998      391.659        1.708        0.170      174.047       18.052        0.011      338.040       10.420      859.424
05/07/2013  10:40:00       71.751      161.143      -12.053       68.572       68.754       51.223     4702.134     4727.114     2623.788        2.165        0.603      176.395       52.057        0.087      338.139       10.586      859.426
05/07/2013  10:41:00       55.013       98.082        2.126       58.655       41.132       32.276     3440.435     1691.842     1041.738        0.941        0.309      112.457       22.580        0.040      338.040       10.421      859.425
05/07/2013  10:42:00       35.454       37.949       18.372       25.738       26.184       30.597      662.458      685.588      936.199        0.266        0.114       51.934       14.379        0.077      338.146       10.599      859.421
05/07/2013  10:43:00       30.473      142.936      -20.150       66.850       57.501       24.189     4468.889     3306.413      585.099        1.506        0.418      146.149       36.122        0.061      338.036       10.414      859.440
05/07/2013  10:44:00      -31.462      166.806      -22.153       34.116       39.975       26.174     1163.878     1597.984      685.104        1.638        0.172      169.748       20.383        0.014      338.071       10.472      859.446
05/07/2013  10:45:00       72.946       61.636        7.125       51.613       44.529       27.779     2663.924     1982.827      771.688        0.729        0.271       95.499       10.720        0.013      338.227       10.734      859.451
05/07/2013  10:46:00       19.829       53.548       -2.579       49.546       46.663       28.765     2454.836     2177.408      827.430        0.436        0.273       57.101       22.918        0.161      338.309       10.873      859.463
05/07/2013  10:47:00      -17.179       62.405       15.265       34.655       62.064       28.076     1200.957     3851.991      788.250        0.513        0.292       64.726       27.596        0.182      338.434       11.082      859.463
05/07/2013  10:48:00       -1.620       60.520       -0.665       17.605       36.864       20.491      309.929     1358.955      419.898        0.288        0.104       60.542       13.276        0.048      338.086       10.498      859.473
05/07/2013  10:49:00       -4.430       30.962      -10.623       13.364       24.598       13.474      178.587      605.048      181.558        0.103        0.048       31.277        9.511        0.092      338.003       10.359      859.465
05/07/2013  10:50:00        4.111       30.338      -12.400       12.069       24.084       11.674      145.649      580.052      136.282        0.098        0.043       30.615       10.445        0.116      338.111       10.541      859.446
05/07/2013  10:51:00       50.514       75.101        2.915       30.020       27.858       23.804      901.187      776.044      566.616        0.522        0.112       90.509       19.213        0.045      338.189       10.672      859.426
05/07/2013  10:52:00       44.943       91.301      -12.971       32.633       36.139       28.095     1064.918     1306.025      789.348        0.684        0.158      101.763        9.806        0.009      338.095       10.514      859.420
05/07/2013  10:53:00       49.582       85.677        5.661       58.711       56.062       40.683     3447.008     3142.922     1655.123        0.904        0.412       98.990       28.652        0.084      338.303       10.863      859.416
05/07/2013  10:54:00       82.353       53.965       28.920       58.738       41.972       34.540     3450.169     1761.690     1192.990        0.847        0.320       98.459       17.824        0.033      338.233       10.745      859.421
05/07/2013  10:55:00       23.510       43.082        3.096       47.563       64.626       33.760     2262.241     4176.534     1139.708        0.500        0.379       49.079       32.732        0.445      338.271       10.810      859.432
05/07/2013  10:56:00        6.790      143.219      -25.694       24.933       31.642       16.091      621.676     1001.192      258.933        1.155        0.094      143.380       17.212        0.014      338.003       10.359      859.452
05/07/2013  10:57:00       41.502       97.645      -14.047       40.788       39.820       21.863     1663.640     1585.670      477.980        0.759        0.186      106.099       24.985        0.055      338.120       10.556      859.467
05/07/2013  10:58:00       88.878       63.804        9.218       61.727       59.826       41.503     3810.181     3579.191     1722.537        1.058        0.456      109.409       26.842        0.060      338.243       10.763      859.463
05/07/2013  10:59:00        4.930       80.275        4.180       47.212       66.786       42.244     2228.970     4460.361     1784.557        0.748        0.424       80.426       32.895        0.167      338.330       10.908      859.474
05/07/2013  11:00:00        6.039      177.186      -18.184       54.985       55.014       37.009     3023.338     3026.541     1369.688        1.959        0.371      177.289       36.600        0.043      338.245       10.764      859.478
05/07/2013  11:01:00      -93.528      150.379      -32.631       29.801       40.709       25.023      888.097     1657.187      626.160        1.780        0.159      177.092       21.034        0.014      338.067       10.466      859.488
05/07/2013  11:02:00      -53.347      107.201      -31.533       30.008       39.107       21.436      900.476     1529.378      459.506        0.911        0.144      119.742       10.219        0.007      338.030       10.407      859.482
05/07/2013  11:03:00      -65.820       83.145      -25.223       30.808       38.203       23.248      949.125     1459.456      540.472        0.741        0.147      106.044       18.533        0.031      338.015       10.379      859.489
05/07/2013  11:04:00      -29.558       61.746       -8.647       26.974       25.466       19.791      727.595      648.510      391.681        0.326        0.088       68.456       12.768        0.035      338.087       10.500      859.498
05/07/2013  11:05:00        9.645       43.818        2.796       21.784       17.466       20.676      474.557      305.074      427.502        0.161        0.060       44.867       13.268        0.087      338.190       10.673      859.507
05/07/2013  11:06:00      -25.944       63.847      -23.909       36.050       36.914        9.599     1299.570     1362.679       92.147        0.404        0.138       68.916        6.766        0.010      338.011       10.373      859.508
05/07/2013  11:07:00      -83.213       12.513       -4.499       58.606       26.240       20.923     3434.682      688.548      437.767        0.583        0.228       84.148        7.652        0.008      338.422       11.064      859.504
05/07/2013  11:08:00      -74.706       -5.626      -13.581       34.674       13.768       18.345     1202.292      189.569      336.541        0.376        0.086       74.918       10.818        0.021      338.071       10.474      859.501
05/07/2013  11:09:00      -15.983       18.497        7.822       13.345       31.644       15.832      178.091     1001.329      250.654        0.104        0.072       24.446       11.161        0.208      338.322       10.894      859.492
05/07/2013  11:10:00      -84.542      -17.160        2.837       34.082       55.935       21.038     1161.589     3128.769      442.615        0.609        0.237       86.266       20.450        0.056      338.523       11.234      859.486
05/07/2013  11:11:00     -116.406     -103.041        1.017       71.925       80.881       40.027     5173.273     6541.817     1602.133        1.874        0.666      155.460       42.636        0.075      338.271       10.807      859.480
05/07/2013  11:12:00     -142.021     -104.752      -17.007       45.807       34.930       23.081     2098.312     1220.132      532.712        1.764        0.193      176.474       25.260        0.020      338.114       10.545      859.477
05/07/2013  11:13:00      -49.353      -89.941       -5.242       34.691       26.647       14.730     1203.447      710.049      216.979        0.634        0.107      102.591       13.260        0.017      338.122       10.559      859.455
05/07/2013  11:14:00       -3.617      -48.465        3.307       27.418       25.083       22.169      751.735      629.180      491.455        0.212        0.094       48.600       20.993        0.187      338.395       11.018      859.432
05/07/2013  11:15:00      -42.199      -39.885        4.990       34.984       33.052       23.160     1223.869     1092.430      536.369        0.312        0.143       58.066       17.019        0.086      338.311       10.878      859.396
05/07/2013  11:16:00        4.441      -73.266       30.079       40.864       52.701       42.667     1669.902     2777.367     1820.514        0.628        0.313       73.400       22.452        0.094      338.475       11.150      859.363
05/07/2013  11:17:00       11.551      -91.593       -9.860       62.662       61.629       43.033     3926.586     3798.151     1851.845        0.910        0.479       92.318       40.962        0.197      338.442       11.097      859.364
05/07/2013  11:18:00      -70.385       16.436      -10.039       54.430       61.653       25.065     2962.666     3801.062      628.235        0.636        0.370       72.278       22.125        0.094      338.650       11.447      859.373
05/07/2013  11:19:00     -118.118       87.063       -8.127       77.299       71.010       36.848     5975.171     5042.452     1357.753        1.698        0.619      146.737       37.061        0.064      338.484       11.165      859.398
05/07/2013  11:20:00     -125.644       16.201      -17.092       66.170       61.080       35.021     4378.469     3730.721     1226.495        1.284        0.467      126.685       33.387        0.069      338.477       11.155      859.400
05/07/2013  11:21:00     -121.806      -95.389       -2.305       79.722       55.304       29.201     6355.649     3058.518      852.722        1.710        0.513      154.712       28.089        0.033      338.482       11.162      859.416
05/07/2013  11:22:00     -127.792     -141.718        3.287      101.418       72.583       37.855    10285.641     5268.357     1433.039        2.670        0.849      190.826       39.149        0.042      338.357       10.953      859.409
05/07/2013  11:23:00     -179.220      -58.456        5.260       90.261       74.102       42.844     8147.035     5491.113     1835.642        2.552        0.774      188.512       48.239        0.065      338.469       11.139      859.401
05/07/2013  11:24:00     -207.881      -55.750       -6.236      118.412       46.336       37.604    14021.362     2147.024     1414.060        3.197        0.879      215.227       47.942        0.050      338.416       11.051      859.403
05/07/2013  11:25:00     -235.509      -48.563      -23.547       62.890       62.286       34.626     3955.110     3879.538     1198.958        3.370        0.452      240.463       26.382        0.012      338.389       11.003      859.407
05/07/2013  11:26:00      -83.697      -24.764       -7.779       81.737       40.090       46.632     6680.969     1607.201     2174.520        0.907        0.523       87.284       49.772        0.325      338.432       11.079      859.402
05/07/2013  11:27:00      -65.042     -157.295      -10.093       47.467       55.362       24.649     2253.152     3064.950      607.554        1.750        0.296      170.213       23.587        0.019      338.304       10.863      859.402
05/07/2013  11:28:00       -6.494      -47.107       19.637       21.470       74.593       18.600      460.958     5564.157      345.969        0.451        0.319       47.553       18.307        0.148      338.474       11.148      859.407
05/07/2013  11:29:00     -124.838      166.636      -26.461       51.292       85.906       41.944     2630.849     7379.903     1759.300        2.791        0.589      208.212       49.064        0.056      338.363       10.962      859.428
05/07/2013  11:30:00     -200.945      107.829      -39.762       51.356       42.751       29.999     2637.434     1827.664      899.965        2.948        0.268      228.048       23.639        0.011      338.252       10.774      859.424
05/07/2013  11:31:00      -35.171      157.483      -10.879       33.075       74.824       33.393     1093.970     5598.706     1115.082        1.698        0.390      161.363       38.923        0.058      338.495       11.186      859.412
05/07/2013  11:32:00        7.906      175.871      -27.988       60.523       71.529       38.275     3663.055     5116.430     1464.967        2.101        0.512      176.049       45.055        0.065      338.351       10.942      859.406
05/07/2013  11:33:00       -1.116      167.820      -32.577       44.077       46.452       18.343     1942.754     2157.744      336.476        1.683        0.222      167.824       16.012        0.009      338.305       10.865      859.413
05/07/2013  11:34:00      -25.961      108.589      -17.498       35.203       30.880       27.905     1239.236      953.564      778.712        0.787        0.149      111.649       18.133        0.026      338.480       11.161      859.416
05/07/2013  11:35:00      -81.137       28.939      -17.964       30.781       44.180       20.307      947.444     1951.854      412.374        0.553        0.166       86.143       17.419        0.041      338.938       11.929      859.428
05/07/2013  11:36:00      -69.429       54.423      -12.377       21.316       48.262       21.947      454.388     2329.261      481.691        0.560        0.163       88.216       13.222        0.022      338.775       11.656      859.436
05/07/2013  11:37:00      -16.884        0.295        9.139       37.036       19.992       19.064     1371.693      399.682      363.430        0.125        0.107       16.886       22.170        1.724      338.848       11.778      859.440
05/07/2013  11:38:00       21.736       25.842       -6.710       20.422       14.149       17.576      417.041      200.203      308.911        0.106        0.046       33.768        8.838        0.069      338.476       11.154      859.432
05/07/2013  11:39:00      -67.124        5.995      -14.651       47.292       35.442       19.170     2236.523     1256.150      367.479        0.431        0.193       67.391       14.038        0.043      338.684       11.502      859.428
05/07/2013  11:40:00        3.369        6.460        8.795       39.765       41.416       33.472     1581.255     1715.307     1120.369        0.227        0.221        7.286       20.463        7.888      338.786       11.673      859.412
05/07/2013  11:41:00       45.139       23.282       11.458       61.573       30.966       24.399     3791.189      958.889      595.294        0.403        0.267       50.789       14.534        0.082      338.594       11.351      859.393
05/07/2013  11:42:00      -31.256       71.389        2.494       98.198       65.375       39.797     9642.879     4273.881     1583.801        1.079        0.775       77.932       50.031        0.412      338.550       11.278      859.355
05/07/2013  11:43:00        8.946       24.358       -6.079       71.643       39.121       31.236     5132.745     1530.457      975.716        0.417        0.382       25.949       22.505        0.752      338.514       11.218      859.333
05/07/2013  11:44:00      -64.472      -14.884        0.341       72.989       49.404       26.443     5327.462     2440.722      699.243        0.642        0.423       66.167       28.909        0.191      338.791       11.683      859.313
05/07/2013  11:45:00      -79.490      -64.717        7.168       93.337       41.305       42.332     8711.710     1706.115     1791.962        1.138        0.610      102.503       35.083        0.117      338.827       11.742      859.320
05/07/2013  11:46:00     -131.990     -109.402       -5.035       94.506       68.336       34.038     8931.478     4669.785     1158.599        2.209        0.738      171.435       42.152        0.060      338.563       11.298      859.316
05/07/2013  11:47:00      -41.265      -33.165       15.484       92.803       68.199       51.718     8612.457     4651.114     2674.777        0.949        0.797       52.941       40.007        0.571      338.811       11.716      859.301
05/07/2013  11:48:00     -217.925     -119.729      -13.149      119.658      102.673       55.132    14317.951    10541.649     3039.522        4.494        1.395      248.650       51.698        0.043      338.506       11.202      859.311
05/07/2013  11:49:00     -261.411     -140.350      -16.936      114.758       99.352       50.334    13169.502     9870.823     2533.470        5.694        1.279      296.705       37.791        0.016      338.473       11.147      859.284
05/07/2013  11:50:00     -333.619      -93.623      -11.224      112.447       94.955       46.036    12644.337     9016.372     2119.315        7.198        1.189      346.507       41.667        0.014      338.535       11.249      859.269
05/07/2013  11:51:00     -303.355      -16.791       -9.103      109.652      102.365       66.261    12023.571    10478.594     4390.518        5.964        1.345      303.820       60.372        0.039      338.791       11.679      859.254
05/07/2013  11:52:00     -310.389      -20.997      -15.126      110.088       97.265       54.717    12119.472     9460.451     2993.912        6.079        1.229      311.099       57.513        0.034      338.666       11.469      859.245
05/07/2013  11:53:00     -229.188      -16.818       -7.148       98.599       72.673       48.298     9721.819     5281.385     2332.710        3.510        0.867      229.804       49.360        0.046      338.794       11.685      859.228
05/07/2013  11:54:00     -111.339        1.134       10.506      112.003       57.212       54.477    12544.591     3273.245     2967.755        1.564        0.939      111.345       69.711        0.392      339.059       12.132      859.196
05/07/2013  11:55:00     -191.671     -125.636        3.071      153.236      102.666       59.668    23481.191    10540.277     3560.328        4.505        1.879      229.178       63.741        0.077      338.864       11.803      859.200
05/07/2013  11:56:00      -66.101      -90.991       23.447      105.942      109.978       64.729    11223.737    12095.245     4189.875        2.035        1.375      112.466       57.222        0.259      338.833       11.753      859.191
05/07/2013  11:57:00     -235.978      -88.775       -7.296      140.986      112.656       59.764    19876.961    12691.330     3571.776        4.987        1.807      252.124       71.832        0.081      338.744       11.603      859.184
05/07/2013  11:58:00     -197.049     -127.121        0.351      113.169       86.512       50.302    12807.331     7484.289     2530.334        3.890        1.141      234.496       46.793        0.040      338.760       11.627      859.193
05/07/2013  11:59:00     -176.581     -113.621        7.285      150.224      109.824       64.902    22567.179    12061.419     4212.251        4.149        1.942      209.978       71.938        0.117      338.769       11.643      859.167
05/07/2013  12:00:00     -295.833     -155.083       -7.268      149.391      126.858       81.899    22317.544    16093.059     6707.501        7.836        2.256      334.018       82.439        0.061      338.688       11.506      859.154
05/07/2013  12:01:00     -339.071       -2.141      -21.095      147.134       87.452       59.631    21648.437     7647.914     3555.828        7.413        1.643      339.077       62.372        0.034      338.885       11.838      859.140
05/07/2013  12:02:00     -419.119     -143.857      -19.374      108.666      136.702       53.155    11808.381    18687.361     2825.406       11.502        1.666      443.121       47.716        0.012      338.711       11.547      859.140
05/07/2013  12:03:00     -193.358     -110.467       10.997      124.658      114.136       48.084    15539.633    13027.011     2312.032        4.029        1.544      222.689       60.118        0.073      338.825       11.737      859.155
05/07/2013  12:04:00     -279.456      -29.384      -21.834      131.302       71.153       57.370    17240.298     5062.791     3291.322        5.251        1.280      280.997       61.789        0.048      338.823       11.735      859.163
05/07/2013  12:05:00     -192.803      -93.964       -4.259      126.119       84.908       43.824    15906.056     7209.315     1920.564        3.552        1.252      214.481       50.321        0.055      338.843       11.768      859.136
05/07/2013  12:06:00     -379.949     -118.669       -5.000      167.276      117.213       60.437    27981.196    13738.794     3652.655       10.191        2.269      398.050       64.403        0.026      338.837       11.758      859.106
05/07/2013  12:07:00     -275.393     -119.367       -2.117      155.905      143.380       80.139    24306.437    20557.894     6422.278        7.068        2.564      300.150       74.525        0.062      338.826       11.739      859.101
05/07/2013  12:08:00     -352.068      -64.513       -5.811      213.102      123.184       82.751    45412.571    15174.199     6847.741        9.778        3.372      357.930       80.154        0.050      338.895       11.854      859.109
05/07/2013  12:09:00     -486.077     -249.319      -27.170      188.483      130.378       73.175    35525.771    16998.448     5354.618       17.851        2.894      546.289       68.028        0.016      338.694       11.517      859.092
05/07/2013  12:10:00     -392.938     -195.478       -8.004      193.413      134.928       72.563    37408.622    18205.550     5265.379       12.677        3.044      438.876       89.351        0.041      338.705       11.535      859.106
05/07/2013  12:11:00     -275.784     -196.303       -1.522      147.416      121.422       69.359    21731.535    14743.238     4810.732        7.793        2.064      338.514       73.478        0.047      338.736       11.586      859.113
05/07/2013  12:12:00     -129.282     -116.860       14.265      158.308      131.616       71.602    25061.368    17322.902     5126.869        3.903        2.376      174.270       86.367        0.246      339.038       12.095      859.095
05/07/2013  12:13:00     -152.991     -132.152       -0.493      140.662      112.204       67.288    19785.834    12589.714     4527.658        3.888        1.845      202.164       65.575        0.105      338.986       12.008      859.090
05/07/2013  12:14:00      -39.216       -3.490       20.938       66.308       63.527       44.474     4396.781     4035.630     1977.908        0.620        0.521       39.371       42.534        1.167      339.419       12.739      859.072
05/07/2013  12:15:00     -166.588      -24.598        4.261      126.113      105.614       63.037    15904.397    11154.265     3973.663        2.970        1.552      168.394       52.192        0.096      339.405       12.713      859.083
05/07/2013  12:16:00      -96.554      -49.065        2.417      128.008       77.002       45.682    16386.073     5929.358     2086.835        1.807        1.220      108.305       50.800        0.220      339.386       12.682      859.090
05/07/2013  12:17:00     -269.284       17.506      -18.192      115.961       74.037       56.680    13446.957     5481.455     3212.678        4.764        1.107      269.852       56.418        0.044      339.198       12.365      859.093
05/07/2013  12:18:00     -219.850       18.364      -13.735      111.900       70.275       53.182    12521.709     4938.570     2828.323        3.457        1.014      220.615       65.177        0.087      339.232       12.422      859.101
05/07/2013  12:19:00      -88.479      -32.887       13.036      128.409       65.066       46.156    16488.860     4233.559     2130.362        1.596        1.143       94.393       58.115        0.379      339.368       12.652      859.093
05/07/2013  12:20:00        1.390       26.153        9.801       35.467       39.587       28.790     1257.904     1567.142      828.835        0.222        0.183       26.190       20.998        0.643      339.536       12.936      859.061
05/07/2013  12:21:00      -22.846      -10.026       18.513       67.895       41.862       35.861     4609.676     1752.469     1286.041        0.431        0.382       24.949       34.975        1.965      339.515       12.901      859.033
05/07/2013  12:22:00     -182.732      -53.260        3.861      111.674      106.664       53.800    12471.035    11377.217     2894.445        3.149        1.337      190.335       48.137        0.064      339.298       12.534      859.022
05/07/2013  12:23:00     -315.077      -35.416       -4.297      122.338      111.034       64.926    14966.702    12328.588     4215.412        6.602        1.576      317.061       59.982        0.036      339.128       12.247      859.026
05/07/2013  12:24:00     -269.993     -114.083      -14.976      187.450       80.358       58.729    35137.510     6457.449     3449.090        6.558        2.252      293.106       66.495        0.051      339.075       12.158      858.995
05/07/2013  12:25:00     -204.572     -108.921       -3.564      138.090       76.088       53.822    19068.923     5789.352     2896.806        4.074        1.388      231.762       54.395        0.055      339.165       12.309      858.978
05/07/2013  12:26:00     -264.137     -170.714        5.389      171.757      122.046       75.313    29500.349    14895.172     5672.120        7.450        2.503      314.503       92.101        0.086      339.098       12.195      858.970
05/07/2013  12:27:00     -200.743     -130.773        6.070      118.311       99.417       54.011    13997.460     9883.715     2917.136        4.211        1.340      239.582       57.381        0.057      339.298       12.533      858.948
05/07/2013  12:28:00     -127.631      -47.262        9.422      127.084       79.218       50.744    16150.410     6275.436     2574.960        2.180        1.250      136.100       62.995        0.214      339.608       13.056      858.976
05/07/2013  12:29:00     -301.005     -109.985      -14.574      157.021      112.187       59.152    24655.737    12586.023     3498.917        7.182        2.037      320.470       77.850        0.059      339.361       12.639      858.983
05/07/2013  12:30:00     -297.581      -82.944      -10.223      183.635      127.297       66.177    33721.817    16204.411     4379.365        7.491        2.715      308.925       81.040        0.069      339.203       12.373      858.982
05/07/2013  12:31:00     -194.582      -61.535       10.978      135.684      101.887       56.422    18410.037    10380.987     3183.462        3.687        1.599      204.080       53.500        0.069      339.248       12.450      859.001
05/07/2013  12:32:00     -240.161     -149.921        1.519      117.320      105.735       54.025    13763.876    11179.963     2918.647        5.400        1.393      283.115       58.841        0.043      338.993       12.019      859.005
05/07/2013  12:33:00     -208.571     -211.285        2.887      133.918       99.261       74.479    17934.058     9852.793     5547.165        6.074        1.667      296.890       85.132        0.082      339.066       12.142      858.982
05/07/2013  12:34:00     -235.307       -4.738      -15.603      126.153       89.331       41.830    15914.661     7980.037     1749.721        4.064        1.282      235.354       55.158        0.055      339.260       12.467      859.002
05/07/2013  12:35:00     -123.097      -36.029       -0.959       83.830       78.437       42.720     7027.490     6152.332     1825.004        1.573        0.750      128.261       44.659        0.121      339.436       12.766      859.000
05/07/2013  12:36:00      -71.920      -15.116        3.435       84.702       38.853       33.537     7174.448     1509.548     1124.717        0.761        0.490       73.491       39.709        0.292      339.497       12.871      858.972
05/07/2013  12:37:00     -190.913     -140.264        0.878      135.518       95.861       54.620    18365.191     9189.396     2983.308        4.333        1.527      236.900       62.617        0.070      339.220       12.403      858.959
05/07/2013  12:38:00     -190.049      -78.036       -2.708      119.183      105.819       53.213    14204.608    11197.571     2831.648        3.522        1.412      205.447       46.341        0.051      339.317       12.566      858.958
05/07/2013  12:39:00     -300.490     -148.293        2.391      186.239      120.552       62.254    34684.846    14532.706     3875.563        8.268        2.655      335.090       74.623        0.050      339.072       12.153      858.953
05/07/2013  12:40:00     -194.757     -112.184        6.615      177.732      129.098       73.181    31588.505    16666.279     5355.463        5.208        2.681      224.756       87.551        0.152      339.137       12.262      858.926
05/07/2013  12:41:00     -291.492       24.136       -5.015      211.728      139.959       76.559    44828.635    19588.405     5861.301        7.792        3.514      292.490       92.343        0.100      339.254       12.460      858.927
05/07/2013  12:42:00     -312.231     -140.712      -23.253      190.802      113.795       70.421    36405.447    12949.389     4959.109        8.606        2.716      342.473       90.671        0.070      339.074       12.155      858.926
05/07/2013  12:43:00     -178.153     -117.695        2.363      155.705       99.773       59.804    24243.898     9954.726     3576.553        4.168        1.889      213.520       71.540        0.112      339.057       12.127      858.931
05/07/2013  12:44:00     -146.924      -77.856       -8.248       70.984       56.377       31.012     5038.668     3178.340      961.766        1.845        0.459      166.277       26.133        0.025      339.145       12.277      858.937
05/07/2013  12:45:00     -284.092      -51.244      -12.182      121.075       87.841       49.994    14659.163     7716.017     2499.418        5.417        1.244      288.676       63.370        0.048      339.137       12.262      858.947
05/07/2013  12:46:00     -128.993      -71.011       12.562       94.440      103.288       48.964     8918.903    10668.501     2397.505        2.191        1.099      147.247       44.357        0.091      339.278       12.501      858.942
05/07/2013  12:47:00     -157.679       14.016       -1.495      127.455       72.221       48.193    16244.729     5215.944     2322.586        2.442        1.189      158.300       57.084        0.130      339.342       12.608      858.945
05/07/2013  12:48:00     -220.047      -84.927        2.307      146.924       93.942       60.718    21586.653     8825.027     3686.670        4.486        1.705      235.867       77.764        0.109      339.090       12.183      858.931
05/07/2013  12:49:00      -83.066        6.784        1.567       98.003       79.994       37.677     9604.664     6399.030     1419.568        1.218        0.871       83.342       41.614        0.249      339.203       12.374      858.926
05/07/2013  12:50:00      -35.586       44.149      -10.134       37.567       39.462       25.754     1411.316     1557.245      663.251        0.347        0.182       56.705       22.303        0.155      339.293       12.528      858.919
05/07/2013  12:51:00       -9.678       -4.404        0.764       25.085       32.014       15.804      629.241     1024.880      249.772        0.101        0.095       10.633       12.843        1.459      339.396       12.699      858.926
05/07/2013  12:52:00     -165.197       40.622      -26.192       89.211       70.670       47.753     7958.573     4994.299     2280.386        2.243        0.762      170.119       50.265        0.087      339.179       12.335      858.921
05/07/2013  12:53:00     -244.464       91.884      -46.165      101.682      155.614       53.002    10339.239    24215.666     2809.232        5.384        1.868      261.162       62.278        0.057      339.036       12.092      858.907
05/07/2013  12:54:00     -177.338       65.365      -18.881       59.187      107.264       43.827     3503.048    11505.601     1920.806        2.650        0.846      189.001       27.161        0.021      339.122       12.237      858.895
05/07/2013  12:55:00     -187.489      -51.835       -9.680       70.973       88.395       44.063     5037.164     7813.664     1941.562        2.636        0.740      194.522       41.413        0.045      339.166       12.313      858.901
05/07/2013  12:56:00     -305.593     -100.385      -14.239      146.660       93.187       56.108    21509.109     8683.839     3148.125        6.850        1.667      321.659       67.615        0.044      339.067       12.143      858.890
05/07/2013  12:57:00     -208.187      -85.656       -6.665      109.334       96.257       46.423    11953.847     9265.447     2155.081        3.704        1.169      225.120       52.948        0.055      339.128       12.247      858.880
05/07/2013  12:58:00     -179.665        0.839      -13.817       74.085       53.051       37.014     5488.545     2814.380     1370.050        2.107        0.484      179.667       27.037        0.023      339.143       12.272      858.896
05/07/2013  12:59:00     -130.172       28.485       -6.430       55.941       63.824       36.315     3129.371     4073.553     1318.790        1.316        0.426      133.252       26.462        0.039      339.196       12.364      858.902
05/07/2013  13:00:00     -196.398        7.835      -17.594       65.832       36.403       31.610     4333.916     1325.148      999.212        2.280        0.333      196.554       19.243        0.010      339.131       12.250      858.911
05/07/2013  13:01:00     -166.979      -48.529      -10.315      101.019       61.148       33.871    10204.891     3739.067     1147.219        2.271        0.755      173.888       29.378        0.029      339.273       12.492      858.910
05/07/2013  13:02:00     -211.399       73.310      -31.464       90.081       81.832       49.163     8114.667     6696.397     2417.041        3.414        0.861      223.750       42.826        0.037      339.013       12.052      858.924
05/07/2013  13:03:00     -258.308      -56.887      -25.817       72.860       64.252       37.854     5308.550     4128.278     1432.962        4.075        0.543      264.498       23.238        0.008      339.073       12.153      858.904
05/07/2013  13:04:00     -196.868      -24.635      -22.316       78.779       88.667       38.898     6206.103     7861.790     1513.030        2.772        0.779      198.403       33.575        0.029      339.159       12.299      858.900
05/07/2013  13:05:00      -72.877      -41.019        9.661       80.043       64.723       42.419     6406.937     4189.104     1799.356        0.974        0.620       83.628       40.677        0.237      339.229       12.419      858.897
05/07/2013  13:06:00     -149.212      -27.560      -13.605       72.725       67.080       35.083     5288.873     4499.779     1230.850        1.711        0.551      151.736       30.230        0.040      339.128       12.247      858.897
05/07/2013  13:07:00     -175.007       -2.764      -26.836       59.613       56.825       32.497     3553.733     3229.063     1056.058        1.960        0.392      175.029       29.853        0.029      339.172       12.321      858.882
05/07/2013  13:08:00     -124.697      -51.972        1.530      106.529       57.284       40.172    11348.511     3281.508     1613.810        1.725        0.812      135.094       54.748        0.164      339.309       12.553      858.870
05/07/2013  13:09:00     -157.061      -37.694       -1.162       59.479       59.433       33.218     3537.759     3532.337     1103.419        1.713        0.409      161.520       22.145        0.019      339.254       12.460      858.864
05/07/2013  13:10:00     -167.373       29.311      -15.782       70.063       44.851       28.310     4908.852     2011.655      801.439        1.842        0.386      169.921       33.750        0.039      339.167       12.313      858.851
05/07/2013  13:11:00      -32.255       49.888        4.744       41.774       42.292       35.749     1745.106     1788.621     1277.986        0.418        0.241       59.407       24.078        0.164      339.371       12.659      858.807
05/07/2013  13:12:00     -102.661        9.957       -6.166       53.878       41.626       26.299     2902.844     1732.745      691.652        0.800        0.266      103.143       27.454        0.071      339.294       12.529      858.788
05/07/2013  13:13:00     -127.241      -68.205      -14.622      109.398       79.656       42.999    11967.814     6345.028     1848.873        2.061        1.008      144.369       23.995        0.028      339.255       12.461      858.764
05/07/2013  13:14:00     -151.083      -52.981        9.739      106.600       76.338       40.997    11363.614     5827.462     1680.736        2.230        0.944      160.104       45.867        0.082      339.344       12.611      858.759
05/07/2013  13:15:00     -115.900        3.708       -6.164       57.658       70.524       42.355     3324.399     4973.616     1793.980        1.179        0.505      115.959       42.134        0.132      339.396       12.701      858.761
05/07/2013  13:16:00     -124.908      -54.605       -3.816      106.756       64.657       31.540    11396.908     4180.535      994.783        1.758        0.829      136.322       36.750        0.073      339.355       12.630      858.759
05/07/2013  13:17:00      -77.260      -38.372       24.627      125.240       88.193       51.213    15684.943     7777.950     2622.807        1.706        1.304       86.264       69.306        0.645      339.451       12.792      858.766
05/07/2013  13:18:00     -195.248      -16.212        3.349      101.888       86.006       49.867    10381.088     7397.104     2486.690        2.933        1.013      195.920       56.580        0.083      339.503       12.877      858.785
05/07/2013  13:19:00     -374.185     -151.794      -12.269      102.056       97.730       59.349    10415.485     9551.195     3522.329        9.334        1.174      403.802       48.120        0.014      339.197       12.363      858.789
05/07/2013  13:20:00     -168.388      -95.250       15.129      144.287       91.358       71.731    20818.818     8346.220     5145.304        3.598        1.716      193.461       71.450        0.136      339.270       12.485      858.754
05/07/2013  13:21:00     -120.449      -57.392        4.132       83.560       69.281       50.845     6982.220     4799.839     2585.175        1.609        0.718      133.423       37.871        0.081      339.308       12.552      858.785
05/07/2013  13:22:00     -285.131      -59.167      -12.613      132.730       91.968       63.228    17617.314     8458.098     3997.746        5.751        1.504      291.205       68.849        0.056      339.361       12.639      858.785
05/07/2013  13:23:00     -390.262      -83.714      -25.632      160.948      154.272       71.186    25904.289    23800.003     5067.492       10.736        2.739      399.140       75.480        0.036      339.350       12.619      858.771
05/07/2013  13:24:00     -404.421     -159.865       -0.415      174.922      100.711       60.587    30597.859    10142.714     3670.800       11.675        2.221      434.871       55.968        0.017      339.203       12.372      858.763
05/07/2013  13:25:00     -387.261     -105.336      -24.900      130.738      108.407       57.774    17092.521    11752.012     3337.889        9.693        1.609      401.331       61.452        0.023      339.227       12.412      858.750
05/07/2013  13:26:00     -230.269      -15.742       -5.914      108.061       90.576       64.649    11677.097     8204.067     4179.469        3.868        1.203      230.807       62.071        0.072      339.579       13.007      858.750
05/07/2013  13:27:00     -233.475      -74.552        5.025      176.424      110.412       71.361    31125.593    12190.764     5092.336        5.424        2.420      245.089       86.591        0.125      339.481       12.842      858.733
05/07/2013  13:28:00     -206.170     -155.351      -10.406      114.771       85.240       59.682    13172.396     7265.939     3561.941        4.537        1.200      258.147       60.248        0.054      339.325       12.576      858.715
05/07/2013  13:29:00     -241.940      -82.956        1.397      148.398      108.439       74.835    22021.948    11758.915     5600.234        5.239        1.969      255.767       76.855        0.090      339.470       12.822      858.687
05/07/2013  13:30:00      -96.421       -6.290       13.538       97.515       70.359       54.461     9509.081     4950.396     2965.961        1.347        0.871       96.626       50.104        0.269      339.790       13.363      858.684
05/07/2013  13:31:00     -155.189      -58.187       13.402      156.740      102.623       71.293    24567.412    10531.534     5082.708        3.391        2.009      165.739       73.284        0.196      339.636       13.102      858.691
05/07/2013  13:32:00     -389.917      -57.993      -13.073      154.332      122.892       70.336    23818.304    15102.482     4947.173        9.971        2.193      394.206       78.744        0.040      339.393       12.693      858.683
05/07/2013  13:33:00     -192.371      -12.905        8.609      165.694      103.873       68.390    27454.452    10789.523     4677.249        4.008        2.146      192.803       80.678        0.175      339.675       13.169      858.698
05/07/2013  13:34:00     -234.102      -96.672       -4.456      154.573      127.010       57.940    23892.735    16131.561     3357.094        5.377        2.169      253.277       71.055        0.079      339.674       13.167      858.695
05/07/2013  13:35:00     -307.206      -98.651        7.418      217.030      158.016       91.104    47102.159    24968.950     8299.959        9.225        4.019      322.657      113.598        0.124      339.424       12.745      858.689
05/07/2013  13:36:00     -462.490     -100.606      -27.765      191.181      148.328       72.787    36550.180    22001.240     5297.916       14.431        3.192      473.306       83.934        0.031      339.289       12.518      858.678
05/07/2013  13:37:00     -236.141     -129.788      -12.529      163.101      137.151       74.925    26601.890    18810.262     5613.767        6.189        2.551      269.458       76.845        0.081      339.420       12.737      858.680
05/07/2013  13:38:00     -325.396     -118.802      -21.784      163.216      148.603       79.923    26639.361    22082.923     6387.756        8.778        2.756      346.405       85.108        0.060      339.370       12.655      858.667
05/07/2013  13:39:00     -221.748      -77.214        4.129      205.706      170.976       90.168    42314.757    29232.777     8130.235        6.740        3.984      234.807      111.421        0.225      339.339       12.602      858.642
05/07/2013  13:40:00     -279.984      -94.806        0.696      141.584      108.463       68.116    20046.045    11764.262     4639.848        6.191        1.823      295.600       68.967        0.054      339.495       12.864      858.645
05/07/2013  13:41:00     -348.979     -117.680       11.652      244.172      217.164       98.746    59619.978    47160.147     9750.675       12.613        5.827      368.287      117.345        0.102      339.422       12.743      858.645
05/07/2013  13:42:00     -357.243      -74.916       -6.445      201.624      150.903       79.106    40652.107    22771.724     6257.828       10.147        3.484      365.013       95.405        0.068      339.344       12.611      858.638
05/07/2013  13:43:00     -295.272     -126.892        2.911      210.955      178.319       98.272    44501.879    31797.542     9657.301        9.461        4.298      321.384       94.958        0.087      339.316       12.562      858.627
05/07/2013  13:44:00     -429.793      -91.510      -15.688      169.768      131.351       77.310    28821.153    17253.059     5976.814       12.269        2.603      439.427       85.050        0.037      339.394       12.695      858.637
05/07/2013  13:45:00     -275.095       -6.098       -1.732      136.329      120.924       67.407    18585.613    14622.501     4543.729        5.673        1.888      275.163       64.512        0.055      339.528       12.920      858.628
05/07/2013  13:46:00     -158.467      -46.032       12.815      168.965       78.621       54.269    28549.264     6181.294     2945.135        3.253        1.884      165.017       71.235        0.186      339.674       13.167      858.637
05/07/2013  13:47:00     -274.284     -203.967       -8.718      163.016      140.053       80.125    26574.156    19614.893     6420.090        8.475        2.630      341.810       81.651        0.057      339.478       12.835      858.618
05/07/2013  13:48:00     -225.914     -178.452       10.187      153.522      108.575       77.492    23569.106    11788.548     6004.960        6.217        2.068      287.893       82.427        0.082      339.359       12.635      858.642
05/07/2013  13:49:00     -276.226      -58.626      -10.726      123.083      131.560       66.181    15149.378    17308.115     4379.918        5.834        1.842      282.379       53.697        0.036      339.545       12.948      858.647
05/07/2013  13:50:00     -144.033      -82.907       -8.069      109.350       90.116       46.314    11957.478     8120.887     2144.940        2.495        1.111      166.190       44.124        0.070      339.689       13.194      858.688
05/07/2013  13:51:00     -312.778     -121.311      -31.509      137.264      114.925       59.323    18841.289    13207.857     3519.235        7.455        1.778      335.480       58.975        0.031      339.567       12.985      858.692
05/07/2013  13:52:00     -392.595      -96.031      -43.885      130.455      101.131       62.264    17018.377    10227.566     3876.795        9.820        1.556      404.169       57.696        0.020      339.388       12.683      858.707
05/07/2013  13:53:00     -305.712     -138.372       -4.164      205.973      124.427       72.776    42424.739    15482.009     5296.355        8.790        3.160      335.569       80.557        0.058      339.440       12.771      858.707
05/07/2013  13:54:00     -185.000      -62.206        1.273      132.844      105.202       63.661    17647.616    11067.418     4052.769        3.543        1.638      195.178       54.038        0.077      339.519       12.904      858.713
05/07/2013  13:55:00     -219.271     -105.281      -20.983      151.429      113.862       49.241    22930.823    12964.624     2424.629        4.896        1.916      243.237       32.973        0.018      339.569       12.989      858.717
05/07/2013  13:56:00     -230.955      -56.430      -14.994      199.620       88.383       51.851    39848.008     7811.535     2688.483        5.354        2.517      237.749       37.093        0.024      339.686       13.188      858.730
05/07/2013  13:57:00     -330.990     -127.500       -2.995      232.831      146.374       74.025    54210.315    21425.408     5479.627       10.345        4.056      354.698       93.975        0.070      339.467       12.817      858.706
05/07/2013  13:58:00     -305.206     -135.572       -6.477      191.939      128.826       85.105    36840.723    16596.155     7242.826        8.612        3.034      333.962       87.117        0.068      339.378       12.668      858.697
05/07/2013  13:59:00     -363.864      -48.464      -12.973      191.223      174.095       78.840    36566.411    30309.051     6215.764       10.399        3.655      367.078       87.376        0.057      339.430       12.756      858.691
05/07/2013  14:00:00     -339.388      -93.587      -12.605      153.408      165.523       78.141    23533.948    27397.705     6105.968        9.056        2.852      352.055       77.159        0.048      339.422       12.742      858.685
05/07/2013  14:01:00     -385.195      -94.057      -26.419      180.457      187.779       73.193    32564.872    35260.907     5357.222       11.554        3.659      396.512       72.947        0.034      339.398       12.700      858.673
05/07/2013  14:02:00     -250.509      -29.121       -5.777      144.270      109.776       57.398    20813.765    12050.788     3294.542        4.989        1.808      252.196       61.580        0.060      339.462       12.810      858.677
05/07/2013  14:03:00     -295.658      -64.411       -7.337      178.952      115.594       55.512    32023.642    13361.986     3081.545        7.003        2.423      302.592       56.093        0.034      339.531       12.925      858.680
05/07/2013  14:04:00     -253.635       -4.883        3.578      147.082      101.203       61.752    21633.114    10242.006     3813.322        5.002        1.784      253.682       69.721        0.076      339.646       13.119      858.680
05/07/2013  14:05:00     -434.150      -44.318      -36.181      169.956      160.631       85.991    28884.914    25802.265     7394.415       12.691        3.104      436.406       83.593        0.037      339.443       12.776      858.687
05/07/2013  14:06:00     -456.180      -57.735       -1.490      225.788      142.160       99.957    50979.996    20209.430     9991.336       14.629        4.059      459.819      114.110        0.062      339.368       12.650      858.695
05/07/2013  14:07:00     -320.869        6.290        0.510      180.178      120.940       85.496    32463.978    14626.538     7309.643        7.869        2.720      320.931       86.419        0.073      339.527       12.920      858.697
05/07/2013  14:08:00     -350.770      -82.256       -4.055      138.959      132.284       72.759    19309.524    17499.039     5293.903        8.596        2.105      360.285       65.959        0.034      339.404       12.710      858.715
05/07/2013  14:09:00     -385.303      -88.949      -21.104      180.998      155.283       71.427    32760.342    24112.841     5101.824       10.938        3.099      395.437       80.476        0.041      339.432       12.757      858.707
05/07/2013  14:10:00     -512.454     -113.998      -20.738      203.081      148.262       80.108    41241.821    21981.568     6417.232       17.283        3.482      524.981       97.642        0.035      339.281       12.504      858.698
05/07/2013  14:11:00     -555.521      -33.222      -42.818      139.698      138.790       80.430    19515.476    19262.694     6469.034       17.839        2.262      556.513       67.948        0.015      339.297       12.531      858.689
05/07/2013  14:12:00     -417.349     -157.344      -20.661      185.374      137.658       84.704    34363.402    18949.791     7174.719       12.992        3.024      446.023      100.738        0.051      339.327       12.581      858.648
05/07/2013  14:13:00     -388.078      -42.301      -29.823      171.878      154.891       74.490    29542.185    23991.330     5548.805       10.617        2.954      390.376       75.196        0.037      339.431       12.755      858.648
05/07/2013  14:14:00     -298.395     -127.949       -4.732      160.946      106.338       63.763    25903.668    11307.692     4065.705        7.335        2.064      324.670       72.194        0.049      339.489       12.855      858.643
05/07/2013  14:15:00     -228.088      -70.863       -9.723      147.818       84.886       53.148    21850.293     7205.696     2824.697        4.451        1.594      238.843       62.775        0.069      339.470       12.822      858.644
05/07/2013  14:16:00     -186.760      -87.147        2.144       89.337       69.584       46.201     7981.066     4841.963     2134.553        2.872        0.748      206.092       41.215        0.040      339.486       12.849      858.657
05/07/2013  14:17:00     -264.713      -64.880       -9.307      181.901      127.194       75.996    33087.864    16178.321     5775.425        6.470        2.752      272.548       84.252        0.096      339.472       12.827      858.643
05/07/2013  14:18:00     -285.626     -123.064      -19.233      164.732      123.023       79.513    27136.475    15134.726     6322.395        7.284        2.430      311.010       79.340        0.065      339.355       12.629      858.638
05/07/2013  14:19:00     -264.859     -159.819        3.545      187.836      114.141       83.530    35282.529    13028.188     6977.183        7.549        2.764      309.342       93.547        0.091      339.389       12.685      858.619
05/07/2013  14:20:00     -328.577      -88.327        3.261      209.789      167.209       81.778    44011.594    27959.003     6687.673        9.720        3.933      340.242       94.158        0.077      339.441       12.774      858.646
05/07/2013  14:21:00     -314.054     -143.982      -11.251      203.707      153.793       73.406    41496.636    23652.184     5388.445        9.500        3.527      345.486       80.785        0.055      339.363       12.643      858.658
05/07/2013  14:22:00     -128.221      -36.624        0.827      151.357       92.379       59.393    22909.073     8533.938     3527.576        2.637        1.749      133.349       68.685        0.265      339.524       12.915      858.674
05/07/2013  14:23:00     -183.970      -57.753      -15.091      102.173      105.918       64.331    10439.300    11218.544     4138.493        3.160        1.290      192.822       52.402        0.074      339.540       12.940      858.667
05/07/2013  14:24:00      -79.452      -15.947        2.694      125.978       76.923       53.049    15870.559     5917.107     2814.164        1.558        1.230       81.037       49.839        0.378      339.585       13.019      858.654
05/07/2013  14:25:00     -221.406      -29.909      -12.728      194.022      118.008       62.928    37644.563    13925.776     3959.917        5.279        2.777      223.417       72.511        0.105      339.573       12.996      858.639
05/07/2013  14:26:00     -266.807      -63.466       -3.089      183.365      111.590       76.788    33622.540    12452.272     5896.374        6.359        2.599      274.251       72.437        0.070      339.551       12.958      858.619
05/07/2013  14:27:00     -254.089     -117.317       -9.745      148.337      174.524       76.899    22003.885    30458.626     5913.532        6.839        2.919      279.865       64.870        0.054      339.427       12.750      858.609
05/07/2013  14:28:00     -396.794     -109.421      -17.177      141.280      171.249       79.744    19960.138    29326.144     6359.113       11.267        2.782      411.604       66.134        0.026      339.428       12.749      858.618
05/07/2013  14:29:00     -355.703      -56.391      -11.101      190.405      125.341       77.748    36254.007    15710.453     6044.773        9.391        2.900      360.146       79.356        0.049      339.421       12.740      858.625
05/07/2013  14:30:00     -345.011     -127.137      -12.059      219.949      127.347       74.240    48377.474    16217.319     5511.565       10.271        3.505      367.691       94.489        0.066      339.371       12.655      858.640
05/07/2013  14:31:00     -271.780        7.756      -13.206      182.248      104.557       60.896    33214.513    10932.094     3708.351        6.097        2.393      271.890       79.005        0.084      339.565       12.983      858.656
05/07/2013  14:32:00     -271.420        7.100      -11.978      136.179       96.179       63.750    18544.638     9250.375     4064.095        5.286        1.593      271.513       61.030        0.051      339.551       12.960      858.674
05/07/2013  14:33:00     -180.924      -63.215       -8.354      123.524      120.951       54.202    15258.276    14629.140     2937.843        3.481        1.641      191.650       47.122        0.060      339.560       12.974      858.710
05/07/2013  14:34:00     -337.604       -9.043      -12.065      165.845      119.967       64.600    27504.472    14392.045     4173.224        8.013        2.303      337.725       69.270        0.042      339.518       12.904      858.728
05/07/2013  14:35:00     -327.388     -264.815      -10.147      201.689      154.031       94.231    40678.422    23725.673     8879.459       12.534        3.664      421.082       99.582        0.056      339.384       12.677      858.718
05/07/2013  14:36:00     -229.261      -88.299        7.101      192.805      143.575       80.026    37173.852    20613.782     6404.212        6.229        3.210      245.678       85.065        0.120      339.503       12.879      858.732
05/07/2013  14:37:00     -231.686       -5.656       10.085      192.531      134.660       79.577    37068.007    18133.238     6332.575        5.766        3.077      231.755       82.959        0.128      339.539       12.940      858.737
05/07/2013  14:38:00     -249.636      -58.938        7.445      253.030      159.147       98.208    64023.935    25327.902     9644.857        8.241        4.950      256.499      131.373        0.262      339.420       12.737      858.704
05/07/2013  14:39:00     -250.788      -37.525      -29.816      117.886       99.468       58.436    13897.156     9893.876     3414.713        4.619        1.360      253.580       50.536        0.040      339.529       12.920      858.706
05/07/2013  14:40:00     -291.986      -49.133      -23.543      170.750      155.471       66.255    29155.600    24171.081     4389.726        7.296        2.886      296.091       69.677        0.055      339.523       12.911      858.718
05/07/2013  14:41:00     -404.846      -31.258      -29.044      185.972      148.716       96.683    34585.532    22116.585     9347.514       11.587        3.302      406.051      103.817        0.065      339.459       12.803      858.702
05/07/2013  14:42:00     -462.995     -105.446       -6.830      225.438      182.672       87.905    50822.474    33369.084     7727.212       15.871        4.596      474.851       98.656        0.043      339.432       12.757      858.695
05/07/2013  14:43:00     -183.284      -35.846       23.320      155.879      144.517       84.417    24298.147    20885.216     7126.250        4.386        2.615      186.756       84.515        0.205      339.611       13.060      858.699
05/07/2013  14:44:00     -445.907     -161.119      -38.463      152.380      151.392       78.629    23219.637    22919.540     6182.445       13.929        2.616      474.122       78.279        0.027      339.353       12.625      858.708
05/07/2013  14:45:00     -364.182      -38.690        0.559      153.306      127.420       88.014    23502.851    16235.809     7746.426        9.080        2.374      366.231       92.481        0.064      339.475       12.831      858.705
05/07/2013  14:46:00     -375.084     -100.187      -11.988      167.673      126.749       75.961    28114.150    16065.282     5770.143       10.040        2.497      388.234       85.899        0.049      339.463       12.810      858.715
05/07/2013  14:47:00     -140.494      -39.789        5.730      111.490       84.875       49.956    12430.008     7203.753     2495.601        2.174        1.106      146.020       56.449        0.149      339.598       13.040      858.708
05/07/2013  14:48:00     -233.429      -28.796       -4.385      164.304       91.348       58.852    26995.939     8344.499     3463.534        4.706        1.940      235.198       68.982        0.086      339.551       12.959      858.698
05/07/2013  14:49:00     -231.435     -120.081      -14.114       98.672      103.425       63.041     9736.247    10696.726     3974.195        4.629        1.220      260.733       59.291        0.052      339.556       12.967      858.689
05/07/2013  14:50:00     -312.619     -140.752      -23.317      179.162      174.914       79.981    32099.095    30594.998     6396.936        9.358        3.455      342.843       78.725        0.053      339.469       12.820      858.672
05/07/2013  14:51:00     -372.370     -103.943       -1.432      208.100      141.694       88.263    43305.417    20077.290     7790.350       11.031        3.559      386.606      101.940        0.070      339.442       12.775      858.651
05/07/2013  14:52:00     -292.490      -78.841       12.291      131.332      134.724       70.077    17248.049    18150.603     4910.743        6.611        2.015      302.930       68.548        0.051      339.546       12.949      858.632
05/07/2013  14:53:00     -256.927     -212.875        1.561      192.732      177.422       84.976    37145.547    31478.433     7220.874        9.357        3.792      333.657      105.178        0.099      339.509       12.887      858.639
05/07/2013  14:54:00     -334.505     -201.676        0.463      199.639      133.109       76.358    39855.651    17718.114     5830.516       10.798        3.170      390.598       88.615        0.051      339.449       12.788      858.628
05/07/2013  14:55:00     -204.111     -119.970        3.921      136.423      118.782       59.768    18611.273    14109.178     3572.220        4.618        1.815      236.758       64.965        0.075      339.536       12.933      858.620
05/07/2013  14:56:00     -232.410     -205.808        4.152      205.897      144.893       96.748    42393.692    20993.934     9360.225        8.456        3.637      310.438      103.394        0.111      339.517       12.903      858.619
05/07/2013  14:57:00     -312.355      -73.659       -8.694      156.093      124.491       73.522    24365.015    15498.109     5405.419        7.416        2.263      320.922       75.543        0.055      339.532       12.926      858.626
05/07/2013  14:58:00     -294.125     -121.799        6.775      172.044      123.154       79.921    29598.976    15166.962     6387.312        7.626        2.558      318.347       85.555        0.072      339.551       12.958      858.623
05/07/2013  14:59:00     -214.585      -65.354       -7.514      159.383      159.551       66.882    25403.094    25456.447     4473.241        5.284        2.767      224.316       52.910        0.056      339.598       13.038      858.622
05/07/2013  15:00:00     -370.627     -186.617       -3.629      187.761      151.133       91.110    35254.097    22841.201     8301.047       11.929        3.320      414.958       96.658        0.054      339.460       12.804      858.616
05/07/2013  15:01:00     -396.934     -311.169       -6.746      270.048      176.029      106.297    72925.709    30986.345    11298.990       18.480        5.761      504.364      138.645        0.076      339.390       12.687      858.588
05/07/2013  15:02:00     -409.797     -331.218       -4.715      278.569      227.218      141.415    77600.630    51627.801    19998.271       21.342        7.461      526.915      170.718        0.105      339.379       12.668      858.574
05/07/2013  15:03:00     -188.866      -92.825        7.283      184.111       98.284       65.580    33897.043     9659.711     4300.761        4.609        2.393      210.444       84.735        0.162      339.542       12.944      858.615
05/07/2013  15:04:00     -246.316      -23.240       -1.374      151.839      100.711       60.006    23055.016    10142.748     3600.767        4.900        1.840      247.410       60.650        0.060      339.599       13.041      858.603
05/07/2013  15:05:00     -354.604       36.235      -20.419      175.692      112.725       70.384    30867.560    12707.010     4953.867        8.799        2.426      356.450       87.626        0.060      339.764       13.317      858.587
05/07/2013  15:06:00     -196.160      -29.294       -5.114      152.745       97.295       58.935    23330.976     9466.322     3473.343        3.781        1.814      198.336       70.637        0.127      339.745       13.289      858.588
05/07/2013  15:07:00     -223.807     -113.986      -14.232      119.441       81.152       53.043    14266.231     6585.609     2813.585        4.347        1.183      251.162       45.485        0.033      339.553       12.962      858.561
05/07/2013  15:08:00     -203.449      -47.374       -0.324      128.086       81.014       60.369    16405.926     6563.270     3644.368        3.512        1.331      208.892       60.964        0.085      339.623       13.081      858.545
05/07/2013  15:09:00     -278.384      -69.565        5.390      170.697       83.981       66.110    29137.574     7052.871     4370.543        6.146        2.028      286.944       76.840        0.072      339.536       12.932      858.533
05/07/2013  15:10:00     -442.757     -143.221      -36.080      246.041      177.613      100.705    60536.238    31546.464    10141.567       16.002        5.111      465.345      114.037        0.060      339.512       12.892      858.515
05/07/2013  15:11:00     -296.426     -237.100      -12.895      182.761      176.540       90.771    33401.690    31166.436     8239.336       10.852        3.640      379.585       98.181        0.067      339.495       12.864      858.491
05/07/2013  15:12:00     -369.255     -270.588      -12.739      193.764      154.497       99.821    37544.588    23869.293     9964.327       14.054        3.569      457.785      102.054        0.050      339.464       12.811      858.460
05/07/2013  15:13:00     -389.553     -113.799      -12.017      200.797      149.269       81.820    40319.589    22281.371     6694.503       11.706        3.465      405.835       69.011        0.029      339.519       12.905      858.468
05/07/2013  15:14:00     -348.112     -118.973      -12.582      180.075      126.883       66.768    32426.874    16099.327     4457.989        9.423        2.649      367.881       62.540        0.029      339.572       12.995      858.457
05/07/2013  15:15:00     -311.457      -62.806       -9.999      152.978      145.117       73.877    23402.404    21058.926     5457.796        7.548        2.496      317.726       75.828        0.057      339.689       13.192      858.453
05/07/2013  15:16:00     -366.545     -103.910      -11.747      187.698      154.561       81.330    35230.578    23889.188     6614.588       10.550        3.287      380.989       87.576        0.053      339.571       12.992      858.463
05/07/2013  15:17:00     -268.510     -160.469      -14.259      160.752      105.259       66.552    25841.124    11079.531     4429.166        6.969        2.067      312.806       75.010        0.058      339.534       12.930      858.479
05/07/2013  15:18:00     -240.512     -111.583        6.557      162.330      154.065       86.096    26350.976    23736.035     7412.501        6.391        2.875      265.136       93.281        0.124      339.527       12.917      858.453
05/07/2013  15:19:00     -238.353     -221.202        0.852      176.161      156.962       95.780    31032.651    24637.007     9173.752        8.528        3.242      325.181       97.053        0.089      339.507       12.884      858.441
05/07/2013  15:20:00     -326.640     -225.251       13.436      228.962      158.438      100.155    52423.678    25102.699    10031.055       12.257        4.378      396.777      112.771        0.081      339.443       12.777      858.414
05/07/2013  15:21:00     -355.027     -228.358      -13.569      206.596      145.432       87.721    42681.921    21150.365     7695.018       12.494        3.576      422.127      101.765        0.058      339.428       12.752      858.390
05/07/2013  15:22:00     -207.385      -97.840       -2.249      146.077      113.042       64.176    21338.480    12778.383     4118.507        4.540        1.912      229.306       52.119        0.052      339.599       13.041      858.370
05/07/2013  15:23:00     -366.361      -87.602       -6.067      173.213      112.241       77.492    30002.872    12598.123     6005.076        9.526        2.430      376.689       88.826        0.056      339.510       12.889      858.334
05/07/2013  15:24:00     -233.638     -166.864        7.900      188.052      173.333       82.593    35363.706    30044.242     6821.633        7.735        3.611      287.107      104.401        0.132      339.502       12.876      858.314
05/07/2013  15:25:00     -358.975     -181.709       -3.814      235.333      154.306       90.546    55381.855    23810.280     8198.619       12.463        4.370      402.345      119.788        0.089      339.430       12.754      858.265
05/07/2013  15:26:00     -108.459      -72.419        9.918      170.372      127.472       82.725    29026.550    16249.232     6843.456        3.460        2.606      130.414       83.289        0.408      339.511       12.894      858.225
05/07/2013  15:27:00     -188.974     -160.595        3.209      134.278      107.377       82.931    18030.582    11529.843     6877.602        4.897        1.822      247.996       79.797        0.104      339.472       12.826      858.217
05/07/2013  15:28:00     -431.218     -187.190      -15.474      197.702      187.897      103.855    39086.011    35305.129    10785.899       15.319        4.259      470.095      110.443        0.055      339.402       12.707      858.189
05/07/2013  15:29:00     -457.970     -239.743      -11.639      265.940      206.853      109.639    70723.866    42788.254    12020.631       19.642        6.277      516.926      129.277        0.063      339.321       12.570      858.142
05/07/2013  15:30:00     -436.508     -336.916      -19.916      210.137      169.566      103.750    44157.490    28752.485    10764.111       19.405        4.184      551.409      116.640        0.045      339.293       12.525      858.111
05/07/2013  15:31:00     -324.790     -232.147        4.514      207.763      177.187      122.581    43165.426    31395.401    15026.122       12.448        4.479      399.225      132.713        0.111      339.311       12.553      858.061
05/07/2013  15:32:00     -201.186     -159.360       16.257      210.625      143.587       91.349    44362.844    20617.135     8344.701        6.972        3.666      256.655      106.428        0.172      339.388       12.684      858.060
05/07/2013  15:33:00     -398.086     -275.812        4.931      240.038      188.021       95.391    57618.170    35351.902     9099.388       16.830        5.103      484.298      109.694        0.051      339.280       12.502      858.012
05/07/2013  15:34:00     -443.447     -225.360        2.925      250.020      184.170       94.821    62510.152    33918.550     8991.091       17.641        5.271      497.425      100.618        0.041      339.215       12.393      857.989
05/07/2013  15:35:00     -372.953     -142.007      -11.994      205.437      158.565       95.558    42204.470    25142.864     9131.387       11.793        3.824      399.074      112.691        0.080      339.263       12.473      857.983
05/07/2013  15:36:00     -432.520     -224.495      -10.176      299.004      204.250      116.355    89403.176    41717.983    13538.399       19.109        7.233      487.310      140.483        0.083      339.213       12.389      857.950
05/07/2013  15:37:00     -321.285     -115.872        5.904      202.863      222.670      102.333    41153.214    49581.736    10472.084       10.893        5.060      341.541      105.034        0.095      339.249       12.451      857.966
05/07/2013  15:38:00     -324.128     -278.405        6.310      272.585      186.520      116.046    74302.641    34789.566    13466.701       15.256        6.128      427.280      126.994        0.088      339.250       12.452      857.924
05/07/2013  15:39:00     -282.092     -113.334        0.597      178.879      122.062       87.404    31997.613    14899.116     7639.451        7.347        2.727      304.008       99.506        0.107      339.283       12.507      857.952
05/07/2013  15:40:00     -253.225     -161.991        1.463      176.085      142.045       90.306    31005.874    20176.718     8155.242        7.484        2.967      300.605       89.650        0.089      339.277       12.497      857.903
05/07/2013  15:41:00     -405.161     -246.036       -9.515      313.699      202.140      120.423    98406.909    40860.591    14501.798       18.925        7.688      474.014      145.712        0.094      339.227       12.413      857.872
05/07/2013  15:42:00     -597.571     -269.832      -28.473      245.592      239.476      103.610    60315.532    57348.570    10734.990       27.953        6.420      655.668      105.555        0.026      339.141       12.267      857.866
05/07/2013  15:43:00     -458.959     -200.362      -37.945      201.832      167.091       87.339    40736.309    27919.330     7628.019       16.424        3.814      500.787       94.668        0.036      339.188       12.346      857.887
05/07/2013  15:44:00     -360.216     -104.685       -8.346      224.066      163.518       96.939    50205.353    26738.132     9397.189       11.355        4.317      375.119      118.186        0.099      339.227       12.413      857.866
05/07/2013  15:45:00     -379.390     -148.375       -9.522      200.714      181.313       78.748    40286.213    32874.582     6201.194       12.269        3.968      407.372       92.673        0.052      339.223       12.405      857.912
05/07/2013  15:46:00     -389.290     -247.926       -1.540      259.744      210.076       95.727    67467.005    44132.067     9163.586       16.687        6.038      461.534      113.420        0.060      339.226       12.412      857.942
05/07/2013  15:47:00     -495.920     -219.469      -18.534      262.581      216.442      110.682    68948.999    46846.932    12250.485       21.123        6.402      542.313      135.805        0.063      339.172       12.321      857.925
05/07/2013  15:48:00     -288.111      -64.561        4.317      170.980      115.176       72.526    29234.285    13265.406     5260.017        6.747        2.388      295.256       76.173        0.067      339.273       12.491      857.936
05/07/2013  15:49:00     -327.434     -116.189       -8.160      213.589      160.442       84.550    45620.092    25741.493     7148.750        9.963        3.926      347.437       94.513        0.074      339.234       12.424      857.935
05/07/2013  15:50:00     -225.163     -206.282       -0.399      167.224      153.044       99.211    27963.935    23422.529     9842.919        7.723        3.061      305.369       82.683        0.073      339.279       12.500      857.932
05/07/2013  15:51:00     -339.625     -132.359        9.792      266.934      171.067      100.692    71253.821    29263.965    10138.923       12.179        5.533      364.506      116.295        0.102      339.223       12.406      857.913
05/07/2013  15:52:00     -302.744     -220.009       -6.897      212.487      178.069      113.945    45150.600    31708.729    12983.510       11.496        4.492      374.243      116.416        0.097      339.216       12.395      857.928
05/07/2013  15:53:00     -437.680     -174.408      -13.130      254.252      210.178      106.358    64644.204    44174.884    11312.125       17.112        6.007      471.150      122.008        0.067      339.208       12.381      857.940
05/07/2013  15:54:00     -530.985      -52.018      -40.461      253.347      153.788       97.472    64184.923    23650.667     9500.714       19.180        4.867      533.527      105.811        0.039      339.196       12.362      857.958
05/07/2013  15:55:00     -255.623     -165.584       -2.872      199.601      192.966       93.623    39840.420    37235.822     8765.194        8.929        4.292      304.567       98.636        0.105      339.243       12.439      857.945
05/07/2013  15:56:00     -441.689     -176.299       -5.020      233.085      146.467       95.067    54328.717    21452.453     9037.762       15.549        4.241      475.573      109.592        0.053      339.260       12.468      857.951
05/07/2013  15:57:00     -384.828     -217.396       -8.428      231.161      225.238      115.123    53435.194    50732.049    13253.357       15.640        5.871      441.988      109.220        0.061      339.264       12.475      857.938
05/07/2013  15:58:00     -270.103     -179.671        1.634      196.242      170.739       98.238    38510.858    29151.765     9650.688        9.126        3.866      324.403      104.879        0.105      339.313       12.558      857.950
05/07/2013  15:59:00     -337.682     -267.026        3.064      188.692      186.644      101.208    35604.511    34835.940    10243.097       13.300        4.034      430.502      101.042        0.055      339.291       12.520      857.951
05/07/2013  16:00:00     -354.732     -221.221      -21.137      177.001      130.625       76.538    31329.516    17062.837     5858.003       11.473        2.713      418.059       67.341        0.026      339.301       12.537      857.946
05/07/2013  16:01:00     -194.790      -76.764       -7.722      150.820      132.532       53.010    22746.681    17564.838     2810.057        4.350        2.156      209.370       69.188        0.109      339.387       12.682      857.966
05/07/2013  16:02:00     -175.841      -88.373       31.050      274.917      146.034       97.369    75579.584    21325.919     9480.808        7.302        5.319      196.799      124.656        0.401      339.399       12.703      857.963
05/07/2013  16:03:00     -683.176     -185.992      -35.514      250.987      211.602      101.391    62994.641    44775.454    10280.228       31.030        5.903      708.041       98.478        0.019      339.213       12.389      857.941
05/07/2013  16:04:00     -217.932      -61.024       19.008      183.733      155.053       91.378    33757.699    24041.509     8349.849        5.885        3.307      226.315       93.469        0.171      339.386       12.682      857.962
05/07/2013  16:05:00     -283.466     -163.777       -4.942      286.540      152.938       96.603    82105.233    23390.123     9332.228       11.099        5.741      327.378      142.752        0.190      339.333       12.592      858.007
05/07/2013  16:06:00     -395.835      -35.023       -8.403      310.675      196.139      113.105    96518.926    38470.400    12792.699       15.286        7.389      397.381      140.185        0.124      339.314       12.558      858.027
05/07/2013  16:07:00     -388.206      -62.965      -25.399      263.812      149.061       93.446    69596.694    22219.147     8732.103       12.791        5.027      393.279      112.114        0.081      339.352       12.622      858.042
05/07/2013  16:08:00     -199.385       19.454       20.148      263.051      159.798      108.726    69195.805    25535.548    11821.295        7.353        5.328      200.332      135.805        0.460      339.472       12.826      858.007
05/07/2013  16:09:00     -388.323     -199.097       -9.591      210.607      161.972       89.406    44355.458    26235.006     7993.380       13.454        3.929      436.388      104.610        0.057      339.383       12.675      858.087
05/07/2013  16:10:00     -406.350     -193.400      -18.481      290.858      205.038      115.741    84598.223    42040.778    13396.064       17.143        7.002      450.026      144.009        0.102      339.330       12.586      858.135
05/07/2013  16:11:00     -507.168      -63.746      -19.990      192.161      177.536       81.699    36925.717    31518.856     6674.802       16.839        3.756      511.158       86.858        0.029      339.268       12.481      858.200
05/07/2013  16:12:00     -202.553      -88.121       -3.270      161.160      151.509       69.294    25972.602    22954.986     4801.610        5.126        2.686      220.891       78.373        0.126      339.424       12.745      858.158
05/07/2013  16:13:00     -474.389     -102.787       -9.083      205.236      198.522       90.352    42121.981    39411.156     8163.478       16.268        4.485      485.397       90.659        0.035      339.354       12.627      858.110
05/07/2013  16:14:00     -381.048      -66.509       -9.283      217.736      151.221       93.336    47408.799    22867.897     8711.517       11.433        3.949      386.808      112.847        0.085      339.426       12.748      858.118
05/07/2013  16:15:00     -265.650     -166.697        7.108      249.969      159.821      106.113    62484.625    25542.636    11259.884        9.883        4.964      313.621      131.160        0.175      339.395       12.696      858.115
05/07/2013  16:16:00     -370.768     -256.798       -9.924      305.936      183.380      119.379    93597.065    33628.400    14251.459       17.247        7.074      451.015      141.314        0.098      339.329       12.585      858.132
05/07/2013  16:17:00     -325.953     -151.898      -11.113      236.765      132.364       86.143    56057.869    17520.308     7420.648       10.521        4.050      359.608       98.408        0.075      339.357       12.633      858.140
05/07/2013  16:18:00     -167.887     -155.522        7.264      190.120      135.208       73.934    36145.505    18281.293     5466.166        5.615        2.995      228.852       91.533        0.160      339.413       12.727      858.169
05/07/2013  16:19:00     -162.119     -124.406       17.293      160.544      122.308       79.794    25774.498    14959.346     6367.005        4.457        2.355      204.351       87.363        0.183      339.508       12.887      858.177
05/07/2013  16:20:00     -243.892     -154.485        2.089      145.393      101.404       62.338    21139.215    10282.747     3885.993        5.932        1.765      288.703       66.894        0.054      339.509       12.888      858.206
05/07/2013  16:21:00     -243.030     -165.462        4.781      231.459      198.651       91.216    53573.368    39462.285     8320.393        9.389        5.068      294.009      104.255        0.126      339.536       12.934      858.216
05/07/2013  16:22:00     -163.071      -90.178        3.930      169.160      153.560       78.288    28614.974    23580.793     6129.070        4.652        2.916      186.345       87.492        0.220      339.570       12.993      858.220
05/07/2013  16:23:00     -220.919      -18.378       -6.342      136.844       82.676       59.804    18726.239     6835.340     3576.490        3.916        1.457      221.682       47.718        0.046      339.719       13.242      858.217
05/07/2013  16:24:00     -553.422     -138.093      -21.059      202.546      210.014      102.950    41025.042    44105.923    10598.615       21.074        4.786      570.391      103.475        0.033      339.515       12.899      858.194
05/07/2013  16:25:00     -506.863     -158.682       -6.070      242.934      209.104      108.346    59017.014    43724.668    11738.873       19.828        5.724      531.122      122.180        0.053      339.486       12.848      858.167
05/07/2013  16:26:00     -405.016     -171.654      -17.153      239.457      165.054       97.706    57339.729    27242.849     9546.367       14.395        4.706      439.890      111.147        0.064      339.477       12.834      858.200
05/07/2013  16:27:00     -438.603      -54.478      -17.637      261.989      186.663       87.171    68638.429    34843.041     7598.774       15.335        5.554      441.973       93.003        0.044      339.660       13.141      858.205
05/07/2013  16:28:00     -287.594     -129.009        2.731      186.279      171.580       92.987    34699.719    29439.773     8646.525        8.606        3.639      315.204       90.551        0.083      339.562       12.977      858.220
05/07/2013  16:29:00     -481.619     -277.941      -26.142      258.395      147.255      101.207    66767.921    21684.115    10242.938       20.428        4.935      556.065      120.120        0.047      339.415       12.730      858.236
05/07/2013  16:30:00     -330.544     -112.341       -2.519      229.265      188.122       80.668    52562.380    35389.922     6507.361       10.816        4.723      349.113       81.418        0.054      339.608       13.055      858.257
05/07/2013  16:31:00     -421.706     -232.192       -4.840      239.533      200.363      106.281    57375.981    40145.227    11295.618       17.028        5.441      481.403      119.155        0.061      339.454       12.795      858.291
05/07/2013  16:32:00     -394.455     -200.314        4.874      245.356      179.410      116.346    60199.549    32187.983    13536.359       15.082        5.296      442.403      132.305        0.089      339.434       12.760      858.294
05/07/2013  16:33:00     -258.337     -137.332       33.915      242.453      229.597      133.267    58783.479    52715.003    17760.165       10.798        6.463      292.571      152.563        0.272      339.502       12.877      858.252
05/07/2013  16:34:00     -311.700     -112.542       -7.741      214.470      107.951       77.294    45997.429    11653.366     5974.349        8.674        3.181      331.395       98.545        0.088      339.550       12.956      858.308
05/07/2013  16:35:00     -322.465      -63.742       -4.417      201.726      193.575       92.503    40693.251    37471.239     8556.774        9.738        4.336      328.704      100.015        0.093      339.529       12.921      858.303
05/07/2013  16:36:00     -509.418     -251.951      -28.054      256.865      173.486       95.003    65979.602    30097.495     9025.659       21.442        5.255      568.319       93.805        0.027      339.418       12.735      858.273
05/07/2013  16:37:00     -436.497     -123.961       24.723      316.942      236.308      147.868   100452.273    55841.468    21864.811       19.230        8.908      453.758      177.059        0.152      339.441       12.774      858.268
05/07/2013  16:38:00     -472.483      -31.034       -8.630      255.089      187.419      102.516    65070.622    35125.859    10509.534       16.747        5.535      473.501      111.404        0.055      339.471       12.824      858.341
05/07/2013  16:39:00     -430.015     -132.982      -26.963      260.686      152.085      105.477    67957.114    23129.909    11125.398       15.275        5.111      450.108      126.361        0.079      339.395       12.694      858.351
05/07/2013  16:40:00     -381.508     -179.336       -4.999      226.386      198.435      101.658    51250.438    39376.519    10334.320       13.933        5.048      421.556      125.122        0.088      339.440       12.772      858.281
05/07/2013  16:41:00     -443.962     -156.604      -10.102      263.217      208.495      107.936    69282.998    43470.100    11650.212       17.305        6.220      470.773      112.369        0.057      339.453       12.794      858.273
05/07/2013  16:42:00     -296.814      -13.893       -3.646      258.507      139.491       88.503    66826.093    19457.786     7832.718        9.119        4.706      297.139      116.064        0.153      339.504       12.879      858.344
05/07/2013  16:43:00     -410.477     -131.971      -20.186      207.060      140.090       93.636    42873.670    19625.310     8767.640       12.878        3.563      431.170       93.490        0.047      339.470       12.822      858.296
05/07/2013  16:44:00     -415.777      -74.577      -14.844      208.223      142.567       83.010    43356.912    20325.355     6890.617       12.460        3.529      422.412      103.170        0.060      339.481       12.842      858.266
05/07/2013  16:45:00     -478.738     -162.961      -28.586      190.710      170.075      102.269    36370.325    28925.386    10458.902       16.615        3.788      505.714      104.685        0.043      339.405       12.711      858.262
05/07/2013  16:46:00     -372.073     -133.890      -16.590      192.932      155.269       83.087    37222.625    24108.437     6903.511       11.243        3.412      395.430       87.428        0.049      339.415       12.730      858.243
05/07/2013  16:47:00     -406.512     -334.490       -2.105      237.392      190.325      125.161    56355.008    36223.636    15665.229       19.267        5.412      526.436      138.171        0.069      339.385       12.678      858.218
05/07/2013  16:48:00     -353.682      -64.073       -1.329      219.236      155.792       91.332    48064.286    24271.080     8341.481       10.492        4.034      359.439       98.488        0.075      339.473       12.827      858.228
05/07/2013  16:49:00     -356.427     -209.734       -9.769      219.858      173.086       95.464    48337.517    29958.602     9113.401       12.925        4.370      413.556      108.602        0.069      339.381       12.672      858.262
05/07/2013  16:50:00     -324.773     -130.985        0.176      253.600      156.716       99.197    64312.748    24560.036     9839.965       11.066        4.936      350.193      114.907        0.108      339.356       12.629      858.258
05/07/2013  16:51:00     -328.468      -89.096        8.252      206.046      168.921      105.567    42454.989    28534.384    11144.383        9.900        4.107      340.337      104.611        0.094      339.389       12.685      858.251
05/07/2013  16:52:00     -515.335      -93.533      -12.251      180.511      168.413       96.652    32584.070    28362.802     9341.544       17.237        3.514      523.754       88.257        0.028      339.326       12.577      858.244
05/07/2013  16:53:00     -392.489      -71.061      -14.031      190.471      134.690       77.738    36279.030    18141.265     6043.229       10.987        3.023      398.870       85.609        0.046      339.358       12.633      858.209
05/07/2013  16:54:00     -258.251     -198.810        0.847      167.346      125.052       77.329    28004.719    15637.990     5979.699        7.791        2.481      325.912       82.898        0.065      339.391       12.690      858.221
05/07/2013  16:55:00     -286.347     -122.499        4.073      167.792      105.462       71.643    28154.019    11122.311     5132.746        7.071        2.220      311.449       72.230        0.054      339.402       12.708      858.195
05/07/2013  16:56:00     -352.814     -227.321      -13.441      164.982      145.367       76.526    27218.949    21131.697     5856.165       11.526        2.710      419.705       81.156        0.037      339.419       12.736      858.185
05/07/2013  16:57:00     -410.990     -251.342       -7.547      288.041      227.784      122.978    82967.547    51885.776    15123.504       19.103        7.499      481.752      143.769        0.089      339.389       12.685      858.153
05/07/2013  16:58:00     -307.621      -84.766      -18.455      183.788      151.932       78.134    33778.197    23083.456     6104.860        8.255        3.148      319.086       67.771        0.045      339.456       12.799      858.168
05/07/2013  16:59:00     -220.656     -130.770       14.994      169.148      142.455       78.651    28610.943    20293.403     6185.927        6.054        2.755      256.495       81.239        0.100      339.425       12.747      858.167
05/07/2013  17:00:00     -518.499     -191.499      -51.249      374.217      149.056      113.985   140038.162    22217.685    12992.633       24.166        8.762      552.732      155.257        0.079      339.394       12.695      858.141
05/07/2013  17:01:00     -365.115     -230.741      -22.630      216.813      165.315       93.995    47007.887    27329.020     8835.049       13.510        4.159      431.915      107.834        0.062      339.407       12.716      858.122
05/07/2013  17:02:00     -318.975     -256.522      -33.414      216.065      156.965      102.376    46683.900    24638.147    10480.873       12.522        4.090      409.327      109.370        0.071      339.389       12.686      858.100
05/07/2013  17:03:00     -328.071     -166.858       -0.115      175.925      140.237       76.915    30949.488    19666.493     5915.917        9.599        2.827      368.066       90.526        0.060      339.460       12.804      858.115
05/07/2013  17:04:00     -395.374     -234.921       -9.110      233.813      176.263      111.906    54668.596    31068.748    12522.868       15.491        4.913      459.900      131.870        0.082      339.404       12.711      858.109
05/07/2013  17:05:00     -222.439     -160.222        2.881      208.548      132.110       81.887    43492.204    17453.026     6705.454        7.139        3.383      274.136       88.084        0.103      339.448       12.784      858.094
05/07/2013  17:06:00     -205.990      -93.653       23.106      194.222      152.948       84.333    37722.343    23393.154     7112.123        5.997        3.411      226.280       90.449        0.160      339.492       12.860      858.134
05/07/2013  17:07:00     -278.355     -253.217        5.119      226.106      168.263       98.268    51123.946    28312.410     9656.590       11.534        4.455      376.298      116.087        0.095      339.467       12.816      858.136
05/07/2013  17:08:00     -283.735     -227.659        8.689      222.495      157.908       89.988    49504.044    24934.827     8097.882       10.746        4.127      363.778      107.183        0.087      339.483       12.844      858.165
05/07/2013  17:09:00     -245.866     -168.542      -12.537      188.789      115.764       66.115    35641.330    13401.214     4371.172        7.120        2.671      298.088       81.667        0.075      339.534       12.930      858.183
05/07/2013  17:10:00     -285.656      -72.860        0.763      132.856      155.074       65.368    17650.849    24047.954     4272.938        6.643        2.299      294.802       66.035        0.050      339.632       13.095      858.181
05/07/2013  17:11:00     -202.930     -139.486        8.722      183.142      197.095       71.138    33540.821    38846.362     5060.658        6.907        3.872      246.246       86.713        0.124      339.560       12.975      858.178
05/07/2013  17:12:00     -268.995      -87.327      -17.178      153.684       87.606       61.561    23618.731     7674.851     3789.711        5.768        1.754      282.815       59.970        0.045      339.614       13.064      858.184
05/07/2013  17:13:00     -145.484     -111.696       14.663      131.611       87.339       56.792    17321.543     7628.014     3225.288        3.101        1.409      183.416       62.860        0.117      339.633       13.099      858.196
05/07/2013  17:14:00     -183.801     -138.706       15.765      198.303      128.770       87.036    39324.172    16581.714     7575.183        5.837        3.174      230.265      102.045        0.196      339.588       13.022      858.196
05/07/2013  17:15:00     -374.850     -159.776       -5.398      204.285      174.885       93.056    41732.163    30584.630     8659.450       12.351        4.049      407.481      104.058        0.065      339.555       12.965      858.180
05/07/2013  17:16:00     -172.681     -184.019       18.599      196.573      157.905       94.510    38641.103    24933.858     8932.168        6.826        3.625      252.352      118.776        0.222      339.538       12.937      858.171
05/07/2013  17:17:00     -451.786     -200.629      -20.718      184.280      154.013       78.982    33958.939    23720.121     6238.120       15.434        3.196      494.331       79.842        0.026      339.521       12.908      858.171
05/07/2013  17:18:00     -288.966     -200.630        2.279      188.475      180.207       78.353    35522.799    32474.606     6139.248        9.894        3.707      351.786       86.546        0.061      339.568       12.988      858.175
05/07/2013  17:19:00     -367.389     -195.852        0.353      222.363      159.486       82.991    49445.250    25435.873     6887.554       12.754        4.088      416.333       82.083        0.039      339.539       12.938      858.181
05/07/2013  17:20:00     -197.473     -110.496       -2.633      128.222      151.840       70.946    16440.972    23055.315     5033.288        4.786        2.226      226.285       63.959        0.080      339.587       13.019      858.172
05/07/2013  17:21:00     -283.517     -104.535        5.004      201.350      205.565      100.589    40541.794    42256.960    10118.167        9.211        4.646      302.175      121.042        0.160      339.581       13.009      858.189
05/07/2013  17:22:00     -241.680     -187.475        3.853      196.906      169.666       91.873    38772.089    28786.384     8440.575        8.477        3.800      305.870       99.264        0.105      339.556       12.967      858.190
05/07/2013  17:23:00     -351.909     -113.591       -7.982      186.660      131.031       77.596    34842.105    17169.157     6021.119        9.741        2.902      369.787       79.138        0.046      339.519       12.905      858.196
05/07/2013  17:24:00     -256.549      -80.685        0.341      163.037      110.864       67.172    26581.152    12290.859     4512.022        5.785        2.169      268.938       81.499        0.092      339.601       13.041      858.219
05/07/2013  17:25:00     -212.081     -160.842       -4.375      162.501       92.105       58.426    26406.420     8483.399     3413.605        5.458        1.915      266.173       65.201        0.060      339.543       12.945      858.235
05/07/2013  17:26:00     -186.515     -130.338        8.447      161.469      118.334       80.242    26072.312    14002.976     6438.735        4.917        2.326      227.543       87.955        0.149      339.552       12.960      858.211
05/07/2013  17:27:00     -278.789     -264.514       -6.024      165.276      161.014       88.429    27316.294    25925.585     7819.747       10.438        3.053      384.306       97.884        0.065      339.527       12.917      858.177
05/07/2013  17:28:00     -204.577     -170.208       -7.382      152.314      133.081       81.380    23199.497    17710.421     6622.783        5.920        2.377      266.125       89.915        0.114      339.544       12.946      858.178
05/07/2013  17:29:00     -451.165     -184.146      -31.212      165.845      143.838       77.884    27504.437    20689.374     6065.938       14.634        2.713      487.299       67.158        0.019      339.498       12.869      858.185
05/07/2013  17:30:00     -442.158     -203.206      -24.578      196.200      158.362       75.811    38494.552    25078.628     5747.381       15.335        3.466      486.618       81.695        0.028      339.450       12.787      858.184
05/07/2013  17:31:00     -243.365     -202.002        2.747      158.852      109.395       71.105    25233.941    11967.289     5055.883        7.114        2.113      316.277       75.916        0.058      339.447       12.784      858.196
05/07/2013  17:32:00     -311.703     -252.376       -4.866      198.884      163.253       98.923    39554.854    26651.518     9785.768       11.842        3.800      401.064      109.794        0.075      339.401       12.705      858.182
05/07/2013  17:33:00     -285.868     -191.225        0.932      189.977      144.597       90.770    36091.260    20908.151     8239.175        9.175        3.262      343.930       96.953        0.079      339.404       12.711      858.183
05/07/2013  17:34:00     -395.151     -220.512      -19.410      212.262      154.923       82.791    45055.062    24001.106     6854.347       14.052        3.796      452.515      100.261        0.049      339.432       12.759      858.196
05/07/2013  17:35:00     -301.029     -151.166       -7.253      170.433      139.217       74.498    29047.341    19381.507     5549.929        8.374        2.699      336.852       81.201        0.058      339.439       12.769      858.213
05/07/2013  17:36:00     -182.370      -94.998       -7.720      121.236      122.686       70.189    14698.056    15051.809     4926.467        3.850        1.734      205.629       67.077        0.106      339.521       12.908      858.236
05/07/2013  17:37:00     -353.740      -74.556      -32.550      205.356      173.196       74.323    42171.133    29996.890     5523.870       10.471        3.885      361.511       89.261        0.061      339.569       12.988      858.242
05/07/2013  17:38:00     -364.368     -120.623      -14.007      174.663      140.611       84.142    30507.174    19771.456     7079.867       10.242        2.868      383.815       94.802        0.061      339.451       12.789      858.236
05/07/2013  17:39:00     -357.534     -143.213      -28.822      156.359      131.298       62.798    24448.130    17239.045     3943.554        9.739        2.282      385.150       61.616        0.026      339.495       12.863      858.251
05/07/2013  17:40:00     -291.845     -173.087      -18.710      130.820      112.867       71.973    17113.746    12739.050     5180.136        7.525        1.752      339.312       73.406        0.047      339.480       12.838      858.234
05/07/2013  17:41:00     -227.623      -50.345      -15.187      113.293      101.858       59.700    12835.293    10375.020     3564.101        4.067        1.339      233.124       40.232        0.030      339.533       12.928      858.229
05/07/2013  17:42:00     -242.470      -55.594        0.050      189.417      113.067       67.606    35878.969    12784.081     4570.552        5.755        2.662      248.762       82.854        0.111      339.614       13.065      858.218
05/07/2013  17:43:00     -334.771     -170.906        3.462      185.954      138.373       82.770    34579.058    19147.158     6850.853       10.092        3.029      375.873       95.651        0.065      339.488       12.851      858.200
05/07/2013  17:44:00     -307.529     -142.402       -9.570      174.777      130.385       84.385    30547.080    17000.364     7120.820        8.480        2.733      338.899       97.806        0.083      339.498       12.867      858.191
05/07/2013  17:45:00     -260.232     -135.661        9.163      169.625      142.188       83.495    28772.654    20217.346     6971.410        7.108        2.798      293.470       89.503        0.093      339.524       12.913      858.187
05/07/2013  17:46:00     -334.226      -95.101       -9.202      196.228      125.160       74.970    38505.256    15665.038     5620.566        9.030        2.990      347.493       90.696        0.068      339.499       12.871      858.169
05/07/2013  17:47:00     -263.923      -58.119       -5.082      169.620      150.358       64.810    28771.081    22607.495     4200.354        6.431        2.779      270.247       69.721        0.067      339.549       12.955      858.157
05/07/2013  17:48:00     -429.638     -152.960      -22.621      246.106      155.955       74.753    60568.154    24321.924     5588.085       14.947        4.524      456.055       72.596        0.025      339.476       12.831      858.133
05/07/2013  17:49:00     -368.528     -128.739      -29.270      165.198      140.261       82.356    27290.232    19673.166     6782.459       10.349        2.687      390.367       95.168        0.059      339.500       12.873      858.117
05/07/2013  17:50:00     -142.788      -69.119        9.183      140.486       82.924       71.413    19736.339     6876.423     5099.759        2.848        1.586      158.637       62.883        0.157      339.541       12.942      858.107
05/07/2013  17:51:00     -297.475     -184.807      -11.732      144.981      120.825       77.144    21019.415    14598.631     5951.263        8.217        2.078      350.207       79.704        0.052      339.513       12.894      858.129
05/07/2013  17:52:00     -406.711     -151.329      -17.859      153.894      126.938       82.499    23683.478    16113.165     6806.146       11.761        2.330      433.952       77.965        0.032      339.506       12.882      858.164
05/07/2013  17:53:00     -275.422      -96.906       -5.019      188.777      150.051       96.337    35636.890    22515.372     9280.897        7.634        3.372      291.973      103.163        0.125      339.516       12.899      858.153
05/07/2013  17:54:00     -396.400      -45.676      -18.387      164.034      132.962       87.346    26907.117    17678.931     7629.408       10.588        2.611      399.023       80.894        0.041      339.565       12.982      858.194
05/07/2013  17:55:00     -430.073      -40.387      -21.713      188.881      165.592       85.276    35675.884    27420.697     7272.019       12.871        3.518      431.965       94.093        0.047      339.553       12.963      858.198
05/07/2013  17:56:00     -524.857     -114.269      -34.298      140.196      152.388       79.072    19654.816    23222.195     6252.339       16.941        2.456      537.152       74.504        0.019      339.491       12.857      858.224
05/07/2013  17:57:00     -328.419      -48.661       11.192      188.086      127.767       69.680    35376.407    16324.473     4855.262        8.344        2.828      332.004       80.974        0.059      339.583       13.011      858.237
05/07/2013  17:58:00     -288.286      -50.765       -7.884      201.899      102.329       77.533    40763.063    10471.261     6011.328        7.149        2.862      292.721       99.634        0.116      339.520       12.907      858.253
05/07/2013  17:59:00     -168.996     -122.723       -5.123      104.723       89.344       54.273    10967.011     7982.291     2945.579        3.277        1.095      208.855       48.964        0.055      339.540       12.939      858.251
05/07/2013  18:00:00     -236.215      -60.222      -13.434      132.962       71.844       60.821    17678.792     5161.585     3699.171        4.307        1.327      243.771       69.640        0.082      339.544       12.946      858.253
05/07/2013  18:01:00     -260.678      -70.753       -2.830      152.435      110.598       60.584    23236.322    12231.961     3670.379        5.605        1.957      270.110       66.930        0.061      339.624       13.081      858.255
05/07/2013  18:02:00     -331.092     -135.603      -20.683      146.493      156.700       82.824    21460.276    24554.928     6859.898        9.065        2.644      357.785       75.681        0.045      339.536       12.933      858.260
05/07/2013  18:03:00     -212.320      -70.440        0.948      154.021      132.205       69.986    23722.497    17478.095     4898.084        4.806        2.305      223.700       58.962        0.069      339.546       12.950      858.235
05/07/2013  18:04:00     -248.950      -84.489       -0.259      220.879      153.478       89.191    48787.455    23555.406     7955.102        7.469        4.015      262.897      103.552        0.155      339.607       13.053      858.251
05/07/2013  18:05:00     -418.505     -195.563      -22.719      171.628      105.594       78.481    29456.032    11150.050     6159.323       13.033        2.338      461.943       92.643        0.040      339.501       12.873      858.258
05/07/2013  18:06:00     -357.336     -110.722      -15.214      184.173      106.062       68.831    33919.759    11249.053     4737.672        9.503        2.495      374.097       74.252        0.039      339.496       12.865      858.274
05/07/2013  18:07:00     -367.019      -43.157      -13.827      157.917      130.008       71.179    24937.875    16902.104     5066.469        9.182        2.345      369.548       75.051        0.041      339.530       12.924      858.255
05/07/2013  18:08:00     -155.277      -14.335        2.245      138.227       93.840       65.323    19106.592     8805.913     4267.153        2.825        1.609      155.937       61.114        0.154      339.634       13.100      858.265
05/07/2013  18:09:00     -180.739     -105.053       -1.488      149.501      162.822       65.104    22350.529    26511.021     4238.521        4.839        2.655      209.052       53.582        0.066      339.565       12.983      858.243
05/07/2013  18:10:00     -157.444      -65.572        3.126      123.474      151.441       66.213    15245.863    22934.493     4384.110        3.582        2.128      170.553       64.152        0.141      339.655       13.135      858.254
05/07/2013  18:11:00     -241.750     -167.492        6.294      226.787      176.633      108.449    51432.394    31199.313    11761.139        9.045        4.720      294.103      121.220        0.170      339.446       12.784      858.247
05/07/2013  18:12:00      -75.220      -63.904       17.380      157.777      121.568       70.409    24893.513    14778.899     4957.389        2.733        2.231       98.700       84.219        0.728      339.523       12.913      858.273
05/07/2013  18:13:00     -260.988      -91.175        4.447      159.334      109.674       67.662    25387.231    12028.443     4578.180        5.921        2.100      276.455       71.407        0.067      339.490       12.856      858.310
05/07/2013  18:14:00     -177.310      -59.970       -6.410      111.387       84.579       46.936    12406.992     7153.598     2202.942        2.842        1.088      187.177       41.162        0.048      339.435       12.765      858.315
05/07/2013  18:15:00     -200.391      -73.844       -9.167      113.197       90.476       51.165    12813.631     8185.950     2617.863        3.465        1.181      213.564       47.147        0.049      339.445       12.781      858.340
05/07/2013  18:16:00     -316.586     -101.255       -0.838      107.984      122.713       59.984    11660.473    15058.467     3598.040        7.039        1.516      332.385       57.338        0.030      339.457       12.797      858.367
05/07/2013  18:17:00     -427.277      -58.021      -13.652      182.176      118.244       76.626    33188.020    13981.665     5871.511       11.957        2.652      431.198       81.238        0.035      339.352       12.623      858.366
05/07/2013  18:18:00     -382.288      -24.020      -12.985      175.762      134.041       80.975    30892.178    17966.929     6556.969       10.114        2.771      383.042       81.204        0.045      339.437       12.767      858.366
05/07/2013  18:19:00     -395.840     -100.669      -26.510      216.214      145.110       68.804    46748.536    21057.042     4734.038       12.002        3.627      408.440       78.437        0.037      339.312       12.557      858.364
05/07/2013  18:20:00     -292.500      -94.518       -5.313      155.649      121.927       63.547    24226.603    14866.145     4038.230        6.882        2.157      307.392       75.039        0.060      339.366       12.648      858.392
05/07/2013  18:21:00     -211.425      -13.806       -1.166      138.253      109.998       56.796    19113.960    12099.516     3225.794        3.966        1.722      211.876       66.168        0.098      339.405       12.712      858.411
05/07/2013  18:22:00     -394.721      -59.593      -18.188      149.445      156.127       73.835    22333.735    24375.626     5451.584       10.592        2.608      399.194       83.059        0.043      339.371       12.655      858.426
05/07/2013  18:23:00     -269.985     -150.636       12.990      142.355      162.446       78.777    20265.050    26388.834     6205.843        7.430        2.643      309.165       81.908        0.070      339.378       12.667      858.443
05/07/2013  18:24:00     -380.715     -119.243      -13.901      247.687      133.054       75.112    61349.026    17703.380     5641.830       12.201        4.235      398.952       94.303        0.056      339.301       12.537      858.458
05/07/2013  18:25:00     -263.788     -104.235        8.865      202.847      161.553       93.963    41146.834    26099.275     8829.096        7.829        3.804      283.636      119.858        0.179      339.256       12.462      858.447
05/07/2013  18:26:00     -246.447      -21.128       -3.882      147.459       84.349       50.490    21744.275     7114.816     2549.290        4.630        1.570      247.351       59.770        0.058      339.267       12.482      858.489
05/07/2013  18:27:00     -144.568      -37.085       -0.619       97.654       87.585       45.737     9536.247     7671.078     2091.847        2.078        0.965      149.249       47.969        0.103      339.350       12.622      858.475
05/07/2013  18:28:00     -287.385     -143.366      -17.620      165.521      154.347       81.658    27397.211    23822.911     6667.973        8.066        2.894      321.160       78.345        0.060      339.193       12.357      858.442
05/07/2013  18:29:00     -254.833     -117.704       -8.516      151.050      114.169       62.824    22816.208    13034.647     3946.817        5.933        1.990      280.703       59.079        0.044      339.238       12.431      858.445
05/07/2013  18:30:00     -450.116      -71.193       -7.401      216.831      151.941       89.272    47015.651    23086.047     7969.544       14.289        3.904      455.712       81.107        0.032      339.241       12.437      858.451
05/07/2013  18:31:00     -236.437       17.477        7.960      126.631       96.023       66.458    16035.355     9220.413     4416.730        4.297        1.484      237.082       61.643        0.068      339.324       12.575      858.435
05/07/2013  18:32:00     -335.356     -118.497       -4.846      180.356      112.546       80.745    32528.198    12666.569     6519.809        8.911        2.586      355.676       89.198        0.063      339.194       12.358      858.427
05/07/2013  18:33:00     -312.697     -116.270       -0.530      171.813      132.114       63.991    29519.615    17454.149     4094.791        8.117        2.553      333.613       70.775        0.045      339.182       12.338      858.417
05/07/2013  18:34:00     -281.709      -88.732      -14.013      141.336       99.393       56.862    19975.836     9879.065     3233.268        6.025        1.654      295.353       60.974        0.043      339.214       12.392      858.422
05/07/2013  18:35:00     -334.957     -104.397      -15.112      220.754      123.881       71.023    48732.234    15346.560     5044.257        9.621        3.456      350.849       89.080        0.064      339.217       12.396      858.441
05/07/2013  18:36:00     -262.807     -132.191       -1.610      173.180      147.498       67.382    29991.231    21755.554     4540.292        7.141        2.814      294.180       72.728        0.061      339.234       12.425      858.439
05/07/2013  18:37:00     -635.116      -41.900      -50.625      161.861      122.304       83.934    26199.025    14958.366     7044.919       22.794        2.410      636.496       90.923        0.020      339.263       12.473      858.434
05/07/2013  18:38:00     -225.026      -28.248       -2.660      136.833      130.676       74.817    18723.359    17076.265     5597.595        4.641        2.070      226.792       66.326        0.086      339.379       12.669      858.425
05/07/2013  18:39:00     -146.877      -77.373       11.926       93.292       78.254       50.223     8703.323     6123.693     2522.337        2.252        0.867      166.011       50.341        0.092      339.330       12.588      858.429
05/07/2013  18:40:00     -199.389     -162.440       -8.781      161.502      114.966       59.451    26082.793    13217.291     3534.408        5.452        2.142      257.182       74.003        0.083      339.272       12.489      858.431
05/07/2013  18:41:00     -213.526     -164.988       -3.597      150.197      165.529       87.932    22559.253    27399.894     7732.033        6.525        2.885      269.841       89.473        0.110      339.243       12.441      858.421
05/07/2013  18:42:00     -328.820      -73.680       -4.042      126.056      112.039       74.868    15890.081    12552.655     5605.259        7.380        1.702      336.974       73.239        0.047      339.257       12.463      858.406
05/07/2013  18:43:00     -153.543      -59.461        9.589      163.391      157.468       69.233    26696.482    24796.018     4793.264        4.174        2.814      164.655       73.324        0.198      339.286       12.513      858.422
05/07/2013  18:44:00     -262.581     -190.354       10.953      198.546      179.222       98.227    39420.671    32120.677     9648.580        9.323        4.059      324.320      111.954        0.119      339.146       12.277      858.395
05/07/2013  18:45:00     -283.225     -185.365       -4.306      134.858      112.866       76.924    18186.663    12738.690     5917.274        7.571        1.842      338.492       73.002        0.047      339.133       12.254      858.407
05/07/2013  18:46:00     -302.044     -189.034      -12.996      192.182      172.462       93.317    36933.802    29743.199     8708.125       10.125        3.769      356.321       97.766        0.075      339.071       12.150      858.398
05/07/2013  18:47:00     -298.717     -256.211       -1.300      182.450      151.268       92.374    33287.846    22882.036     8532.899       10.978        3.235      393.543       92.905        0.056      339.022       12.067      858.394
05/07/2013  18:48:00     -367.964     -153.481      -25.283      154.005      150.152       70.523    23717.622    22545.582     4973.552       10.541        2.562      398.690       68.096        0.029      339.002       12.035      858.404
05/07/2013  18:49:00     -369.393     -163.171       -8.164      200.337      150.056       88.607    40134.726    22516.780     7851.155       11.681        3.525      403.827       95.664        0.056      338.962       11.968      858.402
05/07/2013  18:50:00     -322.008     -209.937      -14.848      188.202      159.030       97.963    35420.155    25290.460     9596.806       10.913        3.515      384.399       97.967        0.065      338.893       11.851      858.371
05/07/2013  18:51:00     -263.852     -177.775       -1.499      175.543      158.106       96.246    30815.478    24997.659     9263.296        8.314        3.254      318.154       97.578        0.094      338.896       11.855      858.374
05/07/2013  18:52:00     -274.328     -195.846        0.369      261.211      188.336      112.175    68231.300    35470.385    12583.126       11.493        5.814      337.063      119.944        0.127      338.890       11.847      858.353
05/07/2013  18:53:00     -328.426        8.434        7.986      278.633      158.610       78.694    77636.430    25157.264     6192.731       10.847        5.449      328.534      117.065        0.127      338.882       11.833      858.352
05/07/2013  18:54:00     -418.406     -154.140       -7.056      263.937      174.768       83.603    69662.603    30543.743     6989.429       15.302        5.360      445.895       98.177        0.048      338.863       11.800      858.353
05/07/2013  18:55:00     -508.628     -200.312      -18.816      185.130      217.644       95.740    34273.126    47369.075     9166.071       19.498        4.540      546.651       98.253        0.032      338.824       11.736      858.341
05/07/2013  18:56:00     -281.955     -164.709        9.957      200.541      149.186       97.639    40216.611    22256.552     9533.397        8.935        3.600      326.539      110.207        0.114      338.763       11.633      858.346
05/07/2013  18:57:00     -344.158     -162.737       -1.880      197.885      137.006       89.746    39158.362    18770.572     8054.402       10.545        3.299      380.694       87.001        0.052      338.737       11.589      858.331
05/07/2013  18:58:00     -376.479     -226.466      -21.114      177.434      147.633       93.632    31482.706    21795.560     8766.951       12.775        3.102      439.344       92.492        0.044      338.709       11.542      858.319
05/07/2013  18:59:00     -294.035     -135.697       -0.595      192.893      153.485       95.351    37207.583    23557.685     9091.838        8.735        3.493      323.836      101.304        0.098      338.688       11.505      858.321
05/07/2013  19:00:00     -288.827     -180.685        1.128      284.468      185.792      111.401    80922.129    34518.732    12410.274       12.194        6.393      340.688      142.004        0.174      338.690       11.510      858.324
05/07/2013  19:01:00     -313.303     -191.008       -2.948      266.242      174.502      105.632    70884.945    30450.854    11158.159       12.355        5.625      366.937      133.804        0.133      338.660       11.459      858.307
05/07/2013  19:02:00     -365.621     -225.731       -0.182      212.317      165.078       82.907    45078.685    27250.596     6873.581       13.190        3.960      429.689       84.669        0.039      338.626       11.401      858.321
05/07/2013  19:03:00     -377.052     -217.977      -18.917      207.232      153.322       87.751    42945.272    23507.521     7700.317       13.208        3.708      435.525      114.743        0.069      338.628       11.406      858.334
05/07/2013  19:04:00     -297.241      -75.695      -33.245      249.747      150.553       74.454    62373.793    22666.098     5543.402        9.287        4.529      306.727       97.537        0.101      338.637       11.420      858.317
05/07/2013  19:05:00     -371.828      -45.348      -11.583      171.426      124.437       75.053    29386.952    15484.555     5632.964        9.547        2.525      374.583       85.806        0.052      338.598       11.356      858.318
05/07/2013  19:06:00     -310.519     -117.558       -4.855      186.439      151.110       69.941    34759.686    22834.220     4891.735        8.636        3.124      332.027       83.768        0.064      338.597       11.354      858.310
05/07/2013  19:07:00     -249.077     -112.560       -8.747      150.706      115.511       53.272    22712.184    13342.747     2837.914        5.683        1.945      273.330       57.052        0.044      338.622       11.395      858.312
05/07/2013  19:08:00     -258.271      -59.827       -9.896      161.431      155.748       72.445    26060.005    24257.492     5248.248        6.296        2.778      265.110       62.694        0.056      338.613       11.381      858.312
05/07/2013  19:09:00     -359.622     -121.009       -2.137      188.364      156.989       78.491    35480.883    24645.636     6160.796       10.512        3.314      379.435       81.342        0.046      338.596       11.352      858.320
05/07/2013  19:10:00     -387.423     -122.016      -18.123      215.012      164.175       90.320    46229.967    26953.423     8157.755       12.331        4.067      406.183       86.501        0.045      338.595       11.351      858.320
05/07/2013  19:11:00     -268.233      -15.672        1.979      177.094      129.274       79.306    31362.434    16711.670     6289.456        6.327        2.718      268.691       78.963        0.086      338.604       11.366      858.314
05/07/2013  19:12:00     -253.852      -77.415      -23.583      201.718      139.712       82.372    40690.033    19519.354     6785.171        6.898        3.350      265.394      103.027        0.151      338.605       11.368      858.323
05/07/2013  19:13:00     -274.843     -115.549       -3.828      196.193      156.728       86.961    38491.539    24563.794     7562.188        7.975        3.531      298.144       87.327        0.086      338.587       11.338      858.343
05/07/2013  19:14:00     -339.558     -144.182      -17.203      181.071      137.441       69.006    32786.842    18890.161     4761.866        9.640        2.822      368.901       69.319        0.035      338.566       11.302      858.369
05/07/2013  19:15:00     -170.005      -84.092        2.652       97.057      101.610       58.540     9420.127    10324.571     3426.913        2.957        1.159      189.666       57.418        0.092      338.581       11.328      858.387
05/07/2013  19:16:00     -261.900     -130.813      -18.659      123.437      179.458       74.500    15236.632    32205.081     5550.296        6.951        2.650      292.752       61.923        0.045      338.583       11.330      858.403
05/07/2013  19:17:00     -144.027        0.348       -4.934      110.151       71.618       44.263    12133.138     5129.206     1959.196        1.999        0.961      144.027       34.619        0.058      338.597       11.355      858.421
05/07/2013  19:18:00     -384.844      -71.705      -14.760      137.153      104.305       66.972    18810.871    10879.561     4485.271        9.381        1.709      391.467       68.907        0.031      338.542       11.261      858.480
05/07/2013  19:19:00     -313.034      -30.247      -22.136      101.468       99.656       50.462    10295.816     9931.398     2546.455        6.108        1.139      314.492       49.074        0.024      338.547       11.271      858.482
05/07/2013  19:20:00     -280.112       41.410      -24.523      157.592       93.933       58.443    24835.287     8823.369     3415.583        5.892        1.854      283.156       56.143        0.039      338.527       11.236      858.483
05/07/2013  19:21:00     -239.625      -46.289      -15.581      155.292       94.760       58.032    24115.506     8979.419     3367.691        4.813        1.823      244.055       73.154        0.090      338.532       11.246      858.502
05/07/2013  19:22:00     -315.355      -59.599        0.117      228.394      135.200       78.162    52163.810    18278.916     6109.270        8.976        3.828      320.938      100.571        0.098      338.515       11.217      858.536
05/07/2013  19:23:00     -437.183      -67.953      -13.309      184.366      180.482       95.776    33990.961    32573.717     9173.089       13.582        3.787      442.433      103.860        0.055      338.494       11.181      858.578
05/07/2013  19:24:00     -438.152      -28.238      -36.626      182.311      154.381       76.465    33237.411    23833.488     5846.936       12.851        3.146      439.061       80.434        0.034      338.483       11.160      858.614
05/07/2013  19:25:00     -411.619        6.246      -39.395      212.006      137.393       72.530    44946.500    18876.922     5260.639       12.004        3.454      411.666       80.265        0.038      338.459       11.121      858.656
05/07/2013  19:26:00     -537.186       84.946      -56.027      134.115      130.856       68.411    17986.870    17123.275     4680.054       16.935        1.990      543.861       66.657        0.015      338.474       11.145      858.681
05/07/2013  19:27:00     -399.043       53.171      -25.648      176.806      119.181       72.979    31260.375    14204.050     5325.887       10.675        2.540      402.570       80.128        0.040      338.454       11.112      858.638
05/07/2013  19:28:00     -165.947      -87.672       -2.745      126.023       72.849       50.281    15881.729     5306.963     2528.178        2.947        1.186      187.683       45.293        0.058      338.432       11.076      858.658
05/07/2013  19:29:00     -421.654     -103.803      -19.190      173.240      151.495       74.470    30012.084    22950.664     5545.769       12.371        2.925      434.243       70.169        0.026      338.397       11.018      858.709
05/07/2013  19:30:00     -380.345      -12.136      -33.619      139.575      124.747       59.072    19481.267    15561.814     3489.506        9.223        1.927      380.539       60.153        0.025      338.411       11.040      858.740
05/07/2013  19:31:00     -386.380      -77.230       -8.631      118.995      117.344       63.355    14159.855    13769.639     4013.808        9.363        1.597      394.022       59.741        0.023      338.401       11.024      858.761
05/07/2013  19:32:00     -237.108       44.518       -5.973      193.925      121.260       67.803    37607.050    14703.878     4597.190        5.756        2.845      241.251       75.455        0.098      338.452       11.110      858.799
05/07/2013  19:33:00      -84.689      162.246       -9.394       73.132       96.884       59.789     5348.282     9386.597     3574.726        2.594        0.915      183.019       46.764        0.065      338.462       11.126      858.747
05/07/2013  19:34:00      -81.058       70.845       12.243      102.336      141.612       66.990    10472.692    20053.937     4487.701        2.337        1.751      107.654       54.610        0.257      338.480       11.159      858.774
05/07/2013  19:35:00     -223.364      -48.999       -3.600      175.740       90.469       65.344    30884.549     8184.714     4269.799        4.781        2.167      228.675       74.417        0.106      338.385       10.999      858.877
05/07/2013  19:36:00     -305.634      -70.163        0.857      187.869      123.492       81.926    35294.738    15250.354     6711.806        7.779        2.863      313.584       82.956        0.070      338.424       11.062      858.864
05/07/2013  19:37:00     -295.726      -70.335      -24.321      158.486      122.923       72.194    25117.742    15110.023     5211.920        6.921        2.272      303.975       79.238        0.068      338.448       11.102      858.912
05/07/2013  19:38:00     -287.913       -6.596      -15.350      130.696      118.377       62.416    17081.549    14013.194     3895.745        5.908        1.750      287.988       61.702        0.046      338.447       11.101      858.920
05/07/2013  19:39:00     -273.145      -52.370       -7.196      162.886      110.471       62.359    26531.882    12203.952     3888.669        6.001        2.131      278.121       70.407        0.064      338.457       11.118      858.894
05/07/2013  19:40:00     -487.245      -82.473      -21.969      173.932      121.247       71.276    30252.429    14700.830     5080.234       14.735        2.502      494.175       68.760        0.019      338.444       11.095      858.895
05/07/2013  19:41:00     -374.753      -84.122      -28.594      115.438      118.085       59.040    13325.983    13943.992     3485.739        8.954        1.538      384.079       12.739        0.001      338.425       11.064      858.912
05/07/2013  19:42:00     -226.600      -75.558        5.049      148.179      106.544       61.236    21956.981    11351.593     3749.797        4.706        1.853      238.865       70.680        0.088      338.416       11.051      858.903
05/07/2013  19:43:00     -245.467      -57.054       -6.104       91.830       94.938       49.817     8432.753     9013.192     2481.739        4.173        0.996      252.010       47.279        0.035      338.418       11.052      858.891
05/07/2013  19:44:00     -240.392      -18.149      -11.460      183.618      117.507       50.387    33715.673    13807.980     2538.888        5.415        2.503      241.076       54.875        0.052      338.422       11.060      858.846
05/07/2013  19:45:00     -276.725      -46.662      -21.660      149.849      104.711       63.280    22454.584    10964.434     4004.374        5.832        1.871      280.632       70.740        0.064      338.412       11.041      858.880
05/07/2013  19:46:00     -252.375      -50.041       -4.428      155.977      110.060       73.422    24328.706    12113.301     5390.819        5.402        2.092      257.288       80.605        0.098      338.431       11.074      858.827
05/07/2013  19:47:00     -271.767        3.328        8.784      178.225      109.732       61.700    31764.147    12041.090     3806.886        6.077        2.381      271.787       71.092        0.068      338.421       11.058      858.804
05/07/2013  19:48:00     -316.605      -10.735      -20.017      106.239      113.544       57.529    11286.743    12892.127     3309.569        6.412        1.374      316.787       56.039        0.031      338.413       11.043      858.814
05/07/2013  19:49:00     -209.300     -103.479      -12.025      146.049      132.311       70.691    21330.337    17506.234     4997.272        4.924        2.192      233.483       83.194        0.127      338.439       11.089      858.775
05/07/2013  19:50:00     -224.567      -92.522       -7.617      115.886       90.969       58.214    13429.556     8275.304     3388.896        4.207        1.255      242.880       63.770        0.069      338.428       11.070      858.780
05/07/2013  19:51:00      -73.099        1.873       16.652      106.599       74.148       49.198    11363.452     5497.924     2420.439        1.245        0.964       73.123       57.804        0.625      338.436       11.086      858.746
05/07/2013  19:52:00     -303.691      -24.023      -23.675      191.527      116.706       63.081    36682.590    13620.333     3979.221        7.382        2.714      304.640       79.751        0.069      338.438       11.085      858.749
05/07/2013  19:53:00     -279.059     -123.166      -11.221      179.148      106.340       57.805    32094.082    11308.190     3341.385        6.995        2.337      305.030       77.671        0.065      338.453       11.112      858.748
05/07/2013  19:54:00     -299.369     -128.058      -13.327      127.770      155.252       84.858    16325.259    24103.157     7200.928        7.691        2.381      325.608       72.481        0.050      338.492       11.176      858.756
05/07/2013  19:55:00     -228.457     -142.088        1.897      154.597      179.084       88.659    23900.156    32070.957     7860.499        6.810        3.192      269.039       93.481        0.121      338.498       11.187      858.724
05/07/2013  19:56:00     -276.676      -24.371      -11.769      187.786      135.044       83.776    35263.614    18236.805     7018.349        6.889        3.026      277.747      100.892        0.132      338.523       11.230      858.749
05/07/2013  19:57:00     -238.712      -88.487        4.579      202.191      109.611       75.535    40881.382    12014.618     5705.508        6.171        2.930      254.584       90.458        0.126      338.510       11.210      858.757
05/07/2013  19:58:00     -313.659     -105.726      -20.875       88.406       95.520       58.920     7815.549     9123.994     3471.621        6.520        1.021      330.999       52.974        0.026      338.492       11.176      858.767
05/07/2013  19:59:00     -278.966      -67.555       -5.516      206.151      134.012       64.142    42498.259    17959.087     4114.177        7.348        3.229      287.029       81.956        0.082      338.495       11.182      858.794
05/07/2013  20:00:00     -180.939      -37.867       -1.582      126.298       82.243       52.966    15951.097     6763.939     2805.424        2.984        1.276      184.859       61.327        0.110      338.493       11.181      858.804
05/07/2013  20:01:00     -474.197      -46.184      -49.895      163.652      104.443       63.808    26781.935    10908.325     4071.462       13.562        2.088      476.440       66.951        0.020      338.506       11.200      858.798
05/07/2013  20:02:00     -341.658      -62.367      -18.960      150.378      110.507       57.332    22613.414    12211.728     3287.011        7.954        1.906      347.303       63.136        0.033      338.489       11.172      858.773
05/07/2013  20:03:00     -174.607      -46.651      -17.162      131.890       84.098       49.104    17394.848     7072.414     2411.218        2.991        1.344      180.731       37.614        0.043      338.503       11.197      858.758
05/07/2013  20:04:00     -337.482     -141.043        5.740      151.383      129.713       77.439    22916.907    16825.569     5996.789        8.977        2.287      365.770       76.812        0.044      338.481       11.158      858.734
05/07/2013  20:05:00     -428.765     -120.762       -6.222      173.077      121.582       72.632    29955.642    14782.193     5275.426       12.423        2.501      445.447       88.485        0.039      338.507       11.202      858.787
05/07/2013  20:06:00     -295.152     -158.226        1.742      162.507      113.893       84.648    26408.516    12971.602     7165.231        7.934        2.327      334.889       81.775        0.060      338.544       11.265      858.785
05/07/2013  20:07:00     -283.803     -106.965      -11.377      148.423      148.526       75.366    22029.240    22059.910     5680.007        7.093        2.488      303.292       60.461        0.040      338.544       11.266      858.784
05/07/2013  20:08:00     -212.303      -47.654      -15.876      138.299       86.999       54.255    19126.517     7568.908     2943.560        3.861        1.482      217.585       55.952        0.066      338.536       11.251      858.797
05/07/2013  20:09:00     -343.947     -128.939       -5.770      180.280      118.817       76.206    32500.805    14117.465     5807.416        9.368        2.621      367.321       75.410        0.042      338.520       11.224      858.785
05/07/2013  20:10:00     -682.269      -15.376      -62.712      131.321      163.134       69.367    17245.330    26612.597     4811.806       25.916        2.433      682.442       53.660        0.006      338.510       11.206      858.819
05/07/2013  20:11:00     -264.950      -35.011      -35.644      111.203      128.901       51.907    12366.015    16615.432     2694.360        5.218        1.584      267.253       44.422        0.028      338.510       11.208      858.792
05/07/2013  20:12:00     -273.049      -85.598       -8.411      100.873       86.846       49.723    10175.266     7542.231     2472.332        5.107        1.009      286.151       42.236        0.022      338.520       11.224      858.745
05/07/2013  20:13:00     -313.559      -22.236      -16.309      147.013       94.730       49.177    21612.791     8973.858     2418.350        6.604        1.650      314.346       63.739        0.041      338.497       11.185      858.830
05/07/2013  20:14:00     -244.411      -22.996      -23.211      185.635      137.406       60.924    34460.214    18880.357     3711.742        5.892        2.853      245.491       67.255        0.075      338.516       11.220      858.856
05/07/2013  20:15:00     -293.193      -80.307        0.026      219.287      170.556       79.047    48086.691    29089.375     6248.369        8.790        4.171      303.992       96.760        0.101      338.550       11.277      858.859
05/07/2013  20:16:00     -346.796     -167.591       -8.912      168.842      151.344       79.206    28507.465    22905.091     6273.639       10.305        2.884      385.168       86.494        0.050      338.518       11.222      858.880
05/07/2013  20:17:00     -393.484      -41.555      -12.104      144.971      129.991       65.918    21016.605    16897.725     4345.154        9.947        2.113      395.673       66.608        0.028      338.477       11.150      858.924
05/07/2013  20:18:00     -347.375      -51.047      -19.683      119.748       89.998       53.477    14339.533     8099.558     2859.772        7.448        1.265      351.106       50.663        0.021      338.479       11.155      858.946
05/07/2013  20:19:00     -150.808       41.322      -38.378       72.391       58.544       36.158     5240.471     3427.435     1307.435        1.795        0.499      156.367       25.122        0.026      338.498       11.190      858.953
05/07/2013  20:20:00     -160.932       23.112      -25.953      126.916       71.161       47.661    16107.558     5063.909     2271.547        2.527        1.172      162.583       69.708        0.184      338.493       11.183      858.946
05/07/2013  20:21:00     -205.132      -29.598      -26.575       86.609      108.099       41.042     7501.108    11685.487     1684.447        3.226        1.044      207.257       34.498        0.028      338.499       11.192      858.951
05/07/2013  20:22:00     -293.789     -124.235       -6.505       93.322       76.864       46.101     8709.068     5908.145     2125.325        5.926        0.837      318.977       37.813        0.014      338.479       11.152      858.983
05/07/2013  20:23:00     -247.102      -87.692      -14.901      104.486       77.412       46.223    10917.251     5992.545     2136.564        4.401        0.952      262.200       41.220        0.025      338.483       11.160      859.009
05/07/2013  20:24:00     -251.028      -52.368       -7.828      165.054       95.420       53.529    27242.918     9104.903     2865.401        5.251        1.961      256.432       65.657        0.066      338.528       11.239      859.000
05/07/2013  20:25:00     -382.898       16.420      -11.028      140.944      159.199       65.709    19865.248    25344.347     4317.631        9.826        2.476      383.250       73.674        0.037      338.515       11.216      858.992
05/07/2013  20:26:00     -319.260      -18.077      -32.049      118.526       96.649       55.333    14048.467     9340.963     3061.738        6.486        1.323      319.772       63.367        0.039      338.517       11.219      859.014
05/07/2013  20:27:00     -212.780      -50.107       -7.588       82.538      101.529       53.048     6812.558    10308.058     2814.052        3.389        0.997      218.601       42.666        0.038      338.535       11.252      859.017
05/07/2013  20:28:00     -286.785       25.767      -19.101      113.601       78.050       51.834    12905.099     6091.794     2686.799        5.248        1.084      287.940       54.575        0.036      338.545       11.266      859.034
05/07/2013  20:29:00     -230.430      -73.068       -6.735      112.052      115.134       49.713    12555.596    13255.740     2471.386        4.338        1.414      241.737       47.385        0.038      338.545       11.267      859.024
05/07/2013  20:30:00     -256.691      -77.910      -25.904       74.818      105.361       46.750     5597.801    11100.874     2185.608        4.575        0.944      268.254       34.145        0.016      338.545       11.267      859.008
05/07/2013  20:31:00     -237.473      -44.856      -14.560      108.079       89.021       51.192    11680.979     7924.756     2620.580        4.042        1.111      241.672       44.496        0.034      338.537       11.252      859.021
05/07/2013  20:32:00     -360.444      -71.564      -12.167      119.243       82.101       45.599    14218.945     6740.628     2079.249        7.911        1.152      367.480       51.495        0.020      338.520       11.225      859.038
05/07/2013  20:33:00     -276.751      -56.205      -12.472      136.056       98.926       60.153    18511.099     9786.404     3618.388        5.591        1.596      282.400       70.710        0.063      338.551       11.277      859.038
05/07/2013  20:34:00     -222.165      -65.659       -3.560      101.120       94.702       46.381    10225.307     8968.493     2151.191        3.751        1.067      231.665       47.368        0.042      338.532       11.246      859.042
05/07/2013  20:35:00     -214.800      -96.898      -11.831      115.034       76.911       50.608    13232.817     5915.269     2561.213        3.869        1.085      235.644       50.017        0.045      338.550       11.276      859.039
05/07/2013  20:36:00     -196.884      -67.502      -15.633       81.315       81.034       42.862     6612.202     6566.545     1837.134        2.929        0.751      208.134       45.351        0.047      338.555       11.283      859.044
05/07/2013  20:37:00     -224.826      -49.464      -13.178      101.985       74.381       42.749    10400.899     5532.570     1827.440        3.546        0.888      230.203       44.163        0.037      338.538       11.255      859.040
05/07/2013  20:38:00     -268.014      -64.418      -17.029      109.868       76.169       44.810    12070.986     5801.687     2007.967        4.807        0.994      275.647       38.036        0.019      338.555       11.284      859.040
05/07/2013  20:39:00     -178.985      -37.339       -1.829       97.642       84.142       53.384     9533.927     7079.938     2849.886        2.645        0.973      182.838       49.421        0.073      338.557       11.288      859.055
05/07/2013  20:40:00     -180.280       20.275       -5.109      122.953       63.711       47.768    15117.438     4059.077     2281.771        2.719        1.073      181.416       61.334        0.114      338.584       11.335      859.049
05/07/2013  20:41:00     -179.433      -64.934       11.278      133.308      107.670       59.045    17770.891    11592.914     3486.260        3.469        1.643      190.821       67.641        0.126      338.577       11.322      859.082
05/07/2013  20:42:00     -241.622      -71.758      -10.845      167.339      146.725       77.246    28002.314    21528.340     5966.961        5.956        2.775      252.053       76.277        0.092      338.625       11.400      859.094
05/07/2013  20:43:00     -218.045      -96.417       -4.489      161.761      117.281       70.601    26166.775    13754.776     4984.437        5.088        2.245      238.412       83.992        0.124      338.626       11.402      859.086
05/07/2013  20:44:00     -332.944      -99.361      -17.970      167.620      102.812       64.398    28096.576    10570.406     4147.152        8.192        2.141      347.454       70.638        0.041      338.595       11.350      859.104
05/07/2013  20:45:00     -352.470      -78.888      -15.601      137.715      111.038       63.108    18965.413    12329.361     3982.640        8.298        1.764      361.190       67.234        0.035      338.569       11.306      859.125
05/07/2013  20:46:00     -172.505       -9.282        5.571      130.240       93.491       58.919    16962.437     8740.633     3471.410        2.952        1.459      172.755       55.192        0.102      338.563       11.298      859.130
05/07/2013  20:47:00     -212.746        4.399        4.611      163.956       96.564       55.295    26881.426     9324.597     3057.544        4.228        1.963      212.791       75.160        0.125      338.566       11.303      859.125
05/07/2013  20:48:00     -349.251        3.197      -21.099      127.177      130.409       56.061    16174.037    17006.493     3142.795        7.937        1.816      349.265       54.595        0.024      338.565       11.299      859.127
05/07/2013  20:49:00     -352.338      -48.247      -32.810      199.676      155.310       65.042    39870.660    24121.178     4230.520        9.787        3.411      355.626       85.934        0.058      338.569       11.307      859.138
05/07/2013  20:50:00     -163.297       -8.201        3.557      146.314      102.148       51.845    21407.754    10434.152     2687.893        3.063        1.726      163.503       65.932        0.163      338.581       11.329      859.131
05/07/2013  20:51:00     -116.714      -94.882        5.931       97.968       96.631       61.775     9597.740     9337.491     3816.138        2.270        1.138      150.415       59.784        0.158      338.538       11.256      859.140
05/07/2013  20:52:00     -168.237       -4.833       -4.420       60.481       60.357       37.273     3657.919     3642.985     1389.275        1.852        0.435      168.306       34.968        0.043      338.528       11.239      859.137
05/07/2013  20:53:00     -253.618      -50.451      -17.180      127.826      119.048       58.238    16339.548    14172.354     3391.657        5.053        1.695      258.587       68.187        0.070      338.513       11.213      859.146
05/07/2013  20:54:00     -268.014     -135.451      -11.610       99.598       95.643       51.159     9919.828     9147.658     2617.217        5.600        1.084      300.297       42.971        0.020      338.517       11.219      859.154
05/07/2013  20:55:00     -139.793       -3.740       -7.536       86.298       67.258       42.927     7447.287     4523.651     1842.708        1.671        0.691      139.843       43.120        0.095      338.515       11.217      859.174
05/07/2013  20:56:00     -186.004        4.639      -11.126      133.236       90.450       39.715    17751.726     8181.130     1577.276        3.112        1.376      186.062       46.359        0.062      338.499       11.190      859.178
05/07/2013  20:57:00     -373.238      -34.052      -24.518      125.405       94.993       63.530    15726.501     9023.581     4036.064        8.492        1.439      374.788       65.495        0.031      338.478       11.152      859.190
05/07/2013  20:58:00     -242.533      -29.739        1.435      132.797      102.671       64.857    17634.960    10541.358     4206.414        4.604        1.619      244.350       70.233        0.083      338.499       11.188      859.189
05/07/2013  20:59:00     -143.335      -86.059       -4.565       78.906       74.482       44.124     6226.144     5547.524     1946.952        2.084        0.686      167.185       32.243        0.037      338.515       11.218      859.194
05/07/2013  21:00:00     -237.816      -36.578      -23.644      136.130       80.584       56.148    18531.401     6493.858     3152.601        4.331        1.409      240.613       57.713        0.058      338.471       11.143      859.202
05/07/2013  21:01:00     -329.255      -40.787      -29.583      114.376       83.647       48.193    13081.772     6996.844     2322.599        6.667        1.120      331.771       53.629        0.026      338.452       11.109      859.208
05/07/2013  21:02:00     -297.513      -45.080       -2.131      186.851      113.151       73.612    34913.239    12803.066     5418.711        7.183        2.657      300.909       95.309        0.100      338.458       11.119      859.219
05/07/2013  21:03:00     -249.560      -70.367       -3.788      105.881       72.341       52.333    11210.792     5233.255     2738.717        4.321        0.959      259.291       57.281        0.049      338.434       11.079      859.243
05/07/2013  21:04:00     -222.284      -48.309      -14.397      100.283       83.805       52.594    10056.598     7023.267     2766.104        3.590        0.992      227.473       53.292        0.055      338.449       11.103      859.248
05/07/2013  21:05:00     -237.200      -47.990      -13.870      115.110       67.945       50.643    13250.199     4616.491     2564.704        3.959        1.022      242.006       54.669        0.051      338.450       11.106      859.271
05/07/2013  21:06:00     -221.709      -72.516       -5.493      126.633       81.763       42.198    16035.922     6685.116     1780.703        3.947        1.225      233.267       39.050        0.028      338.437       11.086      859.284
05/07/2013  21:07:00     -345.219     -104.699      -16.686      143.670      100.755       55.894    20641.052    10151.497     3124.164        8.216        1.696      360.747       43.376        0.014      338.427       11.067      859.294
05/07/2013  21:08:00     -167.953      -90.103        4.812      155.149       95.936       59.971    24071.294     9203.770     3596.478        3.660        1.844      190.596       76.459        0.161      338.449       11.105      859.297
05/07/2013  21:09:00     -162.413      -25.580       -8.155       85.389       69.980       47.520     7291.203     4897.140     2258.138        2.077        0.722      164.415       45.185        0.076      338.447       11.102      859.310
05/07/2013  21:10:00     -283.856      -72.350      -12.058      126.025      106.311       47.310    15882.272    11302.133     2238.280        5.768        1.471      292.932       50.865        0.030      338.435       11.082      859.331
05/07/2013  21:11:00     -171.079      -67.380       -8.732      135.131       93.498       44.271    18260.401     8741.926     1959.954        3.142        1.448      183.870       67.172        0.133      338.472       11.144      859.351
05/07/2013  21:12:00     -128.261      -55.920       11.276      108.790      102.193       67.869    11835.160    10443.510     4606.174        2.329        1.344      139.921       60.840        0.189      338.421       11.059      859.357
05/07/2013  21:13:00     -256.927      -24.935      -13.230      141.303       85.771       58.338    19966.512     7356.620     3403.377        4.876        1.536      258.135       72.472        0.079      338.382       10.994      859.353
05/07/2013  21:14:00     -271.153      -71.039       -9.248      111.031       91.821       43.776    12327.886     8431.027     1916.336        5.066        1.134      280.304       41.936        0.022      338.352       10.942      859.364
05/07/2013  21:15:00     -238.403       15.823        1.294      105.223       92.653       53.056    11071.815     8584.646     2814.893        3.978        1.124      238.927       49.560        0.043      338.336       10.916      859.397
05/07/2013  21:16:00     -127.754      -44.010        7.946       88.786      122.586       51.346     7883.041    15027.338     2636.420        2.193        1.277      135.122       50.284        0.138      338.357       10.953      859.416
05/07/2013  21:17:00     -107.504       17.829        2.277       89.126       70.594       48.342     7943.391     4983.518     2336.954        1.357        0.763      108.972       35.907        0.109      338.355       10.950      859.433
05/07/2013  21:18:00     -193.039      -80.393       -3.601      101.549       72.880       48.175    10312.192     5311.505     2320.871        3.084        0.897      209.110       45.496        0.047      338.352       10.943      859.444
05/07/2013  21:19:00     -194.335      -65.913       -4.578      104.033       75.702       41.525    10822.831     5730.761     1724.341        3.020        0.914      205.209       38.392        0.035      338.360       10.957      859.459
05/07/2013  21:20:00      -93.431      -29.190       -0.332       70.182       67.240       45.716     4925.567     4521.194     2089.918        1.056        0.577       97.885       41.805        0.182      338.375       10.984      859.467
05/07/2013  21:21:00     -146.215      -34.286       -0.295      120.546       59.797       51.477    14531.312     3575.701     2649.899        2.165        1.038      150.181       66.995        0.199      338.369       10.972      859.493
05/07/2013  21:22:00     -173.042      -56.533       -7.643       65.690       90.132       33.190     4315.142     8123.769     1101.568        2.337        0.677      182.043       26.457        0.021      338.351       10.942      859.516
05/07/2013  21:23:00     -200.360      -35.889      -15.102      102.549      104.267       44.979    10516.318    10871.677     2023.123        3.253        1.171      203.549       38.082        0.035      338.339       10.921      859.530
05/07/2013  21:24:00      -86.001      -51.831       12.870      114.571       67.634       56.435    13126.559     4574.365     3184.944        1.556        1.044      100.412       61.219        0.372      338.384       10.998      859.541
05/07/2013  21:25:00     -156.004      -54.130        2.571       80.637       75.161       40.190     6502.251     5649.160     1615.200        2.052        0.688      165.128       45.331        0.075      338.313       10.879      859.569
05/07/2013  21:26:00     -113.395      -91.980       -3.536      104.102       63.971       40.378    10837.305     4092.235     1630.372        1.894        0.828      146.010       52.917        0.131      338.348       10.938      859.584
05/07/2013  21:27:00     -240.248       28.240      -11.459      123.907       78.518       41.612    15353.049     6165.154     1731.572        4.094        1.162      241.902       54.361        0.051      338.297       10.851      859.594
05/07/2013  21:28:00     -175.003       33.361      -13.934       76.670       55.180       36.424     5878.300     3044.858     1326.681        2.109        0.512      178.154       28.001        0.025      338.269       10.803      859.612
05/07/2013  21:29:00     -167.265     -114.392        6.828      128.465       82.325       47.505    16503.245     6777.403     2256.744        3.332        1.277      202.640       65.181        0.103      338.302       10.859      859.614
05/07/2013  21:30:00     -191.135       -8.338       -4.782      145.306       97.847       48.872    21113.799     9574.083     2388.507        3.485        1.654      191.317       46.262        0.058      338.275       10.814      859.618
05/07/2013  21:31:00     -252.951      -76.263      -20.335      144.517       94.517       53.812    20885.231     8933.500     2895.737        5.146        1.636      264.198       45.821        0.030      338.268       10.803      859.643
05/07/2013  21:32:00     -253.444       -3.874      -22.260       89.126       77.166       48.519     7943.492     5954.591     2354.110        4.050        0.813      253.474       34.172        0.018      338.236       10.747      859.647
05/07/2013  21:33:00     -177.706       12.118      -16.842       73.839       72.912       40.308     5452.155     5316.117     1624.740        2.220        0.620      178.118       31.181        0.031      338.187       10.663      859.655
05/07/2013  21:34:00     -235.919      -38.190       -3.630       88.821       90.318       51.499     7889.209     8157.361     2652.111        3.791        0.935      238.990       52.099        0.048      338.175       10.644      859.674
05/07/2013  21:35:00     -167.285      -50.231       -3.313       94.809       72.573       40.213     8988.723     5266.900     1617.059        2.319        0.794      174.663       47.891        0.075      338.122       10.557      859.704
05/07/2013  21:36:00     -184.300      -14.090       -3.631       91.450       64.322       45.124     8363.100     4137.257     2036.208        2.435        0.727      184.838       43.437        0.055      338.077       10.481      859.723
05/07/2013  21:37:00     -175.866      -12.244        3.754       93.846       80.664       43.045     8807.064     6506.640     1852.870        2.413        0.858      176.292       47.627        0.073      338.085       10.495      859.749
05/07/2013  21:38:00     -174.575      -28.327       -9.616      108.405       52.836       45.460    11751.725     2791.650     2066.597        2.399        0.830      176.858       51.068        0.083      338.040       10.420      859.757
05/07/2013  21:39:00     -103.308      -52.192       11.414       83.425       54.659       34.818     6959.779     2987.608     1212.273        1.234        0.558      115.744       44.416        0.147      338.065       10.461      859.771
05/07/2013  21:40:00     -208.815      -67.806       -4.745       76.597       48.204       38.561     5867.084     2323.666     1486.931        2.895        0.484      219.548       38.531        0.031      338.040       10.420      859.782
05/07/2013  21:41:00      -49.496      -18.762       18.547       80.139       68.489       37.201     6422.261     4690.697     1383.886        0.782        0.625       52.933       36.980        0.488      338.105       10.531      859.775
05/07/2013  21:42:00     -164.355      -78.203       -8.768       58.446       48.244       30.043     3415.966     2327.455      902.581        1.992        0.332      182.012       34.429        0.036      338.038       10.416      859.786
05/07/2013  21:43:00     -146.729      -69.927        2.451       70.032       45.541       28.062     4904.486     2073.991      787.473        1.709        0.388      162.540       29.769        0.034      337.997       10.348      859.820
05/07/2013  21:44:00     -188.872      -72.303       -0.590       87.850       55.783       37.984     7717.634     3111.707     1442.816        2.658        0.614      202.238       38.629        0.036      338.018       10.382      859.835
05/07/2013  21:45:00     -262.518      -54.895      -13.592       74.565       67.826       35.438     5559.899     4600.409     1255.882        4.176        0.571      268.196       28.698        0.011      337.982       10.321      859.850
05/07/2013  21:46:00     -233.326      -72.232       -7.624       60.176       48.464       39.655     3621.136     2348.711     1572.538        3.363        0.377      244.251       24.660        0.010      338.000       10.351      859.879
05/07/2013  21:47:00     -171.120      -75.814       -4.586       48.193       46.905       24.189     2322.518     2200.118      585.116        2.008        0.255      187.163       18.106        0.009      337.967       10.298      859.892
05/07/2013  21:48:00     -131.570      -49.634       -2.605       68.018       51.874       30.192     4626.508     2690.884      911.562        1.400        0.411      140.621       31.264        0.049      337.963       10.292      859.902
05/07/2013  21:49:00     -194.654       -0.218       -8.694       72.795       64.564       38.594     5299.071     4168.566     1489.513        2.446        0.548      194.654       30.635        0.025      337.940       10.251      859.924
05/07/2013  21:50:00     -138.761       -5.166        1.378       55.118       42.638       31.799     3037.947     1817.988     1011.179        1.257        0.293      138.858       16.995        0.015      337.926       10.229      859.930
05/07/2013  21:51:00      -94.061      -32.763       -5.629       63.103       56.224       29.611     3981.947     3161.088      876.798        0.898        0.401       99.604       25.093        0.063      337.958       10.283      859.942
05/07/2013  21:52:00     -131.642      -17.575       -9.730       42.320       54.276       24.300     1790.978     2945.855      590.505        1.153        0.266      132.810       20.402        0.024      337.900       10.187      859.954
05/07/2013  21:53:00     -159.271      -19.864       -4.931       65.662       39.926       27.833     4311.505     1594.119      774.677        1.623        0.334      160.505       26.314        0.027      337.892       10.171      859.955
05/07/2013  21:54:00     -230.471      -16.576      -11.969       70.335       53.879       40.358     4946.945     2902.913     1628.802        3.151        0.474      231.066       36.999        0.026      337.908       10.195      859.958
05/07/2013  21:55:00     -168.338      -37.274       -7.707       92.492       62.190       40.345     8554.685     3867.637     1627.687        2.192        0.703      172.415       43.057        0.062      337.895       10.176      859.969
05/07/2013  21:56:00      -92.677      -22.533        2.446       72.241       42.816       28.135     5218.705     1833.205      791.551        0.847        0.392       95.377       30.749        0.104      337.883       10.156      859.976
05/07/2013  21:57:00      -72.705      -51.108        8.479       68.201       51.304       36.959     4651.363     2632.108     1365.980        0.831        0.432       88.871       34.829        0.154      337.912       10.206      859.969
05/07/2013  21:58:00     -196.324      -37.747       -2.818       92.673       68.876       36.889     8588.214     4743.945     1360.762        2.733        0.735      199.920       36.842        0.034      337.894       10.173      859.982
05/07/2013  21:59:00     -192.462      -65.349       -0.100      102.406       78.216       50.072    10486.934     6117.738     2507.170        3.021        0.956      203.254       49.774        0.060      337.918       10.212      860.000
05/07/2013  22:00:00     -186.323      -14.946      -10.443       74.220       53.160       32.053     5508.539     2825.943     1027.368        2.220        0.468      186.921       30.874        0.027      337.894       10.173      860.021
05/07/2013  22:01:00     -189.533      -46.929      -16.734       65.476       52.927       34.939     4287.157     2801.263     1220.714        2.336        0.415      195.256       32.075        0.027      337.909       10.198      860.036
05/07/2013  22:02:00     -229.543      -32.045      -25.081       68.671       56.131       31.684     4715.705     3150.643     1003.887        3.161        0.444      231.769       25.416        0.012      337.883       10.154      860.058
05/07/2013  22:03:00     -169.009      -53.460        4.162       79.765       59.470       41.585     6362.507     3536.697     1729.310        2.153        0.581      177.263       47.482        0.072      337.876       10.143      860.070
05/07/2013  22:04:00     -168.103      -52.163        1.401       68.446       54.637       35.221     4684.794     2985.190     1240.520        1.994        0.446      176.010       34.717        0.039      337.868       10.130      860.078
05/07/2013  22:05:00     -153.516      -49.507        4.629       54.498       55.800       29.962     2970.025     3113.676      897.737        1.651        0.349      161.301       22.274        0.019      337.861       10.120      860.093
05/07/2013  22:06:00     -241.121      -29.809      -10.025       82.791       79.267       42.064     6854.302     6283.305     1769.415        3.702        0.745      242.957       43.195        0.032      337.887       10.161      860.106
05/07/2013  22:07:00     -230.991      -58.005       -5.630       83.999       54.319       38.692     7055.883     2950.557     1497.037        3.413        0.575      238.162       40.267        0.029      337.868       10.131      860.116
05/07/2013  22:08:00     -192.677      -34.096       -9.325       72.692       65.665       39.783     5284.079     4311.905     1582.686        2.477        0.559      195.671       43.627        0.050      337.841       10.085      860.127
05/07/2013  22:09:00     -177.047      -23.056      -20.933       71.061       59.970       32.923     5049.618     3596.427     1083.936        2.102        0.486      178.542       32.264        0.033      337.844       10.089      860.150
05/07/2013  22:10:00     -219.581      -25.501      -16.980       52.343       61.461       29.011     2739.785     3777.486      841.657        2.826        0.368      221.057       25.823        0.014      337.812       10.036      860.172
05/07/2013  22:11:00     -180.827      -40.942      -13.986       54.071       70.733       33.518     2923.629     5003.087     1123.438        2.181        0.453      185.404       30.338        0.027      337.811       10.036      860.190
05/07/2013  22:12:00     -175.542      -83.489       -1.962       75.562       50.563       38.139     5709.569     2556.656     1454.572        2.375        0.486      194.385       38.205        0.039      337.820       10.049      860.205
05/07/2013  22:13:00     -173.197      -76.445       -8.692       50.512       48.409       31.521     2551.420     2343.456      993.599        2.090        0.294      189.317       29.259        0.024      337.834       10.074      860.221
05/07/2013  22:14:00     -200.243      -61.749      -12.729       69.990       57.082       40.918     4898.534     3258.383     1674.268        2.695        0.492      209.548       32.804        0.025      337.890       10.166      860.227
05/07/2013  22:15:00     -173.240      -44.230       -9.700       53.125       56.291       33.063     2822.263     3168.632     1093.194        1.957        0.354      178.797       28.160        0.025      337.863       10.123      860.236
05/07/2013  22:16:00     -244.940      -34.452      -31.616       76.891       52.107       32.800     5912.168     2715.160     1075.849        3.594        0.485      247.351       39.228        0.025      337.896       10.177      860.272
05/07/2013  22:17:00     -114.122       38.727      -17.037       38.969       42.744       27.144     1518.608     1827.053      736.801        0.945        0.204      120.513       20.903        0.030      337.836       10.078      860.295
05/07/2013  22:18:00     -147.458       24.962      -12.909       59.904       39.124       25.889     3588.458     1530.668      670.257        1.416        0.289      149.556       26.359        0.031      337.856       10.112      860.309
05/07/2013  22:19:00     -140.431       -8.390      -11.193       53.557       47.353       17.742     2868.354     2242.307      314.779        1.267        0.271      140.682       21.067        0.022      337.831       10.070      860.319
05/07/2013  22:20:00     -148.031      -15.191       -7.115       44.254       47.640       23.534     1958.407     2269.616      553.832        1.349        0.239      148.808       20.630        0.019      337.846       10.096      860.340
05/07/2013  22:21:00      -90.820      -74.472        3.754       67.975       46.788       26.391     4620.633     2189.127      696.488        1.066        0.375      117.449       28.611        0.059      337.857       10.113      860.352
05/07/2013  22:22:00     -122.602      -63.427       -5.229       52.529       41.224       29.127     2759.277     1699.434      848.376        1.219        0.265      138.037       25.248        0.033      337.834       10.074      860.362
05/07/2013  22:23:00     -107.690      -21.151       -6.171       40.520       38.761       23.742     1641.909     1502.421      563.694        0.789        0.185      109.747       22.529        0.042      337.867       10.131      860.368
05/07/2013  22:24:00     -138.617      -61.926       -3.461       49.477       39.946       28.030     2447.991     1595.709      785.707        1.394        0.241      151.821       25.718        0.029      337.868       10.133      860.383
05/07/2013  22:25:00     -139.899      -31.654       -5.231       75.571       44.671       26.766     5711.022     1995.459      716.440        1.451        0.421      143.435       35.012        0.060      337.860       10.117      860.375
05/07/2013  22:26:00     -143.280        2.361       -6.940       71.620       46.531       25.894     5129.399     2165.125      670.481        1.427        0.398      143.300       26.784        0.035      337.816       10.045      860.370
05/07/2013  22:27:00     -160.707      -55.093       -3.392       52.376       57.839       37.397     2743.284     3345.324     1398.547        1.818        0.374      169.888       34.235        0.041      337.831       10.070      860.367
05/07/2013  22:28:00     -147.547      -16.678       -8.778       47.061       45.450       33.245     2214.706     2065.734     1105.208        1.375        0.269      148.487       27.696        0.035      337.794       10.009      860.374
05/07/2013  22:29:00     -162.987      -48.165       -9.328       72.105       54.821       33.068     5199.090     3005.319     1093.492        1.913        0.465      169.954       35.889        0.045      337.794       10.008      860.389
05/07/2013  22:30:00     -195.738      -28.227       -3.471       78.269       55.257       43.723     6125.968     3053.367     1911.672        2.510        0.555      197.763       45.558        0.053      337.788        9.997      860.398
05/07/2013  22:31:00     -175.184      -55.587        2.563       63.885       39.879       27.216     4081.282     1590.370      740.696        2.010        0.321      183.792       30.325        0.027      337.762        9.952      860.390
05/07/2013  22:32:00      -89.566      -73.484       -0.048       94.007       42.124       42.897     8837.258     1774.413     1840.149        1.293        0.623      115.853       45.619        0.155      337.744        9.926      860.372
05/07/2013  22:33:00     -104.789      -71.801       -2.096       69.076       40.910       28.953     4771.515     1673.662      838.283        1.171        0.364      127.028       35.746        0.079      337.748        9.931      860.365
05/07/2013  22:34:00     -194.354      -93.009       -1.678       76.317       36.528       30.529     5824.327     1334.267      932.033        2.726        0.405      215.463       36.875        0.029      337.753        9.938      860.388
05/07/2013  22:35:00     -139.558     -114.586        0.279       66.265       51.079       26.509     4391.116     2609.087      702.713        2.015        0.385      180.572       30.202        0.028      337.751        9.934      860.393
05/07/2013  22:36:00     -124.054     -145.356       -2.425       64.926       56.315       31.483     4215.345     3171.339      991.153        2.245        0.419      191.096       28.220        0.022      337.763        9.955      860.356
05/07/2013  22:37:00      -78.440     -117.227        0.035       53.855       49.802       30.117     2900.341     2480.251      907.062        1.309        0.314      141.050       32.293        0.052      337.732        9.905      860.341
05/07/2013  22:38:00      -86.631      -77.429       -2.235       63.182       54.842       25.963     3992.009     3007.597      674.064        1.059        0.384      116.190       30.251        0.068      337.712        9.871      860.346
05/07/2013  22:39:00      -80.459      -75.926        2.465       54.676       45.357       31.847     2989.476     2057.298     1014.256        0.915        0.303      110.627       32.124        0.084      337.690        9.833      860.358
05/07/2013  22:40:00     -108.073      -88.063        8.950       59.566       48.345       31.250     3548.104     2337.245      976.569        1.319        0.343      139.409       25.089        0.032      337.671        9.802      860.348
05/07/2013  22:41:00      -69.713     -123.817        3.988       47.255       66.550       29.876     2233.009     4428.862      892.593        1.388        0.378      142.093       25.048        0.031      337.724        9.891      860.329
05/07/2013  22:42:00     -122.695     -115.754       -8.728       51.678       55.859       27.279     2670.601     3120.211      744.143        1.753        0.327      168.680       21.137        0.016      337.703        9.856      860.320
05/07/2013  22:43:00      -81.338     -158.971       -4.779       61.010       51.978       23.403     3722.252     2701.694      547.681        1.944        0.349      178.571       25.331        0.020      337.727        9.895      860.322
05/07/2013  22:44:00     -132.249     -113.124       -2.870       51.638       39.990       26.984     2666.472     1599.209      728.140        1.764        0.250      174.031       19.994        0.013      337.751        9.935      860.348
05/07/2013  22:45:00      -89.523      -81.181       -8.825       57.137       41.374       24.628     3264.649     1711.786      606.548        1.013        0.279      120.850       28.311        0.055      337.733        9.907      860.366
05/07/2013  22:46:00     -101.346      -80.260       -9.041       37.680       28.402       16.275     1419.751      806.654      264.892        0.964        0.125      129.278       18.869        0.021      337.734        9.909      860.372
05/07/2013  22:47:00     -114.592      -49.444      -13.928       22.485       29.780       15.275      505.578      886.859      233.333        0.870        0.081      124.804       11.650        0.009      337.755        9.944      860.383
05/07/2013  22:48:00      -81.786      -38.352       -6.162       29.701       24.324       16.013      882.178      591.655      256.422        0.496        0.087       90.332       13.618        0.023      337.740        9.919      860.408
05/07/2013  22:49:00      -19.440      -40.004       12.660       18.575       22.708       17.168      345.014      515.635      294.734        0.165        0.058       44.478       14.899        0.112      337.768        9.963      860.432
05/07/2013  22:50:00      -23.681      -14.021       -9.490       22.050       23.271       11.112      486.193      541.548      123.484        0.100        0.058       27.521        9.353        0.115      337.737        9.913      860.450
05/07/2013  22:51:00      -74.681      -25.963       -9.290       19.111       24.423       11.778      365.234      596.459      138.724        0.372        0.055       79.066        9.052        0.013      337.773        9.974      860.479
05/07/2013  22:52:00      -58.502      -11.145       -5.478       23.688       28.262       13.817      561.101      798.746      190.921        0.256        0.078       59.554       11.547        0.038      337.750        9.935      860.496
05/07/2013  22:53:00      -88.590      -29.495       -9.997       18.645       14.300       13.692      347.650      204.483      187.468        0.478        0.037       93.372       11.152        0.014      337.725        9.895      860.505
05/07/2013  22:54:00      -77.170      -30.177        0.320       25.951       14.824       17.641      673.475      219.760      311.195        0.403        0.060       82.860       18.163        0.048      337.725        9.891      860.525
05/07/2013  22:55:00      -33.910      -53.983        2.879       27.071       26.444       16.520      732.829      699.308      272.894        0.289        0.085       63.749       17.812        0.078      337.791       10.005      860.529
05/07/2013  22:56:00      -20.917      -91.083        6.624       37.316       46.795       19.662     1392.481     2189.753      386.577        0.637        0.198       93.454       21.491        0.053      337.870       10.138      860.520
05/07/2013  22:57:00      -97.225     -111.474       -7.226       35.075       39.261       26.161     1230.230     1541.407      684.393        1.269        0.173      147.916       16.103        0.012      337.803       10.024      860.516
05/07/2013  22:58:00     -110.748     -108.455       -4.640       65.079       51.069       35.000     4235.326     2608.011     1224.972        1.606        0.403      155.009       38.146        0.061      337.783        9.991      860.521
05/07/2013  22:59:00      -87.983      -92.294        2.640       51.005       34.450       22.559     2601.468     1186.827      508.921        1.028        0.215      127.511       16.295        0.016      337.786        9.994      860.512
05/07/2013  23:00:00     -105.353      -89.084       -3.229       71.837       39.243       36.099     5160.593     1539.980     1303.155        1.352        0.400      137.968       39.493        0.082      337.803       10.024      860.508
05/07/2013  23:01:00     -135.785     -101.066       -5.081       54.328       38.721       29.171     2951.522     1499.345      850.947        1.699        0.265      169.269       24.679        0.021      337.784        9.992      860.512
05/07/2013  23:02:00     -123.622      -90.395       -4.747       52.495       55.966       28.074     2755.696     3132.149      788.129        1.508        0.334      153.146       30.925        0.041      337.787        9.997      860.507
05/07/2013  23:03:00     -141.999      -92.291       11.111       72.424       56.922       39.389     5245.232     3240.093     1551.480        1.942        0.502      169.356       42.513        0.063      337.762        9.953      860.486
05/07/2013  23:04:00     -152.156     -129.225        5.563       99.743       85.737       51.040     9948.631     7350.810     2605.103        2.989        0.995      199.626       54.716        0.075      337.747        9.928      860.445
05/07/2013  23:05:00     -169.219     -154.642        2.186      128.414       69.807       55.648    16490.233     4872.985     3096.741        3.850        1.223      229.236       62.583        0.075      337.738        9.912      860.405
05/07/2013  23:06:00     -197.856     -103.404        1.435      113.997       64.240       44.768    12995.254     4126.761     2004.161        3.448        0.956      223.247       45.771        0.042      337.722        9.886      860.393
05/07/2013  23:07:00     -162.840     -112.932       12.001       96.304       77.953       51.087     9274.465     6076.721     2609.853        2.868        0.898      198.168       48.462        0.060      337.724        9.891      860.372
05/07/2013  23:08:00     -197.685     -143.910        8.269      133.816      107.101       67.208    17906.603    11470.612     4516.935        4.687        1.695      244.519       60.533        0.061      337.746        9.925      860.346
05/07/2013  23:09:00     -309.146     -236.163       -5.725      151.825      109.294       73.490    23050.943    11945.155     5400.742        9.588        2.020      389.030       79.114        0.041      337.737        9.910      860.298
05/07/2013  23:10:00     -338.861     -196.985       -3.336      128.456      101.443       63.446    16501.023    10290.605     4025.344        9.222        1.541      391.957       60.107        0.024      337.712        9.868      860.286
05/07/2013  23:11:00     -248.003     -218.820        0.703      131.420      118.631       71.568    17271.104    14073.285     5121.920        7.292        1.823      330.738       82.114        0.062      337.687        9.825      860.275
05/07/2013  23:12:00     -290.443     -205.797        2.674      129.352      106.605       70.588    16731.932    11364.529     4982.698        7.989        1.654      355.963       76.860        0.047      337.695        9.840      860.291
05/07/2013  23:13:00     -276.293     -190.021       -4.185      116.983       93.949       58.553    13685.134     8826.507     3428.427        6.920        1.297      335.330       58.033        0.030      337.694        9.838      860.306
05/07/2013  23:14:00     -254.584     -179.500       -3.170       92.812       86.317       46.835     8614.145     7450.669     2193.484        5.765        0.913      311.502       49.401        0.025      337.669        9.798      860.330
05/07/2013  23:15:00     -233.729     -178.657       -6.882       94.529       91.755       44.822     8935.733     8418.955     2008.982        5.298        0.968      294.190       43.261        0.022      337.658        9.778      860.349
05/07/2013  23:16:00     -205.303     -162.313        4.685       95.649       78.094       51.749     9148.796     6098.618     2677.924        4.322        0.896      261.716       48.263        0.034      337.635        9.739      860.352
05/07/2013  23:17:00     -260.394     -193.166       -6.059      108.686      101.498       59.785    11812.695    10301.747     3574.260        6.542        1.284      324.219       56.347        0.030      337.591        9.666      860.346
05/07/2013  23:18:00     -305.163     -110.878      -12.222       74.606       84.473       46.111     5566.029     7135.763     2126.224        6.020        0.741      324.682       44.130        0.018      337.571        9.628      860.332
05/07/2013  23:19:00     -263.206     -107.534      -19.276      108.862       84.334       41.011    11850.987     7112.166     1681.921        5.093        1.032      284.326       45.810        0.026      337.565        9.621      860.341
05/07/2013  23:20:00     -191.157      -47.218       -0.784      104.094       52.627       41.094    10835.556     2769.651     1688.680        2.703        0.765      196.902       50.533        0.066      337.568        9.628      860.336
05/07/2013  23:21:00     -119.368      -83.513        1.116       60.821       64.551       37.111     3699.240     4166.863     1377.248        1.523        0.462      145.681       22.202        0.023      337.598        9.680      860.334
05/07/2013  23:22:00     -126.802        7.919       13.007      103.521       67.719       53.249    10716.701     4585.817     2835.460        1.722        0.907      127.049       64.432        0.257      337.614        9.708      860.342
05/07/2013  23:23:00     -192.718      -35.262       -6.124       93.929       56.251       33.995     8822.676     3164.148     1155.664        2.578        0.657      195.917       41.550        0.045      337.539        9.579      860.371
05/07/2013  23:24:00     -124.510      -30.710       -5.397       61.207       46.998       26.447     3746.292     2208.830      699.466        1.156        0.333      128.242       27.641        0.046      337.503        9.520      860.383
05/07/2013  23:25:00      -78.136      -49.221       -5.376       58.557       47.550       24.945     3428.965     2261.013      622.251        0.743        0.316       92.347       26.481        0.082      337.547        9.593      860.388
05/07/2013  23:26:00     -176.727      -59.974        5.577       69.793       51.059       36.131     4871.108     2606.977     1305.478        2.182        0.439      186.626       29.766        0.025      337.561        9.616      860.380
05/07/2013  23:27:00     -156.742     -123.721       -6.209      104.208       59.676       47.003    10859.378     3561.199     2209.262        2.827        0.831      199.688       45.379        0.052      337.603        9.686      860.373
05/07/2013  23:28:00      -83.211     -103.335       14.927       98.326       76.330       48.411     9668.035     5826.316     2343.627        1.783        0.892      132.674       52.912        0.159      337.616        9.707      860.369
05/07/2013  23:29:00      -83.827      -39.358        2.462       69.146       50.133       34.318     4781.236     2513.345     1177.697        0.853        0.424       92.607       28.567        0.095      337.599        9.682      860.357
05/07/2013  23:30:00      -89.452      -13.055        5.555       65.247       51.201       40.210     4257.221     2621.572     1616.877        0.835        0.425       90.399       36.867        0.166      337.589        9.665      860.347
05/07/2013  23:31:00     -151.975      -87.236      -10.091       96.002       61.054       34.940     9216.424     3727.575     1220.774        2.248        0.708      175.232       32.385        0.034      337.606        9.694      860.347
05/07/2013  23:32:00     -132.037      -37.931       -8.544       64.439       78.457       31.012     4152.430     6155.543      961.719        1.511        0.563      137.378       22.605        0.027      337.584        9.656      860.359
05/07/2013  23:33:00     -122.870       -2.749      -10.688       46.971       35.748       25.150     2206.313     1277.952      632.507        0.967        0.206      122.901       26.689        0.047      337.540        9.583      860.363
05/07/2013  23:34:00     -169.981      -39.651      -17.337       39.417       36.651       29.378     1553.672     1343.269      863.093        1.726        0.188      174.544       22.804        0.017      337.550        9.602      860.355
05/07/2013  23:35:00     -144.186      -67.637       -4.405       60.217       57.911       28.384     3626.093     3353.660      805.629        1.658        0.389      159.262       20.253        0.016      337.551        9.602      860.347
05/07/2013  23:36:00     -173.443     -112.241       -9.942       66.688       66.370       29.745     4447.238     4405.034      884.751        2.626        0.487      206.592       25.192        0.015      337.588        9.660      860.332
05/07/2013  23:37:00      -59.267      -22.397       14.628       68.497       61.156       38.433     4691.892     3740.095     1477.065        0.707        0.495       63.358       37.554        0.351      337.613        9.705      860.315
05/07/2013  23:38:00     -178.384      -53.419        5.473       72.581       59.283       34.194     5267.967     3514.496     1169.216        2.233        0.498      186.211       38.006        0.042      337.633        9.739      860.313
05/07/2013  23:39:00     -157.031      -83.320       -6.509       50.298       45.200       29.302     2529.868     2043.053      858.584        1.854        0.272      177.767       21.164        0.014      337.650        9.766      860.316
05/07/2013  23:40:00     -116.044      -48.505       -4.204       67.209       45.342       34.991     4516.992     2055.877     1224.351        1.182        0.390      125.773       34.041        0.073      337.666        9.794      860.320
05/07/2013  23:41:00      -70.032      -13.225        5.042       47.502       36.081       22.964     2256.460     1301.838      527.329        0.459        0.204       71.270       25.014        0.123      337.660        9.785      860.330
05/07/2013  23:42:00     -145.085      -50.782       -9.083       72.192       37.731       29.592     5211.738     1423.599      875.690        1.561        0.376      153.715       30.787        0.040      337.702        9.853      860.352
05/07/2013  23:43:00     -203.150      -13.583      -11.636      113.490       77.986       46.367    12880.078     6081.831     2149.884        3.135        1.056      203.604       62.554        0.094      337.711        9.869      860.385
05/07/2013  23:44:00     -250.868      -38.673       -5.993      175.330       64.941       44.530    30740.559     4217.388     1982.920        5.070        1.847      253.831       63.176        0.062      337.797       10.012      860.395
05/07/2013  23:45:00     -286.506      -71.970      -14.818       98.789       72.781       44.683     9759.316     5297.123     1996.554        5.227        0.853      295.407       50.572        0.029      337.771        9.966      860.392
05/07/2013  23:46:00     -264.532      -18.942      -24.286       94.847       72.216       41.249     8995.949     5215.180     1701.500        4.342        0.796      265.209       32.943        0.015      337.707        9.860      860.399
05/07/2013  23:47:00     -160.681      -39.153       -3.452       56.548       55.421       31.979     3197.677     3071.463     1022.680        1.733        0.365      165.383       24.796        0.022      337.678        9.815      860.381
05/07/2013  23:48:00     -189.967      -23.493        4.117       88.850       57.598       40.975     7894.313     3317.573     1678.921        2.477        0.645      191.414       35.304        0.034      337.648        9.763      860.370
05/07/2013  23:49:00     -162.170        9.963       -3.722       91.886       65.012       45.379     8443.074     4226.624     2059.289        2.057        0.736      162.476       47.887        0.087      337.653        9.771      860.365
05/07/2013  23:50:00     -179.434        5.718        0.004       97.470       73.042       41.850     9500.309     5335.109     1751.385        2.441        0.829      179.525       46.907        0.068      337.669        9.799      860.357
05/07/2013  23:51:00     -147.437      -12.669       -3.372      118.682       65.749       45.282    14085.461     4322.969     2050.499        2.118        1.023      147.980       62.105        0.176      337.703        9.854      860.345
05/07/2013  23:52:00     -245.475      -32.748      -17.831       91.107       58.272       43.096     8300.399     3395.626     1857.225        3.760        0.678      247.650       47.270        0.036      337.678        9.812      860.345
05/07/2013  23:53:00     -360.911      -45.675      -19.177      110.913      100.305       50.074    12301.629    10061.049     2507.430        7.879        1.244      363.790       52.921        0.021      337.714        9.870      860.334
05/07/2013  23:54:00     -261.706      -26.832      -13.541      124.324       82.532       41.825    15456.431     6811.596     1749.370        4.670        1.201      263.078       50.652        0.037      337.716        9.875      860.334
05/07/2013  23:55:00     -153.579      -45.075        3.150       97.170       77.290       41.678     9441.921     5973.693     1737.019        2.139        0.858      160.057       40.750        0.065      337.689        9.831      860.321
05/07/2013  23:56:00     -223.168      -66.816       -7.409       88.506       73.732       44.310     7833.361     5436.410     1963.384        3.478        0.762      232.955       53.242        0.052      337.680        9.814      860.313
05/07/2013  23:57:00     -184.312      -77.973       -7.269       69.865       68.093       38.198     4881.057     4636.652     1459.123        2.554        0.549      200.127       36.075        0.032      337.682        9.819      860.280
05/07/2013  23:58:00     -237.190     -105.778       -2.163       85.080       89.254       45.773     7238.653     7966.282     2095.211        4.237        0.865      259.708       44.825        0.030      337.677        9.810      860.256
05/07/2013  23:59:00     -221.879      -53.523      -12.331       82.467       68.922       37.067     6800.792     4750.231     1373.996        3.258        0.646      228.243       31.561        0.019      337.639        9.747      860.235
